[[{"header":{"parameterUnit":"m.s-1","parameterCategory":1,"la1":31.0,"la2":29.5877,"lo1":-88.7671,"lo2":-86.6584,"dy":0.0162,"dx":0.0185,"nx":115,"ny":88,"refTime":"2023-03-24T06:00:00:Z","depth":0,"parameterNumber":2,"parameterNumberName":"U-component_of_WINDS"},"data":[0.0,0.0,0.0,0.0,0.0,0.0,0.0,0.0,0.0,0.0,0.0,0.0,0.0,0.0,0.0,0.0,0.0,0.0,0.0,0.0,0.0,0.0,0.0,0.0,0.0,0.0,0.0,0.0,0.0,0.0,0.0,0.0,0.0,0.0,0.0,0.0,0.0,0.0,0.0,0.0,0.0,0.0,0.0,0.0,0.0,0.0,0.0,0.0,0.0,0.0,0.0,0.0,0.0,0.0,0.0,0.0,0.0,0.0,0.0,0.0,0.0,0.0,0.0,0.0,0.0,0.0,0.0,0.0,0.0,0.0,0.0,0.0,0.0,0.0,0.0,0.0,0.0,0.0,0.0,0.0,0.0,0.0,0.0,0.0,0.0,0.0,0.0,0.0,0.0,0.0,0.0,0.0,0.0,0.0,0.0,0.0,0.0,0.0,0.0,0.0,0.0,0.0,0.0,0.0,0.0,0.0,0.0,0.0,0.0,0.0,0.0,0.0,0.0,0.0,0.0,0.0,0.0,0.0,0.0,0.0,0.0,0.0,0.0,0.0,0.0,0.0,0.0,0.0,0.0,0.0,0.0,0.0,0.0,0.0,0.0,0.0,0.0,0.0,0.0,0.0,0.0,0.0,0.0,0.0,0.0,0.0,0.0,0.0,0.0,0.0,0.0,0.0,0.0,0.0,0.0,0.0,0.0,0.0,0.0,0.0,0.0,0.0,0.0,0.0,0.0,0.0,0.0,0.0,0.0,0.0,0.0,0.0,0.0,0.0,0.0,0.0,0.0,0.0,0.0,0.0,0.0,0.0,0.0,0.0,0.0,0.0,0.0,0.0,0.0,0.0,0.0,0.0,0.0,0.0,0.0,0.0,0.0,0.0,0.0,0.0,0.0,0.0,0.0,0.0,0.0,0.0,0.0,0.0,0.0,0.0,0.0,0.0,0.0,0.0,0.0,0.0,0.0,0.0,0.0,0.0,0.0,0.0,0.0,0.0,0.0,0.0,0.0,0.0,0.0,0.0,0.0,0.0,0.0,0.0,0.0,0.0,0.0,0.0,0.0,0.0,0.0,0.0,0.0,0.0,0.0,0.0,0.0,0.0,0.0,0.0,0.0,0.0,0.0,0.0,0.0,0.0,0.0,0.0,0.0,0.0,0.0,0.0,0.0,0.0,0.0,0.0,0.0,0.0,0.0,0.0,0.0,0.0,0.0,0.0,0.0,0.0,0.0,0.0,0.0,0.0,0.0,0.0,0.0,0.0,0.0,0.0,0.0,0.0,0.0,0.0,0.0,0.0,0.0,0.0,0.0,0.0,0.0,0.0,0.0,0.0,0.0,0.0,0.0,0.0,0.0,0.0,0.0,0.0,0.0,0.0,0.0,0.0,0.0,0.0,0.0,0.0,0.0,0.0,0.0,0.0,0.0,0.0,0.0,0.0,0.0,0.0,0.0,0.0,0.0,0.0,0.0,0.0,0.0,0.0,0.0,0.0,0.0,0.0,0.0,0.0,0.0,0.0,0.0,0.0,0.0,0.0,0.0,0.0,0.0,0.0,0.0,0.0,0.0,0.0,0.0,0.0,0.0,0.0,0.0,0.0,0.0,0.0,0.0,0.0,0.0,0.0,0.0,0.0,0.0,0.0,0.0,0.0,0.0,0.0,0.0,0.0,0.0,0.0,0.0,0.0,0.0,0.0,0.0,0.0,0.0,0.0,0.0,0.0,0.0,0.0,0.0,0.0,0.0,0.0,0.0,0.0,0.0,0.0,0.0,0.0,0.0,0.0,0.0,0.0,0.0,0.0,0.0,0.0,0.0,0.0,0.0,0.0,0.0,0.0,0.0,0.0,0.0,0.0,0.0,0.0,0.0,0.0,0.0,0.0,0.0,0.0,0.0,0.0,0.0,0.0,0.0,0.0,0.0,0.0,0.0,0.0,0.0,0.0,0.0,0.0,0.0,0.0,0.0,0.0,0.0,0.0,0.0,0.0,0.0,0.0,0.0,0.0,0.0,0.0,0.0,0.0,0.0,0.0,0.0,0.0,0.0,0.0,0.0,0.0,0.0,0.0,0.0,0.0,0.0,0.0,0.0,0.0,0.0,0.0,0.0,0.0,0.0,0.0,0.0,0.0,0.0,0.0,0.0,0.0,0.0,0.0,0.0,0.0,0.0,0.0,0.0,0.0,0.0,0.0,0.0,0.0,0.0,0.0,0.0,0.0,0.0,0.0,0.0,0.0,0.0,0.0,0.0,0.0,0.0,0.0,0.0,0.0,0.0,0.0,0.0,0.0,0.0,0.0,0.0,0.0,0.0,0.0,0.0,0.0,0.0,0.0,0.0,0.0,0.0,0.0,0.0,0.0,0.0,0.0,0.0,0.0,0.0,0.0,0.0,0.0,0.0,0.0,0.0,0.0,0.0,0.0,0.0,0.0,0.0,0.0,0.0,0.0,0.0,0.0,0.0,0.0,0.0,0.0,0.0,0.0,0.0,0.0,0.0,0.0,0.0,0.0,0.0,0.0,0.0,0.0,0.0,0.0,0.0,0.0,0.0,0.0,0.0,0.0,0.0,0.0,0.0,0.0,0.0,0.0,0.0,0.0,0.0,0.0,0.0,0.0,0.0,0.0,0.0,0.0,0.0,0.0,0.0,0.0,0.0,0.0,0.0,0.0,0.0,0.0,0.0,0.0,0.0,0.0,0.0,0.0,0.0,0.0,0.0,0.0,0.0,0.0,0.0,0.0,0.0,0.0,0.0,0.0,0.0,0.0,0.0,0.0,0.0,0.0,0.0,0.0,0.0,0.0,0.0,0.0,0.0,0.0,0.0,0.0,0.0,0.0,0.0,0.0,0.0,0.0,0.0,0.0,0.0,0.0,0.0,0.0,0.0,0.0,0.0,0.0,0.0,0.0,0.0,0.0,0.0,0.0,0.0,0.0,0.0,0.0,0.0,0.0,0.0,0.0,0.0,0.0,0.0,0.0,0.0,0.0,0.0,0.0,0.0,0.0,0.0,0.0,0.0,0.0,0.0,0.0,0.0,0.0,0.0,0.0,0.0,0.0,0.0,0.0,0.0,0.0,0.0,0.0,0.0,0.0,0.0,0.0,0.0,0.0,0.0,0.0,0.0,0.0,0.0,0.0,0.0,0.0,0.0,0.0,0.0,0.0,0.0,0.0,0.0,0.0,0.0,0.0,0.0,0.0,0.0,0.0,0.0,0.0,0.0,0.0,0.0,0.0,0.0,0.0,0.0,0.0,0.0,0.0,0.0,0.0,0.0,0.0,0.0,0.0,0.0,0.0,0.0,0.0,0.0,0.0,0.0,0.0,0.0,0.0,0.0,0.0,0.0,0.0,0.0,0.0,0.0,0.0,0.0,0.0,0.0,0.0,0.0,0.0,0.0,0.0,0.0,0.0,0.0,0.0,0.0,0.0,0.0,0.0,0.0,0.0,0.0,0.0,0.0,0.0,0.0,0.0,0.0,0.0,0.0,0.0,0.0,0.0,0.0,0.0,0.0,0.0,0.0,0.0,0.0,0.0,0.0,0.0,0.0,0.0,0.0,0.0,0.0,0.0,0.0,0.0,0.0,0.0,0.0,0.0,0.0,0.0,0.0,0.0,0.0,0.0,0.0,0.0,0.0,0.0,0.0,0.0,0.0,0.0,0.0,0.0,0.0,0.0,0.0,0.0,0.0,0.0,0.0,0.0,0.0,0.0,0.0,0.0,0.0,0.0,0.0,0.0,0.0,0.0,0.0,0.0,0.0,0.0,0.0,0.0,0.0,0.0,0.0,0.0,0.0,0.0,0.0,0.0,0.0,0.0,0.0,0.0,0.0,0.0,0.0,0.0,0.0,0.0,0.0,0.0,0.0,0.0,0.0,0.0,0.0,0.0,0.0,0.0,0.0,0.0,0.0,0.0,0.0,0.0,0.0,0.0,0.0,0.0,0.0,0.0,0.0,0.0,0.0,0.0,0.0,0.0,0.0,0.0,0.0,0.0,0.0,0.0,0.0,0.0,0.0,0.0,0.0,0.0,0.0,0.0,0.0,0.0,0.0,0.0,0.0,0.0,0.0,0.0,0.0,0.0,0.0,0.0,0.0,0.0,0.0,0.0,0.0,0.0,0.0,0.0,0.0,0.0,0.0,0.0,0.0,0.0,0.0,0.0,0.0,0.0,0.0,0.0,0.0,0.0,0.0,0.0,0.0,0.0,0.0,0.0,0.0,0.0,0.0,0.0,0.0,0.0,0.0,0.0,0.0,0.0,0.0,0.0,0.0,0.0,-0.5105,0.0,0.0,0.0,0.0,0.0,0.0,0.0,0.0,0.0,0.0,0.0,0.0,0.0,0.0,0.0,0.0,0.0,0.0,0.0,0.0,0.0,0.0,0.0,0.0,0.0,0.0,0.0,0.0,0.0,0.0,0.0,0.0,0.0,0.0,0.0,0.0,0.0,0.0,0.0,0.0,0.0,0.0,0.0,0.0,0.0,0.0,0.0,0.0,0.0,0.0,0.0,0.0,0.0,0.0,0.0,0.0,0.0,0.0,0.0,0.0,0.0,0.0,0.0,0.0,0.0,0.0,0.0,0.0,0.0,0.0,0.0,0.0,0.0,0.0,0.0,0.0,0.0,0.0,0.0,0.0,0.0,0.0,0.0,0.0,0.0,0.0,0.0,0.0,0.0,0.0,0.0,0.0,0.0,0.0,0.0,0.0,0.0,0.0,0.0,0.0,0.0,0.0,0.0,0.0,0.0,0.0,0.0,0.0,0.0,0.0,-0.2599,-0.3449,-0.3643,-0.4173,-0.5113,0.0,0.0,0.0,0.0,0.0,0.0,0.0,0.0,0.0,0.0,0.0,0.0,0.0,0.0,0.0,0.0,0.0,0.0,0.0,0.0,0.0,0.0,0.0,0.0,0.0,0.0,0.0,0.0,0.0,0.0,0.0,0.0,0.0,0.0,0.0,0.0,0.0,0.0,0.0,0.0,0.0,0.0,0.0,0.0,0.0,0.0,0.0,0.0,0.0,0.0,0.0,0.0,0.0,0.0,0.0,0.0,0.0,0.0,0.0,0.0,0.0,0.0,0.0,0.0,0.0,0.0,0.0,0.0,0.0,0.0,0.0,0.0,0.0,0.0,0.0,0.0,0.0,0.0,0.0,0.0,0.0,0.0,0.0,0.0,0.0,0.0,0.0,0.0,0.0,0.0,0.0,0.0,0.0,0.0,0.0,0.0,0.0,0.0,0.0,0.0,0.0,0.0,0.0,0.0,0.0,0.0,0.0,0.0,0.0,0.0,0.0,0.0,-0.4794,-0.5097,-0.5345,0.0,0.0,0.0,0.0,0.0,0.0,0.0,0.0,0.0,0.0,0.0,0.0,0.0,0.0,0.0,0.0,0.0,0.0,0.0,0.0,0.0,0.0,0.0,0.0,0.0,0.0,0.0,0.0,0.0,0.0,0.0,0.0,0.0,0.0,0.0,0.0,0.0,0.0,0.0,0.0,0.0,0.0,0.0,0.0,0.0,0.0,0.0,0.0,0.0,0.0,0.0,0.0,0.0,0.0,0.0,0.0,0.0,0.0,0.0,0.0,0.0,0.0,0.0,0.0,0.0,0.0,0.0,0.0,0.0,0.0,0.0,0.0,0.0,0.0,0.0,0.0,0.0,0.0,0.0,0.0,0.0,0.0,0.0,0.0,0.0,0.0,0.0,0.0,0.0,0.0,0.0,0.0,0.0,0.0,0.0,0.0,0.0,0.0,0.0,0.0,0.0,0.0,0.0,0.0,0.0,0.0,0.0,0.0,0.0,0.0,-0.5058,-0.6139,-0.6108,0.0,-0.7503,0.0,0.0,0.0,0.0,0.0,0.0,0.0,0.0,0.0,0.0,0.0,0.0,0.0,0.0,0.0,0.0,0.0,0.0,0.0,0.0,0.0,0.0,0.0,0.0,0.0,0.0,0.0,0.0,0.0,0.0,0.0,0.0,0.0,0.0,0.0,0.0,0.0,0.0,0.0,0.0,0.0,0.0,0.0,0.0,0.0,0.0,0.0,0.0,0.0,0.0,0.0,0.0,0.0,0.0,0.0,0.0,0.0,0.0,0.0,0.0,0.0,0.0,0.0,0.0,0.0,0.0,0.0,0.0,0.0,0.0,0.0,0.0,0.0,0.0,0.0,0.0,0.0,0.0,0.0,0.0,0.0,0.0,0.0,0.0,0.0,0.0,0.0,0.0,0.0,0.0,0.0,0.0,0.0,0.0,0.0,0.0,0.0,0.0,0.0,0.0,0.0,0.0,0.0,0.0,0.0,0.0,0.0,0.0,0.0,0.0,-0.6961,-0.7439,-0.7641,-0.8119,0.0,0.0,0.0,0.0,0.0,0.0,0.0,0.0,0.0,0.0,0.0,0.0,0.0,0.0,0.0,0.0,0.0,0.0,0.0,0.0,0.0,0.0,0.0,0.0,0.0,0.0,0.0,0.0,0.0,0.0,0.0,0.0,0.0,0.0,0.0,0.0,0.0,0.0,0.0,0.0,0.0,0.0,0.0,0.0,0.0,0.0,0.0,0.0,0.0,0.0,0.0,0.0,0.0,0.0,0.0,0.0,0.0,0.0,0.0,0.0,0.0,0.0,0.0,0.0,0.0,0.0,0.0,0.0,0.0,0.0,0.0,0.0,0.0,0.0,0.0,0.0,0.0,0.0,0.0,0.0,0.0,0.0,0.0,0.0,0.0,0.0,0.0,0.0,0.0,0.0,0.0,0.0,0.0,0.0,0.0,0.0,0.0,0.0,0.0,0.0,0.0,0.0,0.0,0.0,0.0,0.0,0.0,0.0,0.0,0.0,-0.8204,-0.8797,-0.8928,-0.9124,-0.9366,-0.9588,0.0,0.0,0.0,0.0,0.0,0.0,0.0,0.0,0.0,0.0,0.0,0.0,0.0,0.0,0.0,0.0,0.0,0.0,0.0,0.0,0.0,0.0,0.0,0.0,0.0,0.0,0.0,0.0,0.0,0.0,0.0,0.0,0.0,0.0,0.0,0.0,0.0,0.0,0.0,0.0,0.0,0.0,0.0,0.0,0.0,0.0,0.0,0.0,0.0,0.0,0.0,0.0,0.0,0.0,0.0,0.0,0.0,0.0,0.0,0.0,0.0,0.0,0.0,0.0,0.0,0.0,0.0,0.0,0.0,0.0,0.0,0.0,0.0,0.0,0.0,0.0,0.0,0.0,0.0,0.0,0.0,0.0,0.0,0.0,0.0,0.0,0.0,0.0,0.0,0.0,0.0,0.0,0.0,0.0,0.0,0.0,0.0,0.0,0.0,0.0,0.0,0.0,0.0,0.0,0.0,0.0,0.0,0.0,-0.8567,-0.9551,-1.0299,-1.062,-1.0451,-1.0118,0.0,0.0,0.0,0.0,0.0,0.0,0.0,0.0,0.0,0.0,0.0,0.0,0.0,0.0,0.0,0.0,0.0,0.0,0.0,0.0,0.0,0.0,0.0,0.0,0.0,0.0,0.0,0.0,0.0,0.0,0.0,0.0,0.0,0.0,0.0,0.0,0.0,0.0,0.0,0.0,0.0,0.0,0.0,0.0,0.0,0.0,0.0,0.0,0.0,0.0,0.0,0.0,0.0,0.0,0.0,0.0,0.0,0.0,0.0,0.0,0.0,0.0,0.0,0.0,0.0,0.0,0.0,0.0,0.0,0.0,0.0,0.0,0.0,0.0,0.0,0.0,0.0,0.0,0.0,0.0,0.0,0.0,0.0,0.0,0.0,0.0,0.0,0.0,0.0,0.0,0.0,0.0,0.0,0.0,0.0,0.0,0.0,0.0,0.0,0.0,0.0,0.0,0.0,0.0,0.0,0.0,0.0,0.0,0.0,-1.0051,-1.068,-1.0956,-1.0805,-1.0864,-1.0661,0.0,0.0,0.0,0.0,0.0,0.0,0.0,0.0,0.0,0.0,0.0,0.0,0.0,0.0,0.0,0.0,0.0,0.0,0.0,0.0,0.0,0.0,0.0,0.0,0.0,0.0,0.0,0.0,0.0,0.0,0.0,0.0,0.0,0.0,0.0,0.0,0.0,0.0,0.0,0.0,0.0,0.0,0.0,0.0,0.0,0.0,0.0,0.0,0.0,0.0,0.0,0.0,0.0,0.0,0.0,0.0,0.0,0.0,0.0,0.0,0.0,0.0,0.0,0.0,0.0,0.0,0.0,0.0,0.0,0.0,0.0,0.0,0.0,0.0,0.0,0.0,0.0,0.0,0.0,0.0,0.0,0.0,0.0,0.0,0.0,0.0,0.0,0.0,0.0,0.0,0.0,0.0,0.0,0.0,0.0,0.0,0.0,0.0,0.0,0.0,0.0,0.0,0.0,0.0,0.0,0.0,0.0,0.0,0.0,-1.1726,0.0,-1.1938,-1.1997,-1.1821,-1.1516,0.0,0.0,0.0,0.0,0.0,0.0,0.0,0.0,0.0,0.0,0.0,0.0,0.0,0.0,0.0,0.0,0.0,0.0,0.0,0.0,0.0,0.0,0.0,0.0,0.0,0.0,0.0,0.0,0.0,0.0,0.0,0.0,0.0,0.0,0.0,0.0,0.0,0.0,0.0,0.0,0.0,0.0,0.0,0.0,0.0,0.0,0.0,0.0,0.0,0.0,0.0,0.0,0.0,0.0,0.0,0.0,0.0,0.0,0.0,0.0,0.0,0.0,0.0,0.0,0.0,0.0,0.0,0.0,0.0,0.0,0.0,0.0,0.0,0.0,0.0,0.0,0.0,0.0,0.0,0.0,0.0,0.0,0.0,0.0,0.0,0.0,0.0,0.0,0.0,0.0,0.0,0.0,0.0,0.0,0.0,0.0,0.0,0.0,0.0,0.0,0.0,0.0,0.0,0.0,0.0,0.0,0.0,0.0,-1.3403,-1.3661,-1.3114,-1.329,-1.4388,-1.3297,-1.2633,0.0,0.0,0.0,0.0,0.0,0.0,0.0,0.0,0.0,0.0,0.0,0.0,0.0,0.0,0.0,0.0,0.0,0.0,0.0,0.0,0.0,0.0,0.0,0.0,0.0,0.0,0.0,0.0,0.0,0.0,0.0,0.0,0.0,0.0,0.0,0.0,0.0,0.0,0.0,0.0,0.0,0.0,0.0,0.0,0.0,0.0,0.0,0.0,0.0,0.0,0.0,0.0,0.0,0.0,0.0,0.0,0.0,0.0,0.0,0.0,0.0,0.0,0.0,0.0,0.0,0.0,0.0,0.0,0.0,0.0,0.0,0.0,0.0,0.0,0.0,0.0,0.0,0.0,0.0,0.0,0.0,0.0,0.0,0.0,0.0,0.0,0.0,0.0,0.0,0.0,0.0,0.0,0.0,0.0,0.0,0.0,0.0,0.0,0.0,0.0,0.0,0.0,0.0,0.0,0.0,0.0,0.0,0.0,0.0,-1.5141,-1.4469,-1.3961,-1.3671,-1.3106,-1.2463,0.0,0.0,0.0,0.0,0.0,0.0,0.0,0.0,0.0,0.0,0.0,0.0,0.0,0.0,0.0,0.0,0.0,0.0,0.0,0.0,0.0,0.0,0.0,0.0,0.0,0.0,0.0,0.0,0.0,0.0,0.0,0.0,0.0,0.0,0.0,0.0,0.0,0.0,0.0,0.0,0.0,0.0,0.0,0.0,0.0,0.0,0.0,0.0,0.0,0.0,0.0,0.0,0.0,0.0,0.0,0.0,0.0,0.0,0.0,0.0,0.0,0.0,0.0,0.0,0.0,0.0,0.0,0.0,0.0,0.0,0.0,0.0,0.0,0.0,0.0,0.0,0.0,0.0,0.0,0.0,0.0,0.0,0.0,0.0,0.0,0.0,0.0,0.0,0.0,0.0,0.0,0.0,0.0,0.0,0.0,0.0,0.0,0.0,0.0,0.0,0.0,0.0,0.0,0.0,0.0,0.0,0.0,0.0,0.0,-1.6102,-1.4681,-1.3864,-1.3713,-1.3059,-1.2675,-1.2653,0.0,0.0,0.0,0.0,0.0,0.0,0.0,0.0,0.0,0.0,0.0,0.0,0.0,0.0,0.0,0.0,0.0,0.0,0.0,0.0,0.0,0.0,0.0,0.0,0.0,0.0,0.0,0.0,0.0,0.0,0.0,0.0,0.0,0.0,0.0,0.0,0.0,0.0,0.0,0.0,0.0,0.0,0.0,0.0,0.0,0.0,0.0,0.0,0.0,0.0,0.0,0.0,0.0,0.0,0.0,0.0,0.0,0.0,0.0,0.0,0.0,0.0,0.0,0.0,0.0,0.0,0.0,0.0,0.0,0.0,0.0,0.0,0.0,0.0,0.0,0.0,0.0,0.0,0.0,0.0,0.0,0.0,0.0,0.0,0.0,0.0,0.0,0.0,0.0,0.0,0.0,0.0,0.0,0.0,0.0,0.0,0.0,0.0,0.0,0.0,0.0,0.0,0.0,0.0,0.0,0.0,0.0,0.0,-1.6603,-1.4113,-1.332,-1.4291,-1.3279,-1.3263,0.0,0.0,0.0,0.0,0.0,0.0,0.0,0.0,0.0,0.0,0.0,0.0,0.0,0.0,0.0,0.0,0.0,0.0,0.0,0.0,0.0,0.0,0.0,0.0,0.0,0.0,0.0,0.0,0.0,0.0,0.0,0.0,0.0,0.0,0.0,0.0,0.0,0.0,0.0,0.0,0.0,0.0,0.0,0.0,0.0,0.0,0.0,0.0,0.0,0.0,0.0,0.0,0.0,0.0,0.0,0.0,0.0,0.0,0.0,0.0,0.0,0.0,0.0,0.0,0.0,0.0,0.0,0.0,0.0,0.0,0.0,0.0,0.0,0.0,0.0,0.0,0.0,0.0,0.0,0.0,0.0,0.0,0.0,0.0,0.0,0.0,0.0,0.0,0.0,0.0,0.0,0.0,0.0,0.0,0.0,0.0,0.0,0.0,0.0,0.0,0.0,0.0,0.0,0.0,0.0,0.0,0.0,0.0,0.0,-1.6342,-1.4803,-1.3925,-1.3697,-1.4287,-1.4176,0.0,0.0,0.0,0.0,0.0,0.0,0.0,0.0,0.0,0.0,0.0,0.0,0.0,0.0,0.0,0.0,0.0,0.0,0.0,0.0,0.0,0.0,0.0,0.0,0.0,0.0,0.0,0.0,0.0,0.0,0.0,0.0,0.0,0.0,0.0,0.0,0.0,0.0,0.0,0.0,0.0,0.0,0.0,0.0,0.0,0.0,0.0,0.0,0.0,0.0,0.0,0.0,0.0,0.0,0.0,0.0,0.0,0.0,0.0,0.0,0.0,0.0,0.0,0.0,0.0,0.0,0.0,0.0,0.0,0.0,0.0,0.0,0.0,0.0,0.0,0.0,0.0,0.0,0.0,0.0,0.0,0.0,0.0,0.0,0.0,0.0,0.0,0.0,0.0,0.0,0.0,0.0,0.0,0.0,0.0,0.0,0.0,0.0,0.0,0.0,0.0,0.0,0.0,0.0,0.0,0.0,0.0,0.0,-1.971,-1.8065,-1.7346,-1.6405,-1.5139,-1.4868,-1.4707,0.0,0.0,0.0,0.0,0.0,0.0,0.0,0.0,0.0,0.0,0.0,0.0,0.0,0.0,0.0,0.0,0.0,0.0,0.0,0.0,0.0,0.0,0.0,0.0,0.0,0.0,0.0,0.0,0.0,0.0,0.0,0.0,0.0,0.0,0.0,0.0,0.0,0.0,0.0,0.0,0.0,0.0,0.0,0.0,0.0,0.0,0.0,0.0,0.0,0.0,0.0,0.0,0.0,0.0,0.0,0.0,0.0,0.0,0.0,0.0,0.0,0.0,0.0,0.0,0.0,0.0,0.0,0.0,0.0,0.0,0.0,0.0,0.0,0.0,0.0,0.0,0.0,0.0,0.0,0.0,0.0,0.0,0.0,0.0,0.0,0.0,0.0,0.0,0.0,0.0,0.0,0.0,0.0,0.0,0.0,0.0,0.0,0.0,0.0,0.0,0.0,0.0,0.0,0.0,0.0,0.0,0.0,0.0,-2.1456,-2.0784,-2.0687,-1.9747,-1.7835,-1.5546,-1.5124,0.0,0.0,0.0,0.0,0.0,0.0,0.0,0.0,0.0,0.0,0.0,0.0,0.0,0.0,0.0,0.0,0.0,0.0,0.0,0.0,0.0,0.0,0.0,0.0,0.0,0.0,0.0,0.0,0.0,0.0,0.0,0.0,0.0,0.0,0.0,0.0,0.0,0.0,0.0,0.0,0.0,0.0,0.0,0.0,0.0,0.0,0.0,0.0,0.0,0.0,0.0,0.0,0.0,0.0,0.0,0.0,0.0,0.0,0.0,0.0,0.0,0.0,0.0,0.0,0.0,0.0,0.0,0.0,0.0,0.0,0.0,0.0,0.0,0.0,0.0,0.0,0.0,0.0,0.0,0.0,0.0,0.0,0.0,0.0,0.0,0.0,0.0,0.0,0.0,0.0,0.0,0.0,0.0,0.0,0.0,0.0,0.0,0.0,0.0,0.0,0.0,0.0,0.0,0.0,0.0,0.0,0.0,0.0,-2.2408,-2.237,-2.2334,-2.1488,-1.9812,-1.8126,-1.6699,0.0,0.0,0.0,0.0,0.0,0.0,0.0,0.0,0.0,0.0,0.0,0.0,0.0,0.0,0.0,0.0,0.0,0.0,0.0,0.0,0.0,0.0,0.0,0.0,0.0,0.0,0.0,0.0,0.0,0.0,0.0,0.0,0.0,0.0,0.0,0.0,0.0,0.0,0.0,0.0,0.0,0.0,0.0,0.0,0.0,0.0,0.0,0.0,-0.7632,0.0,0.0,0.0,0.0,0.0,0.0,0.0,0.0,0.0,0.0,0.0,0.0,0.0,0.0,0.0,0.0,0.0,0.0,0.0,0.0,0.0,0.0,0.0,0.0,0.0,0.0,0.0,0.0,0.0,0.0,0.0,0.0,0.0,0.0,0.0,0.0,0.0,0.0,0.0,0.0,0.0,0.0,0.0,0.0,0.0,0.0,0.0,0.0,0.0,0.0,0.0,0.0,0.0,0.0,0.0,0.0,0.0,0.0,0.0,-2.413,-2.4568,-2.4137,-2.3528,-2.2672,-2.1162,-1.9315,0.0,0.0,0.0,0.0,0.0,0.0,0.0,0.0,0.0,0.0,0.0,0.0,0.0,0.0,0.0,0.0,0.0,0.0,0.0,0.0,0.0,0.0,0.0,0.0,0.0,0.0,0.0,0.0,0.0,0.0,0.0,0.0,0.0,0.0,0.0,0.0,0.0,0.0,0.0,0.0,0.0,0.0,0.0,0.0,0.0,0.0,0.0,0.0,0.0,0.0,0.0,0.0,0.0,0.0,0.0,0.0,0.0,0.0,0.0,0.0,0.0,0.0,0.0,0.0,0.0,0.0,0.0,0.0,0.0,0.0,0.0,0.0,0.0,0.0,0.0,0.0,0.0,0.0,0.0,0.0,0.0,0.0,0.0,0.0,0.0,0.0,0.0,0.0,0.0,0.0,0.0,0.0,0.0,0.0,0.0,0.0,0.0,0.0,0.0,0.0,0.0,0.0,0.0,0.0,0.0,0.0,0.0,-2.5255,-2.5949,-2.6743,-2.6079,-2.5559,-2.5204,-2.3818,-2.2038,-1.9822,0.0,0.0,0.0,0.0,0.0,0.0,0.0,0.0,0.0,0.0,0.0,0.0,0.0,0.0,0.0,0.0,0.0,0.0,0.0,0.0,0.0,0.0,0.0,0.0,0.0,0.0,0.0,0.0,0.0,0.0,0.0,0.0,0.0,0.0,0.0,0.0,0.0,0.0,-0.6436,-0.6868,0.0,0.0,0.0,0.0,0.0,0.0,0.0,0.0,-0.9252,0.0,0.0,0.0,0.0,0.0,0.0,0.0,0.0,0.0,0.0,0.0,0.0,0.0,0.0,0.0,0.0,0.0,0.0,0.0,0.0,0.0,0.0,0.0,0.0,0.0,0.0,0.0,0.0,0.0,0.0,0.0,0.0,0.0,0.0,0.0,0.0,0.0,0.0,0.0,0.0,0.0,0.0,0.0,0.0,0.0,0.0,0.0,0.0,0.0,0.0,0.0,0.0,0.0,0.0,0.0,0.0,-2.5984,-2.6099,-2.6789,-2.814,-2.8029,-2.7062,-2.5273,-2.4308,-2.3264,-2.2124,0.0,0.0,0.0,0.0,0.0,0.0,0.0,0.0,0.0,0.0,0.0,0.0,0.0,0.0,0.0,0.0,0.0,0.0,0.0,0.0,0.0,0.0,0.0,0.0,0.0,0.0,0.0,0.0,0.0,0.0,0.0,0.0,0.0,0.0,0.0,0.0,0.0,0.0,0.0,-0.7616,-0.7702,0.0,0.0,0.0,0.0,0.0,0.0,0.0,0.0,-0.9604,0.0,0.0,0.0,0.0,0.0,0.0,0.0,0.0,0.0,0.0,0.0,0.0,0.0,0.0,0.0,0.0,0.0,0.0,0.0,0.0,0.0,0.0,0.0,0.0,0.0,0.0,0.0,0.0,0.0,0.0,0.0,0.0,0.0,0.0,0.0,0.0,0.0,0.0,0.0,0.0,0.0,0.0,0.0,0.0,0.0,0.0,0.0,0.0,0.0,0.0,0.0,0.0,0.0,0.0,0.0,-2.683,-2.7282,-2.8075,-2.9355,-2.8826,-2.7991,-2.6945,-2.5833,-2.4792,0.0,0.0,0.0,0.0,0.0,0.0,0.0,0.0,0.0,0.0,0.0,0.0,0.0,0.0,0.0,0.0,0.0,0.0,0.0,0.0,0.0,0.0,0.0,0.0,0.0,0.0,0.0,0.0,0.0,0.0,0.0,0.0,0.0,0.0,0.0,0.0,0.0,0.0,0.0,0.0,-0.7247,-0.7465,-0.895,0.0,0.0,0.0,0.0,0.0,0.0,-0.9404,-0.9601,0.0,0.0,0.0,0.0,0.0,0.0,0.0,0.0,0.0,0.0,0.0,0.0,0.0,0.0,0.0,0.0,0.0,0.0,0.0,0.0,0.0,0.0,0.0,0.0,0.0,0.0,0.0,0.0,0.0,0.0,0.0,0.0,0.0,0.0,0.0,0.0,0.0,0.0,0.0,0.0,0.0,0.0,0.0,0.0,0.0,0.0,0.0,0.0,0.0,0.0,0.0,0.0,0.0,0.0,0.0,-2.7601,-2.8408,-2.9343,-3.0323,-2.9374,-2.8717,-2.848,-2.6967,-2.5785,0.0,0.0,0.0,0.0,0.0,0.0,0.0,0.0,0.0,0.0,0.0,0.0,0.0,0.0,0.0,0.0,0.0,0.0,0.0,0.0,0.0,0.0,0.0,0.0,0.0,0.0,0.0,0.0,0.0,0.0,0.0,0.0,0.0,0.0,0.0,0.0,0.0,0.0,0.0,0.0,0.0,-0.7244,-0.9762,-0.8805,0.0,0.0,0.0,0.0,-1.021,-0.9653,0.0,0.0,0.0,0.0,0.0,0.0,0.0,0.0,0.0,0.0,0.0,0.0,0.0,0.0,0.0,0.0,0.0,0.0,0.0,0.0,0.0,0.0,0.0,0.0,0.0,0.0,0.0,0.0,0.0,0.0,0.0,0.0,0.0,0.0,0.0,0.0,0.0,0.0,0.0,0.0,0.0,0.0,0.0,0.0,0.0,0.0,0.0,0.0,0.0,0.0,0.0,0.0,0.0,0.0,0.0,0.0,-2.8093,-2.9268,-3.0197,-3.0842,-3.027,-2.945,-2.8512,-2.6388,-2.5182,0.0,0.0,0.0,0.0,0.0,0.0,0.0,0.0,0.0,0.0,0.0,0.0,0.0,0.0,0.0,0.0,0.0,0.0,0.0,0.0,0.0,0.0,0.0,0.0,0.0,0.0,0.0,0.0,0.0,0.0,0.0,0.0,0.0,0.0,0.0,0.0,0.0,0.0,0.0,0.0,0.0,-0.7859,-0.8788,-0.847,-0.8872,0.0,0.0,-0.7661,-0.9322,-0.961,0.0,0.0,0.0,0.0,0.0,0.0,0.0,0.0,0.0,0.0,0.0,0.0,0.0,0.0,0.0,0.0,0.0,0.0,0.0,0.0,0.0,0.0,0.0,0.0,0.0,0.0,0.0,0.0,0.0,0.0,0.0,0.0,0.0,0.0,0.0,0.0,0.0,0.0,0.0,0.0,0.0,0.0,0.0,0.0,0.0,0.0,0.0,0.0,0.0,0.0,0.0,0.0,0.0,0.0,0.0,-2.7937,-2.825,-3.005,-3.129,-3.1775,-3.0434,-2.9582,-2.9351,-2.6579,-2.5083,0.0,0.0,0.0,0.0,0.0,0.0,0.0,0.0,0.0,0.0,0.0,0.0,0.0,0.0,0.0,0.0,0.0,0.0,0.0,0.0,0.0,0.0,0.0,0.0,0.0,0.0,0.0,0.0,0.0,0.0,0.0,0.0,0.0,0.0,0.0,0.0,0.0,0.0,0.0,0.0,0.0,0.0,-1.0616,-0.9667,0.0,0.0,0.0,-0.72,-0.8919,0.0,0.0,0.0,0.0,0.0,0.0,0.0,0.0,0.0,0.0,0.0,0.0,0.0,0.0,0.0,0.0,0.0,0.0,0.0,0.0,0.0,0.0,0.0,0.0,0.0,0.0,0.0,0.0,0.0,0.0,0.0,0.0,0.0,0.0,0.0,0.0,0.0,0.0,0.0,0.0,0.0,0.0,0.0,0.0,0.0,0.0,0.0,0.0,0.0,0.0,0.0,0.0,0.0,0.0,0.0,0.0,0.0,-2.8618,-3.0935,-3.2264,-3.2433,-3.0839,-2.9997,-3.002,-2.7179,0.0,0.0,0.0,0.0,0.0,0.0,0.0,0.0,0.0,0.0,0.0,0.0,0.0,0.0,0.0,0.0,0.0,0.0,0.0,0.0,0.0,0.0,0.0,0.0,0.0,0.0,0.0,-1.35,0.0,0.0,0.0,0.0,0.0,0.0,0.0,0.0,0.0,0.0,0.0,0.0,0.0,0.0,-1.0098,-1.2553,-1.1206,-1.09,0.0,0.0,-0.732,-0.8585,-0.8994,-0.9616,0.0,0.0,0.0,0.0,0.0,0.0,0.0,0.0,0.0,0.0,0.0,0.0,0.0,0.0,0.0,0.0,0.0,0.0,0.0,0.0,0.0,0.0,0.0,0.0,0.0,0.0,0.0,0.0,0.0,0.0,0.0,0.0,0.0,0.0,0.0,0.0,0.0,0.0,0.0,0.0,0.0,0.0,0.0,0.0,0.0,0.0,0.0,0.0,0.0,0.0,0.0,0.0,0.0,0.0,0.0,-2.9665,-3.1913,-3.2905,-3.2501,-3.1812,-3.1059,-3.0302,-2.8251,-2.6775,0.0,0.0,0.0,0.0,0.0,0.0,0.0,0.0,0.0,0.0,0.0,0.0,0.0,0.0,0.0,0.0,0.0,0.0,0.0,0.0,0.0,0.0,0.0,0.0,0.0,0.0,0.0,0.0,0.0,0.0,0.0,0.0,0.0,0.0,0.0,0.0,0.0,0.0,0.0,0.0,0.0,-1.1411,-1.3687,-1.292,-1.2291,0.0,0.0,-0.8609,-0.8314,-1.0017,-1.145,-1.1632,0.0,0.0,0.0,0.0,0.0,0.0,0.0,0.0,0.0,0.0,0.0,0.0,0.0,0.0,0.0,0.0,0.0,0.0,0.0,0.0,0.0,0.0,0.0,0.0,0.0,0.0,0.0,0.0,0.0,0.0,0.0,0.0,0.0,0.0,0.0,0.0,0.0,0.0,0.0,0.0,0.0,0.0,0.0,0.0,0.0,0.0,0.0,0.0,0.0,0.0,0.0,0.0,0.0,-3.0394,-3.0112,-3.2041,-3.3124,-3.3105,-3.1631,-3.0751,-3.067,-2.8827,-2.7336,0.0,0.0,0.0,0.0,0.0,0.0,0.0,0.0,0.0,0.0,0.0,0.0,0.0,0.0,0.0,0.0,0.0,0.0,0.0,0.0,0.0,0.0,0.0,0.0,0.0,0.0,0.0,0.0,-1.1842,-1.1396,-1.1328,0.0,0.0,0.0,0.0,0.0,0.0,0.0,0.0,0.0,0.0,-1.3286,-1.3078,-1.2819,0.0,0.0,-1.2017,-1.0789,-1.1362,-1.1708,-1.2484,-1.414,-1.5155,0.0,0.0,0.0,0.0,0.0,0.0,0.0,0.0,0.0,0.0,0.0,0.0,0.0,0.0,0.0,0.0,0.0,0.0,0.0,0.0,0.0,0.0,0.0,0.0,0.0,0.0,0.0,0.0,0.0,0.0,0.0,0.0,0.0,0.0,0.0,0.0,0.0,0.0,0.0,0.0,0.0,0.0,0.0,0.0,0.0,0.0,0.0,0.0,0.0,0.0,0.0,0.0,-3.1137,-3.0634,-3.2529,-3.349,-3.3424,-3.1903,-3.1073,-3.0965,-2.9593,-2.8301,0.0,0.0,0.0,0.0,0.0,0.0,0.0,0.0,0.0,0.0,0.0,0.0,0.0,0.0,0.0,0.0,0.0,0.0,0.0,0.0,0.0,0.0,0.0,0.0,0.0,0.0,0.0,0.0,-1.2787,-1.2542,-1.2442,0.0,0.0,0.0,0.0,0.0,0.0,0.0,0.0,0.0,0.0,-1.5391,-1.4285,-1.3986,-1.3945,-1.424,-1.2706,-1.1852,-1.2701,-1.3278,-1.4353,-1.6356,0.0,0.0,0.0,0.0,0.0,0.0,0.0,0.0,0.0,0.0,0.0,0.0,0.0,0.0,0.0,0.0,0.0,0.0,0.0,0.0,0.0,0.0,0.0,0.0,0.0,0.0,0.0,0.0,0.0,0.0,0.0,0.0,0.0,0.0,0.0,0.0,0.0,0.0,0.0,0.0,0.0,0.0,0.0,0.0,0.0,0.0,0.0,0.0,0.0,0.0,0.0,0.0,0.0,-3.1205,-3.1397,-3.3511,-3.4107,-3.3091,-3.2965,-3.2355,-3.1244,-3.0584,-2.9869,-2.9014,0.0,0.0,0.0,0.0,0.0,0.0,0.0,0.0,0.0,0.0,0.0,0.0,0.0,0.0,0.0,0.0,0.0,0.0,0.0,0.0,0.0,0.0,0.0,0.0,0.0,0.0,-1.5846,-1.4532,-1.3719,0.0,0.0,0.0,0.0,0.0,0.0,0.0,0.0,0.0,0.0,-1.7609,-1.7661,-1.7871,-1.6858,-1.5448,-1.3856,-1.2451,-1.1489,-1.1601,-1.4686,-1.7419,0.0,0.0,0.0,0.0,0.0,0.0,0.0,0.0,0.0,0.0,0.0,0.0,0.0,0.0,0.0,0.0,0.0,0.0,0.0,0.0,0.0,0.0,0.0,0.0,0.0,0.0,0.0,0.0,-1.8764,0.0,0.0,0.0,0.0,0.0,0.0,0.0,0.0,0.0,0.0,0.0,-2.516,-2.4995,0.0,0.0,0.0,0.0,0.0,0.0,0.0,0.0,0.0,0.0,0.0,0.0,-3.1655,-3.1706,-3.3557,-3.437,-3.4,-3.3523,-3.2845,-3.1972,-3.1739,-3.0816,-2.9152,0.0,0.0,0.0,0.0,0.0,0.0,0.0,0.0,0.0,0.0,0.0,0.0,0.0,0.0,0.0,0.0,0.0,0.0,0.0,0.0,0.0,0.0,0.0,0.0,0.0,-1.7025,0.0,0.0,0.0,0.0,0.0,0.0,0.0,0.0,0.0,0.0,0.0,-1.7175,-1.6935,-1.8006,-1.8564,-1.7992,-1.7538,-1.6964,0.0,0.0,0.0,0.0,0.0,0.0,0.0,0.0,0.0,0.0,0.0,0.0,0.0,0.0,-3.1022,-2.868,-2.9148,-2.9961,-3.015,0.0,0.0,0.0,0.0,0.0,0.0,0.0,0.0,0.0,0.0,0.0,0.0,0.0,0.0,0.0,0.0,-2.1108,0.0,0.0,0.0,0.0,0.0,0.0,0.0,0.0,-2.516,-2.5438,-2.607,-2.5855,-2.5618,0.0,-2.5712,-2.5848,0.0,0.0,0.0,0.0,0.0,0.0,0.0,0.0,-3.1858,-3.1887,-3.3819,-3.4742,-3.4489,-3.4032,-3.344,-3.2716,-3.2682,-3.1907,-3.027,-2.8938,-2.7537,0.0,0.0,0.0,0.0,0.0,0.0,0.0,0.0,0.0,0.0,0.0,0.0,0.0,0.0,0.0,0.0,0.0,0.0,0.0,0.0,0.0,0.0,0.0,-1.8623,0.0,0.0,0.0,0.0,0.0,0.0,0.0,0.0,0.0,-1.5975,-1.7903,-1.9171,-1.8085,-1.9062,-1.9596,-1.8765,0.0,0.0,0.0,0.0,0.0,0.0,0.0,-2.1904,-2.406,-2.4009,-2.4536,-2.7147,-2.9879,-3.1898,-3.2431,0.0,0.0,-3.1514,-3.1861,-3.2708,-3.3007,-3.3119,-3.319,-3.3185,-3.3451,-3.365,0.0,0.0,0.0,0.0,0.0,0.0,0.0,0.0,-1.9332,-2.1007,0.0,-2.4097,0.0,0.0,0.0,0.0,0.0,0.0,0.0,0.0,-2.6146,-2.6238,-2.7128,-2.6606,-2.684,-2.7749,-2.6645,-2.636,-2.6862,-2.7775,0.0,0.0,0.0,0.0,0.0,0.0,-3.18,-3.2087,-3.4333,-3.5222,-3.4573,-3.4523,-3.4184,-3.3457,-3.3406,-3.3034,-3.2327,-3.1014,-2.9749,-2.8576,-2.6477,0.0,0.0,0.0,0.0,0.0,0.0,0.0,0.0,0.0,0.0,0.0,0.0,0.0,0.0,0.0,0.0,0.0,0.0,0.0,0.0,-2.2198,0.0,0.0,0.0,0.0,0.0,0.0,0.0,0.0,0.0,0.0,-1.8663,-1.9645,-2.0563,-2.071,0.0,0.0,0.0,0.0,-1.8354,-1.9064,-1.8495,-1.8424,-1.9555,-2.2369,-2.4774,-2.5835,0.0,0.0,-3.0104,-3.15,-3.2474,-3.1804,-3.4576,-3.6366,-3.4831,-3.4236,-3.4075,-3.4332,-3.4508,-3.4358,-3.4384,-3.5277,-3.5766,-1.5483,0.0,0.0,0.0,0.0,-1.9725,-1.9972,-1.9309,-2.0195,-2.1282,-2.2558,-2.267,0.0,0.0,0.0,0.0,0.0,0.0,-2.8233,-2.8241,-2.801,-2.8301,-2.9001,-2.8398,-2.7939,-2.7631,-2.7533,-2.7528,-2.7624,-2.8771,-2.869,-2.7437,0.0,0.0,0.0,0.0,-3.1605,-3.2475,-3.4068,-3.5021,-3.5278,-3.5284,-3.4945,-3.4201,-3.3677,-3.3305,-3.3085,-3.2699,-3.1651,-2.988,-2.9295,0.0,0.0,0.0,0.0,0.0,0.0,0.0,0.0,0.0,0.0,0.0,0.0,0.0,0.0,0.0,0.0,0.0,0.0,0.0,-2.023,-2.2967,-2.3907,0.0,0.0,0.0,0.0,0.0,0.0,0.0,0.0,0.0,-2.0607,-2.0724,-2.0811,0.0,0.0,-2.0997,-2.042,-2.0302,-2.0346,-2.0552,0.0,0.0,0.0,-2.3988,-2.5509,-2.7559,-2.9663,-3.1309,-3.2085,-3.3788,-3.5269,-3.5854,-3.7183,-3.8053,-3.7868,-3.8045,-3.8214,-3.8363,-3.8536,-3.8654,-3.87,-3.8907,-3.9044,-1.3742,-1.3928,-1.6839,-1.7892,-1.7654,-1.9048,-1.9525,-1.9365,-2.0147,-2.1608,-2.3551,-2.3735,-2.5108,-2.7426,-2.8155,0.0,0.0,0.0,-2.8873,-2.8525,-2.8525,-2.8722,-2.9108,-2.9161,-2.9088,-2.8949,-2.875,-2.8917,-2.9415,-2.9308,-2.9076,-2.8667,0.0,0.0,-2.9111,-3.0784,-3.1934,-3.2641,-3.4176,-3.5207,-3.5583,-3.5616,-3.538,-3.4962,-3.4523,-3.415,-3.3846,-3.3846,-3.2892,-3.0875,-3.0578,-2.944,0.0,0.0,0.0,0.0,0.0,0.0,0.0,0.0,0.0,0.0,0.0,-2.4204,-2.2474,0.0,0.0,0.0,-2.3957,-2.3145,-2.2563,-2.4844,0.0,0.0,0.0,0.0,0.0,0.0,0.0,-2.2523,-2.3365,-2.3683,-2.2655,-2.2058,-2.1395,-2.0438,-2.0813,-2.1043,-2.068,0.0,-2.1213,-2.1723,-2.2637,-2.3573,-2.4477,-2.5615,-2.7245,-2.9822,-3.1365,-3.2563,-3.3573,-3.5117,-3.6444,-3.7184,-3.7899,-3.8442,-3.8574,-3.9213,-3.9797,-4.0042,-4.0321,-4.0489,-4.0496,-4.0496,-4.0496,-1.2188,-1.2582,-1.6903,-1.8259,-1.7601,-1.7789,-1.8426,-1.9389,-1.9534,-2.1874,-2.5531,-2.6145,-2.7465,-2.9341,-2.9724,0.0,0.0,-2.9979,-2.9432,-2.8362,-2.8362,-2.8283,-2.8283,-2.9114,-3.0075,-3.1068,-3.0037,-3.0268,-3.1445,-2.9605,-2.9531,-3.1198,-3.0849,-3.0359,-2.9901,-3.1495,-3.2442,-3.2641,-3.4421,-3.5442,-3.56,-3.5616,-3.5616,-3.56,-3.5616,-3.5261,-3.4607,-3.4573,-3.3695,-3.1838,-3.0977,-2.9976,-2.8693,0.0,0.0,0.0,0.0,0.0,0.0,0.0,0.0,0.0,0.0,0.0,0.0,0.0,0.0,0.0,-2.7716,0.0,-2.793,-2.7172,0.0,0.0,0.0,-2.3978,-2.3774,-2.439,-2.4717,-2.4297,0.0,0.0,0.0,0.0,-2.221,-2.1148,-2.1032,-2.1081,-2.1135,-2.1163,-2.1474,-2.2634,-2.3213,-2.3926,-2.5042,-2.7087,-2.941,-3.1753,-3.3093,-3.3629,-3.4316,-3.5458,-3.6226,-3.6434,-3.7234,-3.7912,-3.7917,-3.8603,-3.9289,-3.9891,-4.025,-4.0465,-4.0438,-4.0473,-4.0496,-1.4854,-1.4972,-1.6065,-1.5918,-1.5005,-1.6934,-1.788,-1.8272,-2.0079,-2.1458,-2.2481,-2.4397,-2.717,-3.0584,-3.0793,-3.1617,-3.2928,-3.2256,-3.141,-3.0467,-3.048,-3.0088,-2.9443,-2.9613,-2.9845,-3.0101,-2.9857,-2.9923,-3.0263,-2.9964,-3.0208,-3.0975,-3.1092,-3.1213,-3.1326,-3.0718,-3.1181,-3.284,-3.3244,-3.4163,-3.5566,-3.5616,-3.5616,-3.5616,-3.5616,-3.5515,-3.5346,-3.5329,-3.4879,-3.3898,-3.3186,-3.2409,-3.1508,-2.9377,0.0,0.0,0.0,0.0,0.0,0.0,0.0,0.0,0.0,-2.5509,-2.3512,0.0,-2.5917,0.0,-2.8616,-2.8985,-2.706,-2.7297,0.0,0.0,-2.5229,-2.4682,-2.5744,-2.6074,-2.6074,-2.5604,-2.5643,-2.5428,-2.465,-2.3887,-2.3287,-2.2916,-2.3053,-2.2997,-2.2549,-2.2794,-2.3148,-2.3559,-2.4183,-2.4933,-2.5993,-2.8191,-3.0294,-3.1564,-3.2367,-3.3066,-3.3735,-3.4841,-3.577,-3.6329,-3.7231,-3.7825,-3.7896,-3.8551,-3.9099,-3.9339,-3.9789,-4.0186,-4.0195,-4.0356,-4.0489,-1.6099,-1.6219,-1.6219,-1.5768,-1.5248,-1.7004,-1.8002,-1.8642,-2.0486,-2.1861,-2.295,-2.4777,-2.7117,-2.9643,-2.9795,-3.0642,-3.2046,-3.1586,-3.1095,-3.0595,-3.0595,-3.0305,-2.983,-3.0254,-3.0419,-3.0419,-3.0419,-3.0633,-3.1007,-3.0803,-3.101,-3.165,-3.1949,-3.2266,-3.2499,-3.13,-3.122,-3.2269,-3.2932,-3.4001,-3.5532,-3.5616,-3.5362,-3.481,-3.4861,-3.4643,-3.4062,-3.4091,-3.3775,-3.3022,-3.2628,-3.2114,-3.1402,-2.9749,-2.8555,0.0,0.0,0.0,0.0,0.0,0.0,0.0,0.0,0.0,0.0,0.0,-2.7018,0.0,-2.9073,0.0,-2.7361,-2.7915,-2.8259,-2.7818,-2.697,-2.6609,-2.7041,-2.7118,-2.6903,-2.6314,-2.5996,-2.5732,-2.539,-2.4734,-2.4441,-2.4756,-2.4591,-2.4087,-2.3368,-2.3427,-2.3768,-2.4318,-2.5063,-2.6211,-2.7768,-2.9292,-3.0689,-3.1794,-3.2571,-3.3261,-3.3937,-3.4844,-3.5615,-3.6032,-3.6904,-3.7578,-3.7632,-3.8323,-3.8909,-3.899,-3.9308,-3.9668,-3.9859,-4.0091,-4.0302,-1.6473,-1.67,-1.6707,-1.6707,-1.6767,-1.7486,-1.8404,-1.9491,-2.0618,-2.2517,-2.4872,-2.6016,-2.7157,-2.8271,-2.843,-2.9096,-3.0152,-3.0139,-3.0113,-2.9972,-2.996,-2.9895,-2.983,-3.062,-3.1007,-3.1007,-3.1007,-3.1439,-3.2213,-3.1439,-3.1479,-3.2282,-3.2588,-3.2826,-3.3004,-3.2232,-3.1779,-3.1712,-3.3089,-3.4308,-3.5345,-3.522,-3.464,-3.3657,-3.3714,-3.3285,-3.2197,-3.2248,-3.1951,-3.1221,-3.1089,-3.0867,-3.0502,-2.9518,-2.8852,0.0,-2.8029,0.0,0.0,0.0,0.0,0.0,0.0,0.0,0.0,-2.8693,-2.8501,-2.7865,-2.9311,-2.9787,-2.855,-2.8945,-2.9271,-2.9245,-2.9062,-2.8608,-2.7807,-2.7617,-2.7284,-2.6589,-2.5734,-2.5558,-2.6264,-2.5616,-2.537,-2.6193,-2.5466,-2.4624,-2.4064,-2.372,-2.3847,-2.4862,-2.5857,-2.728,-2.9275,-3.0103,-3.0763,-3.213,-3.2922,-3.3684,-3.4301,-3.4965,-3.5515,-3.5783,-3.6583,-3.721,-3.7284,-3.8066,-3.8673,-3.8719,-3.8966,-3.9257,-3.9564,-3.9901,-4.0101,-1.6653,-1.6707,-1.6707,-1.6707,-1.6794,-1.7893,-1.8566,-1.8924,-1.9768,-2.1915,-2.483,-2.6016,-2.7504,-2.9271,-3.0215,-3.1154,-3.2083,-3.2083,-3.1646,-3.0932,-3.0932,-3.052,-2.983,-2.996,-3.0075,-3.0075,-3.0075,-3.0139,-3.0317,-3.0139,-3.0322,-3.0813,-3.089,-3.0998,0.0,0.0,0.0,0.0,-3.3499,-3.3953,-3.411,-3.3292,-3.2717,-3.2437,-3.2599,0.0,-3.2282,-3.2299,-3.2196,-3.1987,-3.1523,0.0,0.0,0.0,0.0,0.0,0.0,0.0,0.0,0.0,0.0,0.0,-2.8428,-2.8319,-2.817,-2.867,-2.8971,-2.8934,-2.9739,-3.0464,-3.0812,-3.0362,-3.0075,-3.0029,-2.8816,-2.7895,-2.7677,-2.7142,-2.6645,-2.6521,-2.6314,-2.628,-2.6399,-2.5616,-2.5587,-2.6677,-2.5513,-2.4912,-2.5707,-2.4451,-2.3925,-2.4886,-2.644,-2.7822,-2.9066,-2.9901,-3.073,-3.1566,-3.2327,-3.3029,-3.3726,-3.4358,-3.5203,-3.6015,-3.6783,-3.7323,-3.7685,-3.8265,-3.8707,-3.8707,-3.8923,-3.9199,-3.9541,-3.988,-4.0158,-1.7007,0.0,-1.7141,-1.7134,0.0,-1.8484,-1.9479,-2.0182,-2.0143,-2.1439,-2.3691,-2.49,-2.6204,-2.7544,-2.8663,-2.9608,-3.0391,-3.093,-3.0945,-3.052,-3.0482,-3.0254,-2.9779,-2.9779,-2.9779,-2.9779,-2.9779,-2.9779,-2.9779,-2.9779,-2.9909,-3.0105,-3.0552,-3.0808,-3.0932,-3.2481,-3.3308,-3.3334,-3.4045,-3.4474,-3.4673,-3.455,-3.3987,-3.3014,0.0,0.0,0.0,0.0,0.0,0.0,0.0,0.0,0.0,0.0,0.0,-3.0798,-2.9858,-2.9248,-2.9333,-2.9319,-2.9561,-3.004,-3.009,-2.9822,-2.9169,-2.9838,-3.0308,-3.0335,-3.0322,-3.0604,-3.1348,-3.0389,-2.9827,-3.0163,-2.9129,-2.8182,-2.7736,-2.7351,-2.7054,-2.6921,-2.6914,-2.6814,-2.6528,-2.66,-2.6311,-2.6135,-2.5735,-2.5249,-2.4931,-2.4502,-2.4645,-2.6106,-2.7542,-2.902,-3.0243,-3.0877,-3.1353,-3.1946,-3.2593,-3.3131,-3.3543,-3.4161,-3.4978,-3.613,-3.6843,-3.7341,-3.7807,-3.8334,-3.8732,-3.8869,-3.9013,-3.9295,-3.9731,-3.9992,-4.0129,-1.7414,-1.7582,-1.7589,-1.7589,-1.7687,-1.8819,-2.0025,-2.1348,0.0,0.0,0.0,-2.4117,-2.5017,-2.5593,-2.6724,-2.752,-2.8086,-2.8922,-2.9305,-2.9305,-2.9246,-2.9209,-2.9209,-2.9221,-2.9209,-2.9209,-2.9209,-2.9326,-2.9495,-2.9495,-2.9611,-2.9856,-3.0595,-3.1119,-3.1559,-3.3631,-3.45,-3.4075,-3.4726,-3.5221,-3.5482,-3.6064,-3.5574,-3.3934,-3.4027,-3.3528,-3.2371,-3.2423,-3.2354,-3.2056,-3.195,-3.1711,-3.1343,-3.1063,-3.0733,-3.034,-3.0109,-3.0196,-3.0664,-3.0801,-3.1077,-3.1574,-3.1605,-3.1299,-3.0586,-3.1007,-3.1351,-3.1496,-3.0614,-3.0433,-3.1309,-3.0045,-2.9558,-3.0479,-2.9701,-2.8817,-2.8352,-2.7906,-2.7644,-2.7508,-2.7444,-2.7294,-2.6891,-2.7126,-2.7185,-2.5947,-2.5893,-2.5773,-2.4353,-2.4522,-2.5371,-2.698,-2.8359,-2.9906,-3.1349,-3.1954,-3.2239,-3.2616,-3.3119,-3.3531,-3.381,-3.4318,-3.5226,-3.6434,-3.7128,-3.7802,-3.8257,-3.8844,-3.9197,-3.9496,-3.9559,-3.9751,-4.0349,-4.0539,-4.052,-1.7549,-1.7589,-1.7589,-1.7589,-1.7635,-1.7786,-1.8655,-2.0156,-2.3098,-2.4334,-2.4173,-2.5346,-2.5903,-2.6065,-2.7119,-2.7685,-2.7757,-2.7575,-2.7466,0.0,-2.7117,-2.6976,-2.6976,-2.6976,-2.6976,-2.6976,-2.6976,-2.7452,-2.8255,-2.8335,-2.8806,-2.9702,-2.9934,-3.0809,-3.2321,-3.2792,-3.3695,-3.5209,-3.5642,-3.5583,-3.5011,-3.4833,-3.4596,-3.4279,-3.4453,-3.4108,-3.3248,-3.3266,-3.2915,-3.2214,-3.1686,-3.1769,-3.2538,-3.156,-3.1281,-3.2081,-3.1591,-3.127,-3.1354,-3.188,-3.2139,-3.2017,-3.2009,-3.1829,-3.1346,-3.0808,-3.0748,-3.1351,-3.0129,-2.9729,-3.0881,-3.0227,-3.0132,-3.14,-3.0335,-2.9568,-3.0092,-2.8952,-2.8086,-2.8068,-2.7996,-2.7972,-2.7706,-2.6621,-2.6571,-2.7416,-2.6125,-2.4946,-2.5795,-2.5411,-2.5504,-2.6653,-2.8274,-2.9717,-3.1003,-3.1654,-3.2408,-3.3257,-3.3441,-3.3757,-3.4208,-3.4927,-3.5866,-3.7097,-3.8165,-3.9112,-3.9679,-4.0338,-4.067,-4.0965,-4.1078,-4.1319,-4.1924,-4.2066,-4.1743,-1.7589,-1.7589,-1.7589,-1.7589,-1.7635,-1.8349,-1.9878,-2.1904,-2.3592,-2.4216,-2.4191,-2.5344,-2.5778,-2.5685,-2.6686,-2.7022,-2.683,-2.7249,-2.7409,-2.7398,-2.7218,-2.7026,-2.6844,-2.6822,-2.6729,-2.6494,-2.6483,-2.676,-2.7238,-2.7815,-2.8374,-2.8897,-2.9495,-3.0495,-3.1742,-3.1852,-3.2784,-3.4662,-3.6182,-3.6619,-3.5886,-3.6538,-3.6693,-3.6272,-3.635,-3.622,-3.5851,-3.5834,-3.5459,-3.4663,-3.4392,-3.4107,-3.3758,-3.3182,-3.269,-3.2378,-3.2497,-3.2377,-3.1832,-3.211,-3.2232,-3.208,-3.1608,-3.1218,-3.1005,-3.0662,-3.063,-3.0916,-2.9917,-2.965,-3.0666,-2.9659,-2.9382,-3.05,-2.9891,-2.9661,-2.9925,-2.9451,-2.9006,-2.923,-2.8869,-2.8425,-2.8154,-2.7806,-2.7348,-2.7609,-2.5664,-2.5474,-2.7763,-2.6852,-2.6177,-2.7281,-2.8661,-3.0147,-3.1486,-3.2089,-3.2806,-3.3864,-3.4069,-3.4167,-3.4519,-3.5184,-3.6145,-3.7257,-3.8365,-3.9253,-4.0017,-4.0384,-4.0895,-4.1717,-4.1707,-4.1944,-4.2569,-4.269,-4.2364,-1.7589,-1.7589,-1.7589,-1.7589,-1.7733,-1.9013,-2.0845,-2.2726,-2.3076,-2.3434,-2.384,-2.5118,-2.5537,-2.533,-2.6121,-2.6311,-2.6129,-2.6777,-2.7114,-2.7104,-2.6995,-2.6801,-2.6531,-2.6498,-2.6302,-2.5942,-2.5888,-2.5959,-2.6193,-2.6942,-2.7643,-2.8176,-2.9236,-3.0292,-3.1167,-3.1204,-3.2033,-3.3711,-3.6012,-3.7038,-3.675,-3.8021,-3.843,-3.7928,-3.7878,-3.7795,-3.7644,-3.7644,-3.7261,-3.6525,-3.6293,-3.5673,-3.4583,-3.4145,-3.338,-3.2318,-3.2788,-3.305,-3.2678,-3.218,-3.2041,-3.2184,-3.1314,-3.0628,-3.0433,-3.0433,-3.0471,-3.0481,-2.9664,-2.9548,-3.0432,-2.9308,-2.8773,-2.9914,-2.9741,-2.9712,-2.986,-2.9718,-2.9745,-3.0092,-2.9553,-2.8933,-2.8736,-2.9028,-2.8557,-2.6796,-2.588,-2.6737,-2.8661,-2.7839,-2.7412,-2.8347,-2.9406,-3.0706,-3.2285,-3.2799,-3.3414,-3.455,-3.4743,-3.4738,-3.494,-3.5532,-3.6421,-3.7501,-3.8512,-3.9456,-4.0224,-4.0686,-4.1263,-4.2166,-4.2292,-4.2371,-4.3122,-4.3213,-4.2859,-1.7589,-1.7589,-1.7589,-1.7589,-1.774,-1.9013,-1.9782,-2.0187,-2.1296,-2.2567,-2.3692,-2.5118,-2.5616,-2.5684,-2.5751,-2.5799,-2.572,-2.5461,-2.5414,-2.5364,-2.4904,-2.4697,-2.4703,-2.4657,-2.4439,-2.4063,-2.4058,-2.4412,-2.4882,-2.5126,-2.6138,-2.8004,-2.9236,-3.0241,-3.1068,-3.118,-3.1706,-3.2735,-3.4519,-3.581,-3.6628,-3.7478,-3.7894,-3.7817,-3.7814,-3.748,-3.6936,-3.6821,-3.6477,-3.5735,-3.5131,-3.4701,-3.4411,-3.315,-3.2283,-3.2152,-3.2169,-3.2786,-3.3976,-3.2611,-3.1903,-3.2407,-3.16,-3.0723,-2.9999,-2.9885,-3.0099,-3.0253,-2.9151,-2.9304,-3.1079,-2.9858,-2.9685,-3.1415,-3.0671,-3.0088,-3.0697,-3.029,-2.982,-2.9845,-2.9795,-2.9664,-2.9392,-2.8806,-2.7896,-2.6883,-2.6994,-2.747,-2.8176,-2.8016,-2.8119,-2.9341,-3.0444,-3.1402,-3.2451,-3.3345,-3.4119,-3.5097,-3.537,-3.5332,-3.5532,-3.6456,-3.768,-3.7736,-3.927,-4.0406,-4.0906,-4.1644,-4.2429,-4.2791,-4.31,-4.3412,-4.3845,-4.4038,-4.3731,-1.7589,-1.7589,-1.7589,-1.7589,-1.7687,-1.8199,-1.8864,-1.9627,-2.0179,-2.1245,-2.2458,-2.3076,-2.4196,-2.5684,-2.5684,-2.5684,-2.5664,-2.5499,-2.5469,-2.5449,-2.5226,-2.4622,-2.3644,-2.3577,-2.2977,-2.1948,-2.2593,-2.2988,-2.321,-2.4227,-2.59,-2.7924,-2.8597,-2.9328,-3.0305,-3.0381,-3.0846,-3.1779,-3.2467,-3.3571,-3.51,-3.6872,-3.7822,-3.7822,-3.7822,-3.7665,-3.7393,-3.7345,-3.6972,-3.6254,-3.5898,-3.5522,-3.5092,-3.3921,-3.2968,-3.2461,-3.1875,-3.2353,-3.4072,-3.2444,-3.15,-3.1729,-3.0908,-3.0216,-2.9856,-2.9779,-2.9885,-2.999,-2.9477,-2.9567,-3.0344,-2.9871,-2.9847,-3.0732,-3.0696,-3.0758,-3.1106,-3.0871,-3.062,-3.0582,-3.0152,-2.9495,-2.8949,-2.8386,-2.7924,-2.7441,-2.74,-2.7371,-2.7884,-2.7562,-2.7959,-2.9548,-3.102,-3.2033,-3.2629,-3.338,-3.4361,-3.5166,-3.5489,-3.5489,-3.5701,-3.6784,-3.7777,-3.7793,-3.9265,-4.0463,-4.081,-4.156,-4.2341,-4.2923,-4.3766,-4.4095,-4.3772,-4.3986,-4.3729,-1.7589,-1.7589,-1.7589,-1.7589,-1.7589,-1.7589,-1.8146,-1.8961,-1.9065,-1.9826,-2.1041,-2.1143,-2.2416,-2.4452,-2.4971,-2.5167,-2.5118,-2.5167,-2.5177,-2.5167,-2.5177,-2.444,-2.3316,-2.3599,-2.2607,-2.1067,-2.1939,-2.2371,-2.228,-2.4161,-2.6082,-2.7591,-2.7813,-2.8331,-2.9209,-2.9091,-2.9394,-3.0291,-3.058,-3.1569,-3.3268,-3.5284,-3.6629,-3.707,-3.6888,-3.6736,-3.6736,-3.6491,-3.609,-3.5522,-3.5505,-3.526,-3.4725,-3.3993,-3.331,-3.2607,-3.1476,-3.1646,-3.3449,-3.1865,-3.0932,-3.1068,-3.0355,-2.9779,-2.9779,-2.9779,-2.9624,-2.9316,-2.9624,-2.9831,-3.0177,-2.9972,-2.9895,-3.0177,-3.0671,-3.0833,-3.0809,-3.0833,-3.0758,-3.0733,-3.0139,-2.9534,-2.874,-2.8347,-2.7964,-2.7522,-2.6964,-2.673,-2.7452,-2.729,-2.7706,-2.9534,-3.1365,-3.2451,-3.2664,-3.3754,-3.4658,-3.5133,-3.5489,-3.5489,-3.5554,-3.6707,-3.7456,-3.7381,-3.8849,-3.9747,-4.0086,-4.0793,-4.1908,-4.283,-4.3578,-4.3967,-4.3612,-4.374,-4.3742,-1.7589,-1.7589,-1.7589,-1.7589,-1.7589,-1.7589,-1.7635,-1.7845,-1.7786,-1.8447,-1.9627,-1.9679,-2.0487,-2.2005,-2.3126,-2.3741,-2.3782,-2.38,-2.3791,-2.3791,-2.3791,-2.3732,-2.3764,-2.4884,-2.3801,-2.0908,-2.1933,-2.2574,-2.2492,-2.4735,-2.6429,-2.7093,-2.7155,-2.7527,-2.813,-2.7493,-2.725,-2.849,-2.9282,-3.0176,-3.1288,-3.2365,-3.3848,-3.5204,-3.4695,-3.4302,-3.4168,-3.3352,-3.2898,-3.2827,-3.2933,-3.2876,-3.2784,-3.27,-3.2629,-3.2393,-3.0884,-3.0709,-3.2141,-3.0983,-3.0254,-3.0871,-3.0317,-2.9753,-2.9624,-2.9624,-2.9197,-2.8255,-2.9,-2.9857,-3.0494,-3.0088,-3.005,-3.0632,-3.0228,-2.9921,-2.9856,-2.9703,-2.9818,-2.9767,-2.9573,-2.9417,-2.9507,-2.8779,-2.7735,-2.7005,-2.6565,-2.6678,-2.6924,-2.7481,-2.8398,-2.969,-3.1267,-3.2593,-3.277,-3.4007,-3.5133,-3.5472,-3.5489,-3.5489,-3.575,-3.607,-3.6446,-3.7041,-3.8282,-3.9073,-3.9245,-4.007,-4.1371,-4.2269,-4.2753,-4.3014,-4.3444,-4.3479,-4.3513,-1.7589,-1.7589,-1.7589,-1.7589,-1.7589,-1.7589,-1.7589,-1.7589,-1.7589,-1.7838,-1.8251,-1.8297,-1.9065,-2.0385,-2.0845,-2.1558,-2.2357,-2.2416,-2.2416,-2.2408,-2.2416,-2.1954,-2.1151,-2.1608,-2.0841,-1.9317,-2.0198,-2.1528,-2.2736,-2.3476,-2.4689,-2.6239,-2.6462,-2.7311,-2.8602,-2.8351,-2.8228,-2.8629,-2.932,-2.9525,-2.9322,-3.0803,-3.2042,-3.2567,-3.2954,-3.3101,-3.3087,-3.277,-3.2593,-3.2593,-3.2593,-3.2593,-3.2522,-3.2019,-3.1706,-3.1596,-3.0495,-3.0355,-3.1328,-3.052,-2.9934,-3.0216,-3.0037,-2.9495,-2.8897,-2.8688,-2.8267,-2.7452,-2.7424,-2.7884,-2.8323,-2.9094,-2.9625,-2.924,-2.8927,-2.8727,-2.8557,-2.8119,-2.7678,-2.7678,-2.7718,-2.7919,-2.8648,-2.8347,-2.7695,-2.6801,-2.7087,-2.7412,-2.7574,-2.7884,-2.8557,-2.9741,-3.1341,-3.2593,-3.2593,-3.4225,-3.5457,-3.5489,-3.5489,-3.5489,-3.5668,-3.6086,-3.6492,-3.7161,-3.8187,-3.8974,-3.9402,-4.0178,-4.1353,-4.2202,-4.2616,-4.292,-4.3374,-4.3462,-4.3479,-1.7589,-1.7589,-1.7589,-1.7589,-1.7589,-1.7589,-1.7589,-1.7589,-1.7589,-1.7589,-1.7589,-1.7589,-1.8094,-1.8864,-1.8961,-1.942,-2.0377,-2.0794,-2.099,-2.1049,-2.1049,-2.0538,-1.9826,-2.0084,-1.9324,-1.8192,-1.9465,-2.1166,-2.2542,-2.3169,-2.4446,-2.6208,-2.597,-2.6634,-2.8068,-2.7753,-2.7541,-2.7992,-2.8404,-2.8402,-2.8366,-2.9633,-3.0483,-3.073,-3.1325,-3.1865,-3.2105,-3.1865,-3.1696,-3.1683,-3.1696,-3.1829,-3.2019,-3.1267,-3.0908,-3.1068,-3.0317,-3.0075,-3.0558,-3.0139,-2.9792,-2.9792,-2.9779,-2.9443,-2.8688,-2.8335,-2.7602,-2.6801,-2.6472,-2.6348,-2.5975,-2.7383,-2.841,-2.7735,-2.7562,-2.7723,-2.8016,-2.7481,-2.7383,-2.7718,-2.7879,-2.8079,-2.8398,-2.8307,-2.7804,-2.7075,-2.7683,-2.8084,-2.8084,-2.8466,-2.8858,-2.9754,-3.1044,-3.2105,-3.2593,-3.3891,-3.5166,-3.5344,-3.5489,-3.5489,-3.5572,-3.6023,-3.6585,-3.7312,-3.8119,-3.8975,-3.9754,-4.048,-4.1331,-4.2221,-4.2635,-4.2883,-4.3214,-4.3479,-4.3391,-1.7589,-1.7589,-1.7589,-1.7589,-1.7589,-1.7589,-1.7589,-1.7589,-1.7589,-1.7589,-1.7589,-1.7589,-1.7687,-1.774,-1.7838,-1.7793,-1.8146,-1.9117,-1.9576,-1.9576,-1.9576,-1.9576,-1.9472,-2.0479,-1.9819,-1.7786,-2.0223,-2.1491,-2.1904,-2.387,-2.5477,-2.6263,-2.5671,-2.5771,-2.6256,-2.5669,-2.531,-2.6207,-2.6589,-2.7139,-2.8497,-2.888,-2.9298,-2.9683,-3.0008,-3.0509,-3.1196,-3.0394,-3.0037,-2.996,-2.996,-3.0279,-3.0844,-3.0343,-3.0216,-3.0707,-3.0241,-2.9869,-2.9856,-2.983,-2.9779,-2.9753,-2.974,-2.9495,-2.9028,-2.8307,-2.7319,-2.6307,-2.6058,-2.5504,-2.4049,-2.5221,-2.6483,-2.6472,-2.6461,-2.683,-2.7562,-2.7964,-2.8426,-2.9028,-2.917,-2.9663,-2.9495,-2.8897,-2.8227,-2.8016,-2.8136,-2.8347,-2.8426,-2.9067,-2.9624,-2.9921,-3.0771,-3.1706,-3.2522,-3.3415,-3.4409,-3.5213,-3.5392,-3.5489,-3.5489,-3.5799,-3.6352,-3.7103,-3.8294,-3.9148,-4.0059,-4.0741,-4.1115,-4.1874,-4.2302,-4.2674,-4.2846,-4.2996,-4.3142,-1.7589,-1.7589,-1.7589,-1.7589,-1.7589,-1.7589,-1.7589,-1.7589,-1.7589,-1.7589,-1.7589,-1.7589,-1.7589,-1.7589,-1.7589,-1.7589,-1.7635,-1.8042,-1.8192,-1.8244,-1.8251,-1.8251,-1.8349,-1.8708,-1.8447,-1.7838,-1.8394,-1.9922,-2.155,-2.2617,-2.3938,-2.5518,-2.5662,-2.6109,-2.692,-2.6393,-2.6264,-2.6634,-2.7002,-2.6877,-2.6184,-2.8154,-2.9081,-2.8701,-3.0037,-3.092,-3.0763,-3.0136,-2.9792,-2.9753,-2.9779,-2.9586,-2.9264,-2.9535,-2.9535,-2.9162,-2.9625,-2.9779,-2.9779,-2.9792,-2.9792,-2.9624,-2.9106,-2.8279,-2.7545,-2.6543,-2.5452,-2.4435,-2.4178,-2.3724,-2.343,-2.3637,-2.451,-2.5252,-2.5336,-2.5504,-2.6036,-2.6025,-2.6367,-2.7383,-2.8159,-2.8557,-2.8806,-2.8688,-2.8897,-2.8386,-2.8727,-2.9197,-2.9314,-2.9495,-2.9792,-2.9856,-3.0696,-3.1499,-3.2451,-3.3276,-3.4192,-3.5067,-3.5424,-3.5668,-3.5636,-3.5587,-3.6148,-3.7145,-3.833,-3.9347,-4.0254,-4.0833,-4.1193,-4.1512,-4.1976,-4.2183,-4.2304,-4.2444,-4.26,-1.7589,-1.7589,-1.7589,-1.7589,-1.7589,-1.7589,-1.7589,-1.7589,-1.7589,-1.7589,-1.7589,-1.7589,-1.7589,-1.7589,-1.7589,-1.7589,-1.7589,-1.7589,-1.7589,-1.7589,-1.7589,-1.7589,-1.7589,-1.7589,-1.7589,-1.774,-1.8094,-1.9213,-2.0888,-2.2005,-2.3335,-2.4756,-2.543,-2.6042,-2.6829,-2.6527,-2.6364,-2.651,-2.6727,-2.6385,-2.5941,-2.7401,-2.8326,-2.8081,-2.9249,-2.9803,-2.952,-2.9208,-2.906,-2.9074,-2.8831,-2.8371,-2.8136,-2.845,-2.8581,-2.8858,-2.8976,-2.9326,-2.9702,-2.9779,-2.9585,-2.9157,-2.8518,-2.7654,-2.6595,-2.5473,-2.4414,-2.3887,-2.343,-2.3101,-2.3091,-2.3135,-2.3464,-2.4049,-2.4168,-2.4542,-2.5126,-2.5775,-2.6614,-2.7758,-2.849,-2.8648,-2.8949,-2.9197,-2.9534,-2.8988,-2.9326,-2.9779,-2.9779,-2.974,-2.9779,-2.9856,-3.0203,-3.1156,-3.2379,-3.3241,-3.4007,-3.4773,-3.5457,-3.5782,-3.5975,-3.5668,-3.5878,-3.7397,-3.8707,-3.9489,-4.036,-4.07,-4.1064,-4.138,-4.1643,-4.1877,-4.2024,-4.1979,-4.2083,-1.7589,-1.7589,-1.7589,-1.7589,-1.7589,-1.7589,-1.7589,-1.7589,-1.7589,-1.7589,-1.7589,-1.7589,-1.7589,-1.7589,-1.7589,-1.7589,-1.7589,-1.7589,-1.7589,-1.7687,-1.7786,-1.7838,-1.7635,-1.7589,-1.7589,-1.7786,-1.8708,-1.9428,-1.9937,-2.1811,-2.3583,-2.3899,-2.4922,-2.5635,-2.581,-2.5713,-2.5771,-2.5838,-2.58,-2.6052,-2.6439,-2.6815,-2.715,-2.7712,-2.802,-2.8194,-2.8136,-2.7871,-2.7796,-2.7941,-2.737,-2.7283,-2.7661,-2.7069,-2.7597,-2.904,-2.8569,-2.8688,-2.9326,-2.9456,-2.9106,-2.8148,-2.7735,-2.7522,-2.6307,-2.5168,-2.4414,-2.4296,-2.3594,-2.3101,-2.3101,-2.3101,-2.3178,-2.3135,-2.3299,-2.4135,-2.6058,-2.7105,-2.7855,-2.8988,-2.9663,-2.974,-2.9624,-2.974,-2.9753,-2.9714,-2.9702,-2.9779,-2.9779,-2.9779,-2.9779,-2.9934,-3.0139,-3.1119,-3.2379,-3.3241,-3.4007,-3.492,-3.5489,-3.5718,-3.6086,-3.5894,-3.6053,-3.7573,-3.8789,-3.9594,-4.032,-4.07,-4.0891,-4.1064,-4.1358,-4.1625,-4.1599,-4.142,-4.1397,-1.7589,-1.7589,-1.7589,-1.7589,-1.7589,-1.7589,-1.7589,-1.7589,-1.7589,-1.7589,-1.7589,-1.7589,-1.7589,-1.7589,-1.7589,-1.7589,-1.7589,-1.7589,-1.7589,-1.7786,-1.8655,-1.8401,-1.7793,-1.7635,-1.7687,-1.7838,-1.8349,-1.8603,-1.9583,-2.07,-2.1912,-2.3692,-2.4146,-2.4815,-2.5528,-2.5684,-2.5684,-2.5684,-2.5684,-2.5781,-2.6096,-2.6872,-2.7452,-2.7661,-2.8391,-2.8577,-2.8255,-2.7158,-2.6975,-2.7719,-2.7251,-2.7052,-2.7269,-2.676,-2.6779,-2.7435,-2.7914,-2.7787,-2.7649,-2.8171,-2.7999,-2.7005,-2.6284,-2.5577,-2.5252,-2.4211,-2.3627,-2.3517,-2.3222,-2.3101,-2.3101,-2.3101,-2.3101,-2.3101,-2.3101,-2.3724,-2.5179,-2.6254,-2.7331,-2.8386,-2.9314,-2.9702,-2.9779,-2.9779,-2.9779,-2.9779,-2.9779,-2.9779,-2.9779,-2.9779,-2.9779,-3.0075,-3.0419,-3.1365,-3.2343,-3.3192,-3.4095,-3.5052,-3.5489,-3.5522,-3.5894,-3.6086,-3.6646,-3.7719,-3.8553,-3.9394,-4.0214,-4.0841,-4.0881,-4.078,-4.0926,-4.111,-4.072,-4.049,-4.0563,-1.7589,-1.7589,-1.7589,-1.7589,-1.7589,-1.7589,-1.7589,-1.7589,-1.7589,-1.7589,-1.7589,-1.7589,-1.7589,-1.7589,-1.7589,-1.7589,-1.7589,-1.7589,-1.7589,-1.7845,-1.8968,-1.942,-1.9317,-1.931,-1.9317,-1.9317,-1.9317,-1.9826,-2.0538,-2.0998,-2.2274,-2.3534,-2.4245,-2.4962,-2.5625,-2.5684,-2.5684,-2.5684,-2.5684,-2.5684,-2.5781,-2.638,-2.6706,-2.6887,-2.7531,-2.7645,-2.7252,-2.6429,-2.6314,-2.6717,-2.6396,-2.6159,-2.6585,-2.5978,-2.6023,-2.6834,-2.7234,-2.7052,-2.6975,-2.7344,-2.7023,-2.6019,-2.5083,-2.4585,-2.4125,-2.343,-2.3101,-2.3135,-2.3101,-2.3101,-2.3101,-2.3101,-2.3101,-2.3101,-2.3101,-2.3767,-2.5305,-2.6584,-2.7614,-2.8609,-2.9353,-2.9792,-2.9792,-2.9804,-2.9792,-2.9779,-2.9779,-2.9779,-2.9779,-2.9792,-2.9958,-3.033,-3.0838,-3.1743,-3.2687,-3.3585,-3.4477,-3.5421,-3.5774,-3.5714,-3.5916,-3.6302,-3.6986,-3.7725,-3.846,-3.9199,-4.0045,-4.0622,-4.0502,-4.0473,-4.0552,-4.0497,-4.0229,-4.0113,-4.0113,-1.7589,-1.7589,-1.7589,-1.7589,-1.7589,-1.7589,-1.7589,-1.7589,-1.7589,-1.7589,-1.7589,-1.7589,-1.7589,-1.7589,-1.7589,-1.7589,-1.7589,-1.7589,-1.7793,-1.8304,-1.9369,-2.0487,-2.1608,-2.1245,-2.1245,-2.1296,-2.1643,-2.1541,-2.1651,-2.2667,-2.3384,-2.384,-2.4815,-2.5479,-2.5635,-2.5684,-2.5684,-2.5684,-2.5684,-2.5684,-2.5684,-2.5868,-2.5917,-2.5965,-2.6014,-2.6091,-2.5964,-2.576,-2.5867,-2.6051,-2.5065,-2.529,-2.5906,-2.5123,-2.5466,-2.6767,-2.668,-2.6419,-2.6682,-2.6712,-2.6388,-2.5166,-2.4824,-2.4397,-2.3668,-2.3418,-2.3374,-2.3393,-2.3247,-2.3344,-2.3344,-2.3286,-2.3335,-2.3428,-2.3394,-2.4471,-2.6023,-2.736,-2.8371,-2.9543,-2.9711,-2.9892,-2.9955,-2.9955,-2.9993,-3.0382,-3.0319,-3.0331,-3.0344,-3.0369,-3.0555,-3.0778,-3.1415,-3.2088,-3.3082,-3.4027,-3.4962,-3.5848,-3.61,-3.6166,-3.6195,-3.6586,-3.7234,-3.7835,-3.8264,-3.899,-3.9944,-4.0213,-4.023,-4.0204,-4.0311,-4.0229,-4.0113,-4.0113,-4.0113,-1.7589,-1.7589,-1.7589,-1.7589,-1.7589,-1.7589,-1.7589,-1.7589,-1.7589,-1.7589,-1.7589,-1.7589,-1.7589,-1.7589,-1.7589,-1.7589,-1.7589,-1.7687,-1.8094,-1.9317,-2.0633,-2.1963,-2.2776,-2.2316,-2.1853,-2.1853,-2.1744,-2.1744,-2.1996,-2.2416,-2.2726,-2.3791,-2.4304,-2.4667,-2.5586,-2.5684,-2.5684,-2.5684,-2.5684,-2.5684,-2.5684,-2.5684,-2.5684,-2.5684,-2.5684,-2.5684,-2.5684,-2.5684,-2.5732,-2.566,-2.5364,-2.5428,-2.5962,-2.5175,-2.5229,-2.6027,-2.6301,-2.5788,-2.5359,-2.5823,-2.5826,-2.4741,-2.4501,-2.4404,-2.4232,-2.4092,-2.4111,-2.4141,-2.4095,-2.4053,-2.4043,-2.4111,-2.4062,-2.4114,-2.4701,-2.5393,-2.6082,-2.6606,-2.762,-2.8862,-2.985,-3.0543,-3.0894,-3.0841,-3.0866,-3.1022,-3.0997,-3.1022,-3.0972,-3.0909,-3.1048,-3.1225,-3.2399,-3.3192,-3.396,-3.4915,-3.5791,-3.6373,-3.65,-3.6611,-3.6658,-3.6856,-3.7448,-3.7715,-3.7873,-3.8864,-4.0347,-4.0367,-4.0477,-4.0299,-4.0163,-4.0163,-4.018,-4.0163,-4.0096,-1.7589,-1.7589,-1.7589,-1.7589,-1.7589,-1.7589,-1.7589,-1.7589,-1.7589,-1.7589,-1.7589,-1.7589,-1.7589,-1.7589,-1.7589,-1.7589,-1.7589,-1.7582,-1.7937,-1.9013,-2.0582,-2.2055,-2.2918,-2.3434,-2.3583,-2.3543,-2.3642,-2.3583,-2.3592,-2.3543,-2.4097,-2.4559,-2.4609,-2.5069,-2.5586,-2.5684,-2.5684,-2.5684,-2.5684,-2.5684,-2.5684,-2.5684,-2.5684,-2.5684,-2.5684,-2.5684,-2.5684,-2.5684,-2.5684,-2.5625,-2.5508,-2.561,-2.5999,-2.5488,-2.5417,-2.5772,-2.5902,-2.5585,-2.5169,-2.5209,-2.5313,-2.4489,-2.4424,-2.4424,-2.4424,-2.4424,-2.4424,-2.4424,-2.4404,-2.4414,-2.4424,-2.4404,-2.4424,-2.4506,-2.492,-2.5321,-2.5501,-2.6302,-2.7603,-2.8761,-2.9166,-3.0056,-3.0647,-3.0868,-3.1096,-3.0959,-3.1192,-3.1204,-3.1235,-3.1226,-3.1385,-3.191,-3.3331,-3.4339,-3.5018,-3.5848,-3.6778,-3.7052,-3.7056,-3.712,-3.7128,-3.7355,-3.7629,-3.8122,-3.8786,-3.9938,-4.111,-4.0972,-4.0849,-4.0781,-4.0679,-4.0443,-4.0282,-4.0214,-4.0146,-1.7589,-1.7589,-1.7589,-1.7589,-1.7589,-1.7589,-1.7589,-1.7589,-1.7589,-1.7589,-1.7589,-1.7589,-1.7589,-1.7589,-1.7589,-1.7687,-1.7996,-1.8401,-1.8857,-1.9213,-2.1194,-2.2206,-2.2868,-2.4245,-2.5323,-2.5684,-2.5421,-2.543,-2.543,-2.5684,-2.5274,-2.5635,-2.5635,-2.5577,-2.5684,-2.5684,-2.5684,-2.5684,-2.5684,-2.5684,-2.5684,-2.5684,-2.5684,-2.5684,-2.5684,-2.5684,-2.5684,-2.5684,-2.5684,-2.5684,-2.5684,-2.5684,-2.5684,-2.5684,-2.5684,-2.5693,-2.5712,-2.5555,-2.5282,-2.5241,-2.5104,-2.4629,-2.4648,-2.4658,-2.4678,-2.4736,-2.4756,-2.4727,-2.4746,-2.4736,-2.4629,-2.4736,-2.4707,-2.4678,-2.4648,-2.4609,-2.4924,-2.6337,-2.7579,-2.8582,-2.8758,-2.9367,-2.9967,-3.0305,-3.0658,-3.1021,-3.1216,-3.1435,-3.1492,-3.1719,-3.2022,-3.2793,-3.428,-3.593,-3.6735,-3.6983,-3.7893,-3.7908,-3.7789,-3.7789,-3.7893,-3.8491,-3.8967,-3.944,-4.0236,-4.118,-4.1718,-4.1767,-4.161,-4.1457,-4.1288,-4.1136,-4.0764,-4.035,-4.0248,-1.7589,-1.7589,-1.7589,-1.7589,-1.7589,-1.7589,-1.7589,-1.7589,-1.7589,-1.7589,-1.7589,-1.7589,-1.7589,-1.7589,-1.7589,-1.8199,-1.9117,-1.9826,-2.0582,-2.0888,-2.2466,-2.3176,-2.3534,-2.4756,-2.5635,-2.5684,-2.5684,-2.5684,-2.5684,-2.5684,-2.5684,-2.5684,-2.5684,-2.5684,-2.5684,-2.5684,-2.5684,-2.5684,-2.5684,-2.5684,-2.5684,-2.5684,-2.5684,-2.5684,-2.5684,-2.5684,-2.5684,-2.5684,-2.5684,-2.5684,-2.5684,-2.5684,-2.5684,-2.5684,-2.5684,-2.5684,-2.5684,-2.5606,-2.5566,-2.5576,-2.5528,-2.5479,-2.5382,-2.5391,-2.5411,-2.5411,-2.5304,-2.5352,-2.5362,-2.5411,-2.5469,-2.5333,-2.5421,-2.543,-2.5372,-2.542,-2.5516,-2.5934,-2.6526,-2.7396,-2.7928,-2.8634,-2.9314,-2.9771,-2.9925,-3.0513,-3.1057,-3.1577,-3.1955,-3.2436,-3.2996,-3.4005,-3.5291,-3.7001,-3.8546,-3.8633,-3.897,-3.8865,-3.8775,-3.8775,-3.9053,-3.9887,-4.0442,-4.0595,-4.0938,-4.1576,-4.2027,-4.2378,-4.2371,-4.2202,-4.2033,-4.188,-4.1373,-4.0882,-4.0544,-1.7589,-1.7589,-1.7589,-1.7589,-1.7589,-1.7589,-1.7589,-1.7589,-1.7589,-1.7589,-1.7589,-1.7589,-1.7589,-1.7589,-1.7589,-1.8356,-1.9627,-2.0187,-2.099,-2.1752,-2.3026,-2.3692,-2.3899,-2.5069,-2.5577,-2.5684,-2.5684,-2.5684,-2.5684,-2.5684,-2.5684,-2.5684,-2.5684,-2.5684,-2.5684,-2.5684,-2.5684,-2.5684,-2.5684,-2.5684,-2.5684,-2.5684,-2.5684,-2.5684,-2.5684,-2.5684,-2.5684,-2.5684,-2.5684,-2.5684,-2.5684,-2.5684,-2.5684,-2.5684,-2.5684,-2.5684,-2.5684,-2.5684,-2.5684,-2.5684,-2.5664,-2.5674,-2.5684,-2.5684,-2.5684,-2.5654,-2.5684,-2.5684,-2.5684,-2.5684,-2.5645,-2.5684,-2.5684,-2.5684,-2.5684,-2.5684,-2.5684,-2.5684,-2.5952,-2.6276,-2.6644,-2.759,-2.908,-2.9341,-2.9271,-2.9852,-3.0721,-3.1456,-3.2152,-3.2859,-3.3428,-3.4249,-3.5292,-3.6852,-3.8479,-3.9141,-3.9388,-3.9388,-3.9388,-3.9388,-3.9666,-4.0174,-4.0807,-4.1247,-4.1671,-4.2196,-4.2746,-4.3265,-4.3104,-4.2963,-4.2861,-4.2608,-4.1965,-4.1457,-4.1153,-1.7589,-1.7589,-1.7589,-1.7589,-1.7589,-1.7589,-1.7589,-1.7589,-1.7589,-1.7793,-1.7943,-1.7793,-1.7943,-1.8349,-1.8655,-1.9213,-2.0333,-2.0597,-2.1507,-2.2776,-2.3692,-2.4156,-2.4452,-2.502,-2.5684,-2.5684,-2.5684,-2.5684,-2.5684,-2.5684,-2.5684,-2.5684,-2.5684,-2.5684,-2.5684,-2.5684,-2.5684,-2.5684,-2.5684,-2.5684,-2.5684,-2.5684,-2.5684,-2.5684,-2.5684,-2.5684,-2.5684,-2.5684,-2.5684,-2.5684,-2.5684,-2.5684,-2.5684,-2.5684,-2.5684,-2.5684,-2.5684,-2.5684,-2.5684,-2.5684,-2.5684,-2.5684,-2.5684,-2.5684,-2.5684,-2.5684,-2.5684,-2.5684,-2.5684,-2.5684,-2.5684,-2.5684,-2.5684,-2.5684,-2.5684,-2.5684,-2.5684,-2.5684,-2.5684,-2.5809,-2.5684,-2.6428,-2.7804,-2.8038,-2.7804,-2.8855,-2.9772,-3.0855,-3.1589,-3.2698,-3.3343,-3.4053,-3.5075,-3.6462,-3.7852,-3.898,-3.9228,-3.9388,-3.9388,-3.9388,-3.9702,-4.0115,-4.0756,-4.1421,-4.2463,-4.2997,-4.3578,-4.3977,-4.3844,-4.3741,-4.3673,-4.3335,-4.2709,-4.2202,-4.1847,-1.7589,-1.7589,-1.7589,-1.7589,-1.7589,-1.7589,-1.7589,-1.7589,-1.7589,-1.8304,-1.9124,-1.8304,-1.9013,-2.0479,-2.0982,-2.1853,-2.2717,-2.2926,-2.3443,-2.4618,-2.5069,-2.5226,-2.5372,-2.5528,-2.5684,-2.5684,-2.5684,-2.5684,-2.5684,-2.5684,-2.5684,-2.5684,-2.5684,-2.5684,-2.5684,-2.5684,-2.5684,-2.5684,-2.5684,-2.5684,-2.5684,-2.5684,-2.5684,-2.5684,-2.5684,-2.5684,-2.5684,-2.5684,-2.5684,-2.5684,-2.5684,-2.5684,-2.5684,-2.5684,-2.5684,-2.5684,-2.5684,-2.5684,-2.5684,-2.5684,-2.5684,-2.5684,-2.5684,-2.5684,-2.5684,-2.5684,-2.5684,-2.5684,-2.5684,-2.5684,-2.5684,-2.5684,-2.5684,-2.5684,-2.5684,-2.5684,-2.5684,-2.5684,-2.5684,-2.5684,-2.5684,-2.5684,-2.638,-2.6342,-2.639,-2.7626,-2.8866,-3.0045,-3.1178,-3.2326,-3.3142,-3.3827,-3.4952,-3.6369,-3.7405,-3.8494,-3.9192,-3.9388,-3.9388,-3.946,-3.99,-4.0309,-4.0672,-4.1463,-4.2568,-4.3578,-4.4068,-4.4344,-4.4474,-4.4384,-4.4147,-4.3826,-4.3409,-4.2953,-4.2472,-1.7589,-1.7589,-1.7589,-1.7589,-1.7589,-1.7589,-1.7589,-1.7589,-1.7641,-1.8349,-1.9376,-1.9065,-1.9878,-2.1491,-2.1693,-2.2416,-2.3484,-2.3741,-2.4461,-2.5479,-2.5684,-2.5684,-2.5684,-2.5684,-2.5684,-2.5684,-2.5684,-2.5684,-2.5684,-2.5732,-2.5684,-2.5684,-2.5684,-2.5684,-2.5684,-2.5684,-2.5684,-2.5684,-2.5684,-2.5684,-2.5684,-2.5684,-2.5684,-2.5684,-2.5684,-2.5684,-2.5684,-2.5684,-2.5684,-2.5684,-2.5684,-2.5684,-2.5684,-2.5684,-2.5684,-2.5684,-2.5684,-2.5684,-2.5684,-2.5732,-2.5684,-2.5684,-2.5684,-2.5684,-2.5684,-2.5684,-2.5684,-2.5684,-2.5684,-2.5684,-2.5684,-2.5684,-2.5684,-2.5684,-2.5684,-2.5684,-2.5684,-2.5684,-2.5684,-2.5684,-2.5684,-2.5684,-2.5965,-2.6658,-2.6993,-2.7626,-2.9085,-3.0586,-3.1456,-3.2326,-3.3,-3.3471,-3.4829,-3.6316,-3.7161,-3.813,-3.9104,-3.9388,-3.9388,-3.9589,-4.015,-4.0569,-4.1044,-4.1771,-4.2896,-4.3759,-4.4412,-4.4581,-4.4564,-4.4581,-4.4581,-4.4231,-4.3876,-4.3358,-4.2716,-1.7589,-1.7589,-1.7589,-1.7589,-1.7589,-1.7589,-1.7589,-1.7589,-1.7589,-1.8551,-2.0033,-2.0802,-2.1659,-2.2055,-2.2357,-2.3076,-2.4196,-2.384,-2.4559,-2.5323,-2.5684,-2.5684,-2.5684,-2.5684,-2.5684,-2.5732,-2.6245,-2.6052,-2.5878,-2.6014,-2.6149,-2.5732,-2.5684,-2.5684,-2.5684,-2.5684,-2.5684,-2.5684,-2.5684,-2.5684,-2.5684,-2.5684,-2.5684,-2.5684,-2.5684,-2.5684,-2.5684,-2.5684,-2.5684,-2.5684,-2.5684,-2.5684,-2.5684,-2.611,-2.6332,-2.638,-2.639,-2.6332,-2.6197,-2.6014,-2.5781,-2.5684,-2.5684,-2.5684,-2.5684,-2.5684,-2.5684,-2.5684,-2.5684,-2.5684,-2.5684,-2.5684,-2.5684,-2.5684,-2.5684,-2.5684,-2.5684,-2.5732,-2.5684,-2.5684,-2.5684,-2.5684,-2.6197,-2.7352,-2.7861,-2.7955,-2.9223,-3.1045,-3.1921,-3.2556,-3.2914,-3.3471,-3.4911,-3.6198,-3.6877,-3.7762,-3.8694,-3.9388,-3.9388,-3.9737,-4.0309,-4.1028,-4.1657,-4.2475,-4.3309,-4.3923,-4.457,-4.457,-4.4598,-4.4598,-4.4598,-4.4598,-4.4282,-4.3724,-4.3003,-1.7589,-1.7589,-1.7589,-1.7589,-1.7589,-1.7589,-1.7589,-1.7589,-1.7589,-1.9065,-2.1499,-2.38,-2.4205,-2.3791,-2.3692,-2.4254,-2.543,-2.4254,-2.4756,-2.5372,-2.5684,-2.5684,-2.5684,-2.5684,-2.5732,-2.5927,-2.6572,-2.6572,-2.6342,-2.7078,-2.6658,-2.5868,-2.61,-2.5868,-2.6014,-2.638,-2.6149,-2.6062,-2.5965,-2.583,-2.5732,-2.5684,-2.5684,-2.5732,-2.5742,-2.5732,-2.5684,-2.5955,-2.582,-2.582,-2.6149,-2.6004,-2.6245,-2.6982,-2.74,-2.7447,-2.7447,-2.7447,-2.7305,-2.6572,-2.5917,-2.5781,-2.5732,-2.5868,-2.6332,-2.5917,-2.5732,-2.5917,-2.6052,-2.583,-2.5781,-2.5684,-2.5732,-2.6014,-2.6052,-2.5965,-2.5917,-2.5732,-2.5732,-2.5684,-2.5732,-2.582,-2.6658,-2.7814,-2.8319,-2.8448,-3.0135,-3.1909,-3.2382,-3.2939,-3.3099,-3.3713,-3.5116,-3.6119,-3.6512,-3.752,-3.8943,-3.9388,-3.9388,-3.99,-4.05,-4.1262,-4.2013,-4.2902,-4.3652,-4.4157,-4.457,-4.457,-4.4598,-4.4598,-4.4598,-4.4598,-4.4175,-4.347,-4.2929,-1.7589,-1.7589,-1.7589,-1.7589,-1.7589,-1.7589,-1.7589,-1.7589,-1.7635,-1.9161,-2.1853,-2.4353,-2.543,-2.502,-2.4922,-2.5177,-2.5635,-2.5274,-2.5323,-2.5479,-2.5684,-2.5684,-2.5684,-2.5684,-2.5732,-2.6014,-2.6945,-2.7505,-2.7125,-2.8085,-2.8412,-2.7945,-2.7305,-2.7531,-2.7673,-2.7673,-2.7447,-2.6935,-2.6754,-2.6572,-2.5732,-2.5684,-2.5684,-2.5684,-2.6668,-2.6342,-2.61,-2.7342,-2.6887,-2.6514,-2.72,-2.7247,-2.7115,-2.8085,-2.8634,-2.8727,-2.8727,-2.8727,-2.8495,-2.7673,-2.721,-2.7531,-2.6839,-2.6284,-2.7437,-2.7305,-2.6945,-2.6897,-2.6839,-2.6706,-2.5781,-2.5781,-2.5868,-2.6332,-2.6572,-2.6476,-2.6476,-2.6428,-2.6062,-2.6149,-2.61,-2.6062,-2.7163,-2.8355,-2.868,-2.9039,-3.0911,-3.2513,-3.2884,-3.3326,-3.3513,-3.4066,-3.5467,-3.654,-3.6968,-3.813,-3.9352,-3.9388,-3.9388,-3.997,-4.0569,-4.1412,-4.2205,-4.3125,-4.3903,-4.4328,-4.457,-4.4598,-4.4598,-4.4598,-4.4598,-4.4598,-4.4005,-4.3284,-4.2824,-1.7589,-1.7589,-1.7589,-1.7589,-1.7589,-1.7589,-1.7589,-1.7589,-1.7589,-1.9109,-2.1853,-2.4097,-2.5382,-2.5577,-2.5684,-2.5635,-2.5684,-2.5625,-2.5635,-2.5684,-2.5684,-2.5684,-2.5684,-2.5684,-2.5732,-2.6062,-2.7305,-2.8085,-2.7542,-2.9131,-2.9681,-2.959,-2.9177,-2.9223,-2.8993,-2.935,-2.8958,-2.8366,-2.8038,-2.7814,-2.6924,-2.6935,-2.6924,-2.702,-2.7814,-2.7814,-2.7579,-2.8308,-2.8308,-2.7981,-2.8168,-2.8727,-2.8866,-2.9085,-2.9761,-2.9909,-2.9909,-2.9909,-2.9636,-2.8993,-2.8541,-2.8727,-2.7992,-2.8028,-2.8634,-2.8634,-2.8179,-2.8132,-2.8085,-2.7626,-2.6524,-2.6791,-2.6887,-2.74,-2.7673,-2.7673,-2.7767,-2.7757,-2.7078,-2.6668,-2.662,-2.6754,-2.7662,-2.8947,-3.0181,-3.0541,-3.1645,-3.284,-3.3013,-3.3513,-3.4024,-3.4774,-3.5868,-3.6827,-3.7663,-3.8583,-3.9388,-3.9388,-3.9481,-3.99,-4.0535,-4.1412,-4.2268,-4.3144,-4.3843,-4.4378,-4.4598,-4.4598,-4.4598,-4.4598,-4.4598,-4.4598,-4.4175,-4.3498,-4.2932,-1.7589,-1.7589,-1.7589,-1.7589,-1.7589,-1.7589,-1.7589,-1.7635,-1.7793,-1.9265,-2.1702,-2.3335,-2.4658,-2.5479,-2.5684,-2.5684,-2.5684,-2.5684,-2.5684,-2.5684,-2.5684,-2.5684,-2.5684,-2.5684,-2.5732,-2.6332,-2.7484,-2.8226,-2.7683,-2.9772,-3.0721,-3.1033,-3.0765,-3.0541,-2.9579,-2.9487,-2.9453,-2.9372,-2.9361,-2.9223,-2.8901,-2.8773,-2.8716,-2.8495,-2.9085,-2.9131,-2.8179,-2.9131,-2.9085,-2.8308,-2.8808,-2.9131,-2.8993,-3.0,-3.0676,-3.0944,-3.1,-3.1045,-3.1089,-3.0,-2.9818,-2.9772,-2.9177,-2.9223,-2.9453,-2.9407,-2.9361,-2.9361,-2.935,-2.8773,-2.8448,-2.8355,-2.8226,-2.8448,-2.8773,-2.8866,-2.8947,-2.8716,-2.7992,-2.7173,-2.7315,-2.7683,-2.8495,-2.959,-3.1368,-3.2283,-3.284,-3.3167,-3.324,-3.3513,-3.4024,-3.5197,-3.6186,-3.719,-3.8017,-3.8819,-3.9388,-3.9388,-3.9517,-3.9844,-4.0447,-4.1313,-4.222,-4.31,-4.3864,-4.4497,-4.4598,-4.4598,-4.4598,-4.4598,-4.4598,-4.4513,-4.4141,-4.3691,-4.3116,-1.7589,-1.7589,-1.7589,-1.7589,-1.7589,-1.7589,-1.7589,-1.7793,-1.8603,-1.9973,-2.1702,-2.3076,-2.4452,-2.5323,-2.5684,-2.5684,-2.5684,-2.5684,-2.5684,-2.5684,-2.5684,-2.5684,-2.5684,-2.5684,-2.5684,-2.6149,-2.7352,-2.8179,-2.7636,-3.0033,-3.0989,-3.1267,-3.1965,-3.2239,-3.1977,-3.1789,-3.1569,-3.0777,-3.0496,-3.0226,-2.9533,-2.9453,-2.9223,-2.8623,-2.9852,-2.967,-2.8132,-2.9544,-2.9727,-2.8448,-2.8855,-2.9361,-2.9039,-2.9818,-3.0541,-3.0989,-3.1223,-3.1633,-3.2096,-3.2021,-3.1877,-3.138,-3.0508,-3.0418,-3.1424,-3.0911,-3.0732,-3.0586,-3.0586,-2.9954,-2.9269,-2.9131,-2.9177,-2.9852,-3.0124,-3.0033,-2.9943,-2.9453,-2.8808,-2.7861,-2.7589,-2.8319,-2.9085,-3.0418,-3.2152,-3.2698,-3.3038,-3.3124,-3.3167,-3.3398,-3.3827,-3.5238,-3.6408,-3.7458,-3.8383,-3.898,-3.9352,-3.9388,-3.9388,-3.9517,-4.0255,-4.1162,-4.182,-4.2565,-4.3647,-4.4598,-4.4598,-4.4598,-4.4598,-4.4598,-4.4665,-4.4703,-4.4527,-4.3987,-4.3244,-1.7589,-1.7589,-1.7589,-1.7589,-1.7589,-1.7589,-1.7589,-1.774,-1.8551,-1.9672,-2.1041,-2.2366,-2.3692,-2.4756,-2.5479,-2.5684,-2.5684,-2.5684,-2.5684,-2.5684,-2.5684,-2.5684,-2.5684,-2.5684,-2.5684,-2.6062,-2.6849,-2.7589,-2.772,-3.0033,-3.1356,-3.2052,-3.2655,-3.284,-3.2939,-3.2754,-3.2612,-3.1965,-3.1789,-3.1589,-3.1045,-3.0777,-3.0463,-3.0361,-3.0721,-3.0855,-2.9727,-2.9863,-3.0777,-2.9212,-2.9269,-3.0192,-2.9875,-3.0147,-3.0855,-3.1178,-3.081,-3.1323,-3.1921,-3.2239,-3.2152,-3.2711,-3.138,-3.1557,-3.2655,-3.2196,-3.1965,-3.1865,-3.1821,-3.1134,-3.0316,-3.0135,-3.0496,-3.1178,-3.0855,-3.0721,-3.0541,-3.0033,-2.9085,-2.8179,-2.8179,-2.8912,-2.9772,-3.138,-3.2939,-3.3038,-3.3124,-3.3124,-3.324,-3.3556,-3.394,-3.5156,-3.6501,-3.7548,-3.8383,-3.898,-3.9265,-3.9388,-3.9388,-3.9388,-4.0005,-4.086,-4.1445,-4.2205,-4.3499,-4.4468,-4.457,-4.4598,-4.4665,-4.4759,-4.4862,-4.4889,-4.4889,-4.432,-4.3596,-1.7589,-1.7589,-1.7589,-1.7589,-1.7589,-1.7589,-1.7589,-1.7589,-1.7635,-1.8447,-1.9775,-2.1245,-2.2717,-2.3899,-2.5069,-2.5684,-2.5684,-2.5684,-2.5684,-2.5684,-2.5684,-2.5684,-2.5684,-2.5684,-2.5684,-2.611,-2.6849,-2.7636,-2.7861,-3.0033,-3.1733,-3.2667,-3.2982,-3.3124,-3.3124,-3.3081,-3.2982,-3.2754,-3.2711,-3.2568,-3.2295,-3.2568,-3.2152,-3.2064,-3.2239,-3.2152,-3.1645,-3.1921,-3.2208,-3.2021,-3.2339,-3.2525,-3.2711,-3.2896,-3.2152,-3.1223,-3.0,-3.0631,-3.0911,-3.1134,-3.1777,-3.2469,-3.2599,-3.2884,-3.2982,-3.2896,-3.2711,-3.2698,-3.2655,-3.2108,-3.1512,-3.1689,-3.1877,-3.1689,-3.1178,-3.1045,-3.0944,-3.0271,-2.9177,-2.868,-2.8901,-2.9498,-3.0361,-3.1833,-3.3124,-3.3124,-3.3167,-3.3398,-3.3598,-3.4108,-3.454,-3.5116,-3.6422,-3.7601,-3.8345,-3.9053,-3.9265,-3.9388,-3.9388,-3.9445,-4.006,-4.0672,-4.1478,-4.2442,-4.3634,-4.439,-4.4766,-4.4855,-4.4814,-4.4971,-4.5433,-4.532,-4.5381,-4.4762,-4.4143,-1.7589,-1.7589,-1.7589,-1.7589,-1.7589,-1.7589,-1.7589,-1.7589,-1.7641,-1.8349,-1.9672,-2.1092,-2.2416,-2.3791,-2.5069,-2.5577,-2.5684,-2.5684,-2.5684,-2.5684,-2.5684,-2.5684,-2.5684,-2.5684,-2.5684,-2.611,-2.6812,-2.7542,-2.8132,-3.0033,-3.1821,-3.2896,-3.3081,-3.3124,-3.3124,-3.3124,-3.3124,-3.3124,-3.3124,-3.3124,-3.3124,-3.3124,-3.2754,-3.2426,-3.284,-3.2426,-3.1557,-3.1689,-3.1545,-3.0866,-3.0631,-3.0496,-3.0451,-3.0451,-3.0079,-3.0135,-3.0135,-3.0631,-3.0079,-2.9943,-3.0496,-3.1456,-3.1721,-3.2382,-3.2754,-3.2982,-3.2982,-3.3124,-3.3124,-3.2568,-3.2052,-3.2096,-3.2196,-3.1865,-3.1311,-3.0944,-3.0855,-3.0541,-2.9544,-2.9407,-2.9636,-3.0,-3.0866,-3.2008,-3.3081,-3.3124,-3.324,-3.3526,-3.3924,-3.4387,-3.5007,-3.5547,-3.6515,-3.7753,-3.8546,-3.9265,-3.9337,-3.9388,-3.9388,-3.9517,-3.997,-4.0672,-4.1576,-4.2675,-4.391,-4.4671,-4.5191,-4.5234,-4.5294,-4.5908,-4.6353,-4.6088,-4.5768,-4.5178,-4.4755,-1.7589,-1.7589,-1.7589,-1.7589,-1.7589,-1.7589,-1.7589,-1.7589,-1.7589,-1.8349,-1.9679,-2.1092,-2.2416,-2.3741,-2.502,-2.5684,-2.5684,-2.5684,-2.5684,-2.5684,-2.5684,-2.5684,-2.5684,-2.5684,-2.5684,-2.6062,-2.6438,-2.6993,-2.8085,-2.9943,-3.1865,-3.2995,-3.3124,-3.3124,-3.3124,-3.3124,-3.3124,-3.3124,-3.3124,-3.3124,-3.3124,-3.3124,-3.2568,-3.2295,-3.284,-3.1977,-3.1057,-3.1412,-3.0721,-3.0214,-3.0124,-2.9806,-2.967,-2.9442,-2.9442,-2.959,-2.9863,-2.9954,-2.9636,-2.9487,-2.9852,-3.0271,-3.0586,-3.0822,-3.1689,-3.2239,-3.2754,-3.3124,-3.3124,-3.2982,-3.2525,-3.2152,-3.2052,-3.1921,-3.1323,-3.0721,-3.0676,-3.0619,-3.0395,-3.0181,-3.0316,-3.0598,-3.1368,-3.2426,-3.3068,-3.3124,-3.3326,-3.3683,-3.4037,-3.4511,-3.521,-3.5854,-3.6866,-3.7942,-3.8671,-3.9265,-3.9352,-3.9388,-3.9388,-3.9589,-3.997,-4.0909,-4.2093,-4.3133,-4.4209,-4.4875,-4.5481,-4.5775,-4.5965,-4.6571,-4.6928,-4.6623,-4.6208,-4.569,-4.5367,-1.7589,-1.7589,-1.7589,-1.7589,-1.7589,-1.7589,-1.7687,-1.7733,-1.7891,-1.8454,-1.9782,-2.1245,-2.2617,-2.384,-2.5069,-2.5635,-2.5684,-2.5684,-2.5684,-2.5684,-2.5684,-2.5684,-2.5684,-2.5684,-2.5684,-2.5732,-2.6245,-2.7315,-2.8448,-3.0124,-3.1821,-3.3038,-3.3124,-3.3124,-3.3124,-3.3124,-3.3124,-3.3124,-3.3124,-3.3124,-3.3124,-3.3124,-3.3124,-3.3038,-3.3081,-3.2896,-3.2667,-3.2152,-3.1368,-3.1356,-3.1033,-3.0541,-2.9761,-2.9396,-2.9396,-2.9304,-2.9453,-2.9315,-2.9223,-2.9223,-2.9579,-2.9715,-2.959,-3.0271,-3.1368,-3.1456,-3.1833,-3.2426,-3.2426,-3.2797,-3.2568,-3.1921,-3.1645,-3.1545,-3.1223,-3.0899,-3.0899,-3.0765,-3.0451,-3.0361,-3.0631,-3.0911,-3.1512,-3.2556,-3.3081,-3.3124,-3.324,-3.3598,-3.4511,-3.4979,-3.5641,-3.6408,-3.7496,-3.8383,-3.8583,-3.9104,-3.9352,-3.9388,-3.9517,-3.9809,-4.0324,-4.1412,-4.2676,-4.3672,-4.4629,-4.5163,-4.5699,-4.6124,-4.6564,-4.6937,-4.7137,-4.7012,-4.6638,-4.6075,-4.5568,-1.7589,-1.7589,-1.7589,-1.7589,-1.7589,-1.7589,-1.8199,-1.9117,-1.9117,-1.9317,-2.004,-2.2013,-2.3384,-2.3989,-2.5118,-2.5684,-2.5684,-2.5684,-2.5684,-2.5684,-2.5684,-2.5684,-2.5684,-2.5684,-2.5732,-2.6062,-2.6754,-2.8226,-2.9806,-3.0989,-3.1821,-3.2982,-3.3124,-3.3124,-3.3124,-3.3124,-3.3124,-3.3124,-3.3124,-3.3124,-3.3124,-3.3124,-3.3124,-3.3124,-3.3124,-3.3124,-3.2939,-3.2797,-3.2568,-3.2612,-3.1633,-3.0619,-2.9487,-2.9442,-2.8901,-2.8402,-2.8901,-2.8947,-2.8808,-2.9096,-2.9636,-3.0361,-3.0721,-3.1412,-3.1557,-3.0777,-3.0676,-3.1356,-3.1909,-3.237,-3.2469,-3.1777,-3.1356,-3.1311,-3.1178,-3.1178,-3.1211,-3.0944,-3.0586,-3.0732,-3.0956,-3.1412,-3.1965,-3.2426,-3.2896,-3.3124,-3.3124,-3.3641,-3.517,-3.5987,-3.6554,-3.7343,-3.8331,-3.9017,-3.9017,-3.9205,-3.9595,-3.99,-4.0095,-4.0413,-4.0758,-4.2093,-4.3426,-4.4169,-4.4986,-4.5593,-4.6203,-4.6773,-4.7186,-4.7479,-4.7511,-4.7417,-4.6844,-4.6249,-4.5627,-1.7589,-1.7589,-1.7589,-1.7589,-1.7589,-1.7589,-1.8048,-1.8864,-1.9981,-2.0538,-2.0794,-2.2667,-2.3989,-2.4452,-2.5421,-2.5684,-2.5684,-2.5684,-2.5684,-2.5684,-2.5684,-2.5684,-2.5684,-2.5781,-2.6294,-2.6706,-2.8437,-3.0033,-3.1078,-3.1952,-3.2612,-3.3038,-3.3124,-3.3124,-3.3124,-3.3124,-3.3124,-3.3124,-3.3124,-3.3124,-3.3124,-3.3124,-3.3124,-3.3124,-3.3124,-3.3124,-3.284,-3.2698,-3.2239,-3.1921,-3.0944,-3.0259,-2.9487,-2.9396,-2.8773,-2.8366,-2.8541,-2.9085,-2.8773,-2.905,-2.9772,-3.0406,-3.0496,-3.0721,-3.0598,-2.9954,-3.0406,-3.0989,-3.1356,-3.1821,-3.1821,-3.1356,-3.1821,-3.2008,-3.1633,-3.14,-3.1821,-3.2152,-3.1921,-3.1965,-3.2108,-3.2251,-3.2655,-3.2698,-3.324,-3.3953,-3.3827,-3.4622,-3.5948,-3.6774,-3.742,-3.8167,-3.9038,-3.9358,-3.925,-3.9615,-4.008,-4.0378,-4.074,-4.1412,-4.2062,-4.3108,-4.415,-4.4805,-4.5477,-4.6147,-4.6741,-4.7288,-4.7676,-4.7941,-4.793,-4.7863,-4.7132,-4.6303,-4.5597,-1.7589,-1.7589,-1.7589,-1.7589,-1.7589,-1.7589,-1.7786,-1.8297,-2.0333,-2.16,-2.2055,-2.3176,-2.4452,-2.5323,-2.5684,-2.5684,-2.5684,-2.5684,-2.5684,-2.5684,-2.5684,-2.5684,-2.582,-2.6014,-2.6849,-2.7992,-2.9544,-3.0406,-3.1211,-3.1909,-3.2469,-3.2939,-3.3124,-3.3124,-3.3124,-3.3124,-3.3124,-3.3124,-3.3124,-3.3124,-3.3124,-3.3124,-3.3124,-3.3124,-3.3124,-3.3124,-3.2754,-3.2295,-3.1601,-3.1134,-3.0676,-2.9727,-2.9131,-2.8866,-2.8168,-2.7767,-2.8226,-2.8727,-2.8947,-2.9407,-2.9727,-2.9852,-2.967,-2.9863,-3.0,-3.009,-3.0541,-3.0765,-3.1134,-3.1356,-3.1412,-3.1689,-3.2283,-3.2612,-3.2096,-3.1777,-3.2426,-3.2995,-3.2939,-3.2927,-3.2982,-3.3025,-3.3068,-3.3111,-3.3742,-3.4498,-3.5292,-3.6279,-3.7035,-3.7381,-3.7814,-3.8613,-3.9493,-3.9631,-3.9631,-4.006,-4.0603,-4.1162,-4.1576,-4.2458,-4.3273,-4.4083,-4.476,-4.5295,-4.5943,-4.6632,-4.7174,-4.7668,-4.8027,-4.8268,-4.7865,-4.7536,-4.6833,-4.603,-4.5409,-1.7589,-1.7589,-1.7589,-1.7589,-1.7589,-1.7589,-1.8192,-1.9169,-1.9731,-2.1151,-2.2826,-2.3534,-2.4452,-2.5684,-2.5684,-2.5684,-2.5684,-2.5684,-2.5684,-2.5684,-2.5684,-2.5684,-2.6187,-2.7163,-2.7992,-2.9039,-2.9954,-3.0305,-3.14,-3.1777,-3.2152,-3.3038,-3.3124,-3.3124,-3.3124,-3.3124,-3.3124,-3.3124,-3.3124,-3.3124,-3.3124,-3.3124,-3.3124,-3.3124,-3.3124,-3.3124,-3.2982,-3.2896,-3.2754,-3.2382,-3.15,-3.0045,-2.905,-2.8459,-2.772,-2.7173,-2.7626,-2.7945,-2.8355,-2.9544,-2.9954,-3.0676,-3.0989,-3.1877,-3.1745,-3.119,-3.1412,-3.1223,-3.1545,-3.1865,-3.2008,-3.2426,-3.2927,-3.2939,-3.2655,-3.2655,-3.2939,-3.3081,-3.3081,-3.3111,-3.3197,-3.324,-3.3313,-3.3713,-3.4498,-3.521,-3.5762,-3.671,-3.7663,-3.8017,-3.8294,-3.9066,-3.99,-4.0309,-4.05,-4.069,-4.118,-4.1772,-4.2473,-4.3287,-4.4095,-4.4804,-4.5447,-4.5925,-4.6488,-4.7119,-4.7642,-4.7992,-4.8121,-4.8195,-4.7571,-4.7059,-4.6403,-4.5932,-4.5442]},{"header":{"parameterUnit":"m.s-1","parameterCategory":1,"la1":31.0,"la2":29.5877,"lo1":-88.7671,"lo2":-86.6584,"dy":0.0162,"dx":0.0185,"nx":115,"ny":88,"refTime":"2023-03-24T06:00:00:Z","depth":0,"parameterNumber":3,"parameterNumberName":"V-component_of_WINDS"},"data":[0.0,0.0,0.0,0.0,0.0,0.0,0.0,0.0,0.0,0.0,0.0,0.0,0.0,0.0,0.0,0.0,0.0,0.0,0.0,0.0,0.0,0.0,0.0,0.0,0.0,0.0,0.0,0.0,0.0,0.0,0.0,0.0,0.0,0.0,0.0,0.0,0.0,0.0,0.0,0.0,0.0,0.0,0.0,0.0,0.0,0.0,0.0,0.0,0.0,0.0,0.0,0.0,0.0,0.0,0.0,0.0,0.0,0.0,0.0,0.0,0.0,0.0,0.0,0.0,0.0,0.0,0.0,0.0,0.0,0.0,0.0,0.0,0.0,0.0,0.0,0.0,0.0,0.0,0.0,0.0,0.0,0.0,0.0,0.0,0.0,0.0,0.0,0.0,0.0,0.0,0.0,0.0,0.0,0.0,0.0,0.0,0.0,0.0,0.0,0.0,0.0,0.0,0.0,0.0,0.0,0.0,0.0,0.0,0.0,0.0,0.0,0.0,0.0,0.0,0.0,0.0,0.0,0.0,0.0,0.0,0.0,0.0,0.0,0.0,0.0,0.0,0.0,0.0,0.0,0.0,0.0,0.0,0.0,0.0,0.0,0.0,0.0,0.0,0.0,0.0,0.0,0.0,0.0,0.0,0.0,0.0,0.0,0.0,0.0,0.0,0.0,0.0,0.0,0.0,0.0,0.0,0.0,0.0,0.0,0.0,0.0,0.0,0.0,0.0,0.0,0.0,0.0,0.0,0.0,0.0,0.0,0.0,0.0,0.0,0.0,0.0,0.0,0.0,0.0,0.0,0.0,0.0,0.0,0.0,0.0,0.0,0.0,0.0,0.0,0.0,0.0,0.0,0.0,0.0,0.0,0.0,0.0,0.0,0.0,0.0,0.0,0.0,0.0,0.0,0.0,0.0,0.0,0.0,0.0,0.0,0.0,0.0,0.0,0.0,0.0,0.0,0.0,0.0,0.0,0.0,0.0,0.0,0.0,0.0,0.0,0.0,0.0,0.0,0.0,0.0,0.0,0.0,0.0,0.0,0.0,0.0,0.0,0.0,0.0,0.0,0.0,0.0,0.0,0.0,0.0,0.0,0.0,0.0,0.0,0.0,0.0,0.0,0.0,0.0,0.0,0.0,0.0,0.0,0.0,0.0,0.0,0.0,0.0,0.0,0.0,0.0,0.0,0.0,0.0,0.0,0.0,0.0,0.0,0.0,0.0,0.0,0.0,0.0,0.0,0.0,0.0,0.0,0.0,0.0,0.0,0.0,0.0,0.0,0.0,0.0,0.0,0.0,0.0,0.0,0.0,0.0,0.0,0.0,0.0,0.0,0.0,0.0,0.0,0.0,0.0,0.0,0.0,0.0,0.0,0.0,0.0,0.0,0.0,0.0,0.0,0.0,0.0,0.0,0.0,0.0,0.0,0.0,0.0,0.0,0.0,0.0,0.0,0.0,0.0,0.0,0.0,0.0,0.0,0.0,0.0,0.0,0.0,0.0,0.0,0.0,0.0,0.0,0.0,0.0,0.0,0.0,0.0,0.0,0.0,0.0,0.0,0.0,0.0,0.0,0.0,0.0,0.0,0.0,0.0,0.0,0.0,0.0,0.0,0.0,0.0,0.0,0.0,0.0,0.0,0.0,0.0,0.0,0.0,0.0,0.0,0.0,0.0,0.0,0.0,0.0,0.0,0.0,0.0,0.0,0.0,0.0,0.0,0.0,0.0,0.0,0.0,0.0,0.0,0.0,0.0,0.0,0.0,0.0,0.0,0.0,0.0,0.0,0.0,0.0,0.0,0.0,0.0,0.0,0.0,0.0,0.0,0.0,0.0,0.0,0.0,0.0,0.0,0.0,0.0,0.0,0.0,0.0,0.0,0.0,0.0,0.0,0.0,0.0,0.0,0.0,0.0,0.0,0.0,0.0,0.0,0.0,0.0,0.0,0.0,0.0,0.0,0.0,0.0,0.0,0.0,0.0,0.0,0.0,0.0,0.0,0.0,0.0,0.0,0.0,0.0,0.0,0.0,0.0,0.0,0.0,0.0,0.0,0.0,0.0,0.0,0.0,0.0,0.0,0.0,0.0,0.0,0.0,0.0,0.0,0.0,0.0,0.0,0.0,0.0,0.0,0.0,0.0,0.0,0.0,0.0,0.0,0.0,0.0,0.0,0.0,0.0,0.0,0.0,0.0,0.0,0.0,0.0,0.0,0.0,0.0,0.0,0.0,0.0,0.0,0.0,0.0,0.0,0.0,0.0,0.0,0.0,0.0,0.0,0.0,0.0,0.0,0.0,0.0,0.0,0.0,0.0,0.0,0.0,0.0,0.0,0.0,0.0,0.0,0.0,0.0,0.0,0.0,0.0,0.0,0.0,0.0,0.0,0.0,0.0,0.0,0.0,0.0,0.0,0.0,0.0,0.0,0.0,0.0,0.0,0.0,0.0,0.0,0.0,0.0,0.0,0.0,0.0,0.0,0.0,0.0,0.0,0.0,0.0,0.0,0.0,0.0,0.0,0.0,0.0,0.0,0.0,0.0,0.0,0.0,0.0,0.0,0.0,0.0,0.0,0.0,0.0,0.0,0.0,0.0,0.0,0.0,0.0,0.0,0.0,0.0,0.0,0.0,0.0,0.0,0.0,0.0,0.0,0.0,0.0,0.0,0.0,0.0,0.0,0.0,0.0,0.0,0.0,0.0,0.0,0.0,0.0,0.0,0.0,0.0,0.0,0.0,0.0,0.0,0.0,0.0,0.0,0.0,0.0,0.0,0.0,0.0,0.0,0.0,0.0,0.0,0.0,0.0,0.0,0.0,0.0,0.0,0.0,0.0,0.0,0.0,0.0,0.0,0.0,0.0,0.0,0.0,0.0,0.0,0.0,0.0,0.0,0.0,0.0,0.0,0.0,0.0,0.0,0.0,0.0,0.0,0.0,0.0,0.0,0.0,0.0,0.0,0.0,0.0,0.0,0.0,0.0,0.0,0.0,0.0,0.0,0.0,0.0,0.0,0.0,0.0,0.0,0.0,0.0,0.0,0.0,0.0,0.0,0.0,0.0,0.0,0.0,0.0,0.0,0.0,0.0,0.0,0.0,0.0,0.0,0.0,0.0,0.0,0.0,0.0,0.0,0.0,0.0,0.0,0.0,0.0,0.0,0.0,0.0,0.0,0.0,0.0,0.0,0.0,0.0,0.0,0.0,0.0,0.0,0.0,0.0,0.0,0.0,0.0,0.0,0.0,0.0,0.0,0.0,0.0,0.0,0.0,0.0,0.0,0.0,0.0,0.0,0.0,0.0,0.0,0.0,0.0,0.0,0.0,0.0,0.0,0.0,0.0,0.0,0.0,0.0,0.0,0.0,0.0,0.0,0.0,0.0,0.0,0.0,0.0,0.0,0.0,0.0,0.0,0.0,0.0,0.0,0.0,0.0,0.0,0.0,0.0,0.0,0.0,0.0,0.0,0.0,0.0,0.0,0.0,0.0,0.0,0.0,0.0,0.0,0.0,0.0,0.0,0.0,0.0,0.0,0.0,0.0,0.0,0.0,0.0,0.0,0.0,0.0,0.0,0.0,0.0,0.0,0.0,0.0,0.0,0.0,0.0,0.0,0.0,0.0,0.0,0.0,0.0,0.0,0.0,0.0,0.0,0.0,0.0,0.0,0.0,0.0,0.0,0.0,0.0,0.0,0.0,0.0,0.0,0.0,0.0,0.0,0.0,0.0,0.0,0.0,0.0,0.0,0.0,0.0,0.0,0.0,0.0,0.0,0.0,0.0,0.0,0.0,0.0,0.0,0.0,0.0,0.0,0.0,0.0,0.0,0.0,0.0,0.0,0.0,0.0,0.0,0.0,0.0,0.0,0.0,0.0,0.0,0.0,0.0,0.0,0.0,0.0,0.0,0.0,0.0,0.0,0.0,0.0,0.0,0.0,0.0,0.0,0.0,0.0,0.0,0.0,0.0,0.0,0.0,0.0,0.0,0.0,0.0,0.0,0.0,0.0,0.0,0.0,0.0,0.0,0.0,0.0,0.0,0.0,0.0,0.0,0.0,0.0,0.0,0.0,0.0,0.0,0.0,0.0,0.0,0.0,0.0,0.0,0.0,0.0,0.0,0.0,0.0,0.0,0.0,0.0,0.0,0.0,0.0,0.0,0.0,0.0,0.0,0.0,0.0,0.0,0.0,0.0,0.0,0.0,0.0,0.0,0.0,0.0,0.0,0.0,0.0,0.0,0.0,0.0,0.0,0.0,0.0,0.0,0.0,0.0,0.0,0.0,0.0,0.0,2.5091,0.0,0.0,0.0,0.0,0.0,0.0,0.0,0.0,0.0,0.0,0.0,0.0,0.0,0.0,0.0,0.0,0.0,0.0,0.0,0.0,0.0,0.0,0.0,0.0,0.0,0.0,0.0,0.0,0.0,0.0,0.0,0.0,0.0,0.0,0.0,0.0,0.0,0.0,0.0,0.0,0.0,0.0,0.0,0.0,0.0,0.0,0.0,0.0,0.0,0.0,0.0,0.0,0.0,0.0,0.0,0.0,0.0,0.0,0.0,0.0,0.0,0.0,0.0,0.0,0.0,0.0,0.0,0.0,0.0,0.0,0.0,0.0,0.0,0.0,0.0,0.0,0.0,0.0,0.0,0.0,0.0,0.0,0.0,0.0,0.0,0.0,0.0,0.0,0.0,0.0,0.0,0.0,0.0,0.0,0.0,0.0,0.0,0.0,0.0,0.0,0.0,0.0,0.0,0.0,0.0,0.0,0.0,0.0,0.0,0.0,2.5257,2.5136,2.5128,2.5105,2.499,0.0,0.0,0.0,0.0,0.0,0.0,0.0,0.0,0.0,0.0,0.0,0.0,0.0,0.0,0.0,0.0,0.0,0.0,0.0,0.0,0.0,0.0,0.0,0.0,0.0,0.0,0.0,0.0,0.0,0.0,0.0,0.0,0.0,0.0,0.0,0.0,0.0,0.0,0.0,0.0,0.0,0.0,0.0,0.0,0.0,0.0,0.0,0.0,0.0,0.0,0.0,0.0,0.0,0.0,0.0,0.0,0.0,0.0,0.0,0.0,0.0,0.0,0.0,0.0,0.0,0.0,0.0,0.0,0.0,0.0,0.0,0.0,0.0,0.0,0.0,0.0,0.0,0.0,0.0,0.0,0.0,0.0,0.0,0.0,0.0,0.0,0.0,0.0,0.0,0.0,0.0,0.0,0.0,0.0,0.0,0.0,0.0,0.0,0.0,0.0,0.0,0.0,0.0,0.0,0.0,0.0,0.0,0.0,0.0,0.0,0.0,0.0,2.4954,2.4914,2.4881,0.0,0.0,0.0,0.0,0.0,0.0,0.0,0.0,0.0,0.0,0.0,0.0,0.0,0.0,0.0,0.0,0.0,0.0,0.0,0.0,0.0,0.0,0.0,0.0,0.0,0.0,0.0,0.0,0.0,0.0,0.0,0.0,0.0,0.0,0.0,0.0,0.0,0.0,0.0,0.0,0.0,0.0,0.0,0.0,0.0,0.0,0.0,0.0,0.0,0.0,0.0,0.0,0.0,0.0,0.0,0.0,0.0,0.0,0.0,0.0,0.0,0.0,0.0,0.0,0.0,0.0,0.0,0.0,0.0,0.0,0.0,0.0,0.0,0.0,0.0,0.0,0.0,0.0,0.0,0.0,0.0,0.0,0.0,0.0,0.0,0.0,0.0,0.0,0.0,0.0,0.0,0.0,0.0,0.0,0.0,0.0,0.0,0.0,0.0,0.0,0.0,0.0,0.0,0.0,0.0,0.0,0.0,0.0,0.0,0.0,2.4862,2.4738,2.4726,0.0,2.4543,0.0,0.0,0.0,0.0,0.0,0.0,0.0,0.0,0.0,0.0,0.0,0.0,0.0,0.0,0.0,0.0,0.0,0.0,0.0,0.0,0.0,0.0,0.0,0.0,0.0,0.0,0.0,0.0,0.0,0.0,0.0,0.0,0.0,0.0,0.0,0.0,0.0,0.0,0.0,0.0,0.0,0.0,0.0,0.0,0.0,0.0,0.0,0.0,0.0,0.0,0.0,0.0,0.0,0.0,0.0,0.0,0.0,0.0,0.0,0.0,0.0,0.0,0.0,0.0,0.0,0.0,0.0,0.0,0.0,0.0,0.0,0.0,0.0,0.0,0.0,0.0,0.0,0.0,0.0,0.0,0.0,0.0,0.0,0.0,0.0,0.0,0.0,0.0,0.0,0.0,0.0,0.0,0.0,0.0,0.0,0.0,0.0,0.0,0.0,0.0,0.0,0.0,0.0,0.0,0.0,0.0,0.0,0.0,0.0,0.0,2.458,2.4522,2.4418,2.4264,0.0,0.0,0.0,0.0,0.0,0.0,0.0,0.0,0.0,0.0,0.0,0.0,0.0,0.0,0.0,0.0,0.0,0.0,0.0,0.0,0.0,0.0,0.0,0.0,0.0,0.0,0.0,0.0,0.0,0.0,0.0,0.0,0.0,0.0,0.0,0.0,0.0,0.0,0.0,0.0,0.0,0.0,0.0,0.0,0.0,0.0,0.0,0.0,0.0,0.0,0.0,0.0,0.0,0.0,0.0,0.0,0.0,0.0,0.0,0.0,0.0,0.0,0.0,0.0,0.0,0.0,0.0,0.0,0.0,0.0,0.0,0.0,0.0,0.0,0.0,0.0,0.0,0.0,0.0,0.0,0.0,0.0,0.0,0.0,0.0,0.0,0.0,0.0,0.0,0.0,0.0,0.0,0.0,0.0,0.0,0.0,0.0,0.0,0.0,0.0,0.0,0.0,0.0,0.0,0.0,0.0,0.0,0.0,0.0,0.0,2.4255,2.4088,2.404,2.3925,2.3852,2.3806,0.0,0.0,0.0,0.0,0.0,0.0,0.0,0.0,0.0,0.0,0.0,0.0,0.0,0.0,0.0,0.0,0.0,0.0,0.0,0.0,0.0,0.0,0.0,0.0,0.0,0.0,0.0,0.0,0.0,0.0,0.0,0.0,0.0,0.0,0.0,0.0,0.0,0.0,0.0,0.0,0.0,0.0,0.0,0.0,0.0,0.0,0.0,0.0,0.0,0.0,0.0,0.0,0.0,0.0,0.0,0.0,0.0,0.0,0.0,0.0,0.0,0.0,0.0,0.0,0.0,0.0,0.0,0.0,0.0,0.0,0.0,0.0,0.0,0.0,0.0,0.0,0.0,0.0,0.0,0.0,0.0,0.0,0.0,0.0,0.0,0.0,0.0,0.0,0.0,0.0,0.0,0.0,0.0,0.0,0.0,0.0,0.0,0.0,0.0,0.0,0.0,0.0,0.0,0.0,0.0,0.0,0.0,0.0,2.4192,2.3715,2.3336,2.317,2.3268,2.3479,0.0,0.0,0.0,0.0,0.0,0.0,0.0,0.0,0.0,0.0,0.0,0.0,0.0,0.0,0.0,0.0,0.0,0.0,0.0,0.0,0.0,0.0,0.0,0.0,0.0,0.0,0.0,0.0,0.0,0.0,0.0,0.0,0.0,0.0,0.0,0.0,0.0,0.0,0.0,0.0,0.0,0.0,0.0,0.0,0.0,0.0,0.0,0.0,0.0,0.0,0.0,0.0,0.0,0.0,0.0,0.0,0.0,0.0,0.0,0.0,0.0,0.0,0.0,0.0,0.0,0.0,0.0,0.0,0.0,0.0,0.0,0.0,0.0,0.0,0.0,0.0,0.0,0.0,0.0,0.0,0.0,0.0,0.0,0.0,0.0,0.0,0.0,0.0,0.0,0.0,0.0,0.0,0.0,0.0,0.0,0.0,0.0,0.0,0.0,0.0,0.0,0.0,0.0,0.0,0.0,0.0,0.0,0.0,0.0,2.3465,2.31,2.297,2.3106,2.31,2.3259,0.0,0.0,0.0,0.0,0.0,0.0,0.0,0.0,0.0,0.0,0.0,0.0,0.0,0.0,0.0,0.0,0.0,0.0,0.0,0.0,0.0,0.0,0.0,0.0,0.0,0.0,0.0,0.0,0.0,0.0,0.0,0.0,0.0,0.0,0.0,0.0,0.0,0.0,0.0,0.0,0.0,0.0,0.0,0.0,0.0,0.0,0.0,0.0,0.0,0.0,0.0,0.0,0.0,0.0,0.0,0.0,0.0,0.0,0.0,0.0,0.0,0.0,0.0,0.0,0.0,0.0,0.0,0.0,0.0,0.0,0.0,0.0,0.0,0.0,0.0,0.0,0.0,0.0,0.0,0.0,0.0,0.0,0.0,0.0,0.0,0.0,0.0,0.0,0.0,0.0,0.0,0.0,0.0,0.0,0.0,0.0,0.0,0.0,0.0,0.0,0.0,0.0,0.0,0.0,0.0,0.0,0.0,0.0,0.0,2.2586,0.0,2.2453,2.2444,2.2647,2.2848,0.0,0.0,0.0,0.0,0.0,0.0,0.0,0.0,0.0,0.0,0.0,0.0,0.0,0.0,0.0,0.0,0.0,0.0,0.0,0.0,0.0,0.0,0.0,0.0,0.0,0.0,0.0,0.0,0.0,0.0,0.0,0.0,0.0,0.0,0.0,0.0,0.0,0.0,0.0,0.0,0.0,0.0,0.0,0.0,0.0,0.0,0.0,0.0,0.0,0.0,0.0,0.0,0.0,0.0,0.0,0.0,0.0,0.0,0.0,0.0,0.0,0.0,0.0,0.0,0.0,0.0,0.0,0.0,0.0,0.0,0.0,0.0,0.0,0.0,0.0,0.0,0.0,0.0,0.0,0.0,0.0,0.0,0.0,0.0,0.0,0.0,0.0,0.0,0.0,0.0,0.0,0.0,0.0,0.0,0.0,0.0,0.0,0.0,0.0,0.0,0.0,0.0,0.0,0.0,0.0,0.0,0.0,0.0,2.145,2.1495,2.1879,2.1795,2.1181,2.1859,2.2272,0.0,0.0,0.0,0.0,0.0,0.0,0.0,0.0,0.0,0.0,0.0,0.0,0.0,0.0,0.0,0.0,0.0,0.0,0.0,0.0,0.0,0.0,0.0,0.0,0.0,0.0,0.0,0.0,0.0,0.0,0.0,0.0,0.0,0.0,0.0,0.0,0.0,0.0,0.0,0.0,0.0,0.0,0.0,0.0,0.0,0.0,0.0,0.0,0.0,0.0,0.0,0.0,0.0,0.0,0.0,0.0,0.0,0.0,0.0,0.0,0.0,0.0,0.0,0.0,0.0,0.0,0.0,0.0,0.0,0.0,0.0,0.0,0.0,0.0,0.0,0.0,0.0,0.0,0.0,0.0,0.0,0.0,0.0,0.0,0.0,0.0,0.0,0.0,0.0,0.0,0.0,0.0,0.0,0.0,0.0,0.0,0.0,0.0,0.0,0.0,0.0,0.0,0.0,0.0,0.0,0.0,0.0,0.0,0.0,2.0649,2.1102,2.1395,2.1511,2.1974,2.2368,0.0,0.0,0.0,0.0,0.0,0.0,0.0,0.0,0.0,0.0,0.0,0.0,0.0,0.0,0.0,0.0,0.0,0.0,0.0,0.0,0.0,0.0,0.0,0.0,0.0,0.0,0.0,0.0,0.0,0.0,0.0,0.0,0.0,0.0,0.0,0.0,0.0,0.0,0.0,0.0,0.0,0.0,0.0,0.0,0.0,0.0,0.0,0.0,0.0,0.0,0.0,0.0,0.0,0.0,0.0,0.0,0.0,0.0,0.0,0.0,0.0,0.0,0.0,0.0,0.0,0.0,0.0,0.0,0.0,0.0,0.0,0.0,0.0,0.0,0.0,0.0,0.0,0.0,0.0,0.0,0.0,0.0,0.0,0.0,0.0,0.0,0.0,0.0,0.0,0.0,0.0,0.0,0.0,0.0,0.0,0.0,0.0,0.0,0.0,0.0,0.0,0.0,0.0,0.0,0.0,0.0,0.0,0.0,0.0,2.1224,2.1972,2.2405,2.2543,2.2906,2.2808,2.2194,0.0,0.0,0.0,0.0,0.0,0.0,0.0,0.0,0.0,0.0,0.0,0.0,0.0,0.0,0.0,0.0,0.0,0.0,0.0,0.0,0.0,0.0,0.0,0.0,0.0,0.0,0.0,0.0,0.0,0.0,0.0,0.0,0.0,0.0,0.0,0.0,0.0,0.0,0.0,0.0,0.0,0.0,0.0,0.0,0.0,0.0,0.0,0.0,0.0,0.0,0.0,0.0,0.0,0.0,0.0,0.0,0.0,0.0,0.0,0.0,0.0,0.0,0.0,0.0,0.0,0.0,0.0,0.0,0.0,0.0,0.0,0.0,0.0,0.0,0.0,0.0,0.0,0.0,0.0,0.0,0.0,0.0,0.0,0.0,0.0,0.0,0.0,0.0,0.0,0.0,0.0,0.0,0.0,0.0,0.0,0.0,0.0,0.0,0.0,0.0,0.0,0.0,0.0,0.0,0.0,0.0,0.0,0.0,2.3063,2.426,2.466,2.4201,2.4393,2.3442,0.0,0.0,0.0,0.0,0.0,0.0,0.0,0.0,0.0,0.0,0.0,0.0,0.0,0.0,0.0,0.0,0.0,0.0,0.0,0.0,0.0,0.0,0.0,0.0,0.0,0.0,0.0,0.0,0.0,0.0,0.0,0.0,0.0,0.0,0.0,0.0,0.0,0.0,0.0,0.0,0.0,0.0,0.0,0.0,0.0,0.0,0.0,0.0,0.0,0.0,0.0,0.0,0.0,0.0,0.0,0.0,0.0,0.0,0.0,0.0,0.0,0.0,0.0,0.0,0.0,0.0,0.0,0.0,0.0,0.0,0.0,0.0,0.0,0.0,0.0,0.0,0.0,0.0,0.0,0.0,0.0,0.0,0.0,0.0,0.0,0.0,0.0,0.0,0.0,0.0,0.0,0.0,0.0,0.0,0.0,0.0,0.0,0.0,0.0,0.0,0.0,0.0,0.0,0.0,0.0,0.0,0.0,0.0,0.0,2.4925,2.7122,2.7626,2.6383,2.4746,2.3769,0.0,0.0,0.0,0.0,0.0,0.0,0.0,0.0,0.0,0.0,0.0,0.0,0.0,0.0,0.0,0.0,0.0,0.0,0.0,0.0,0.0,0.0,0.0,0.0,0.0,0.0,0.0,0.0,0.0,0.0,0.0,0.0,0.0,0.0,0.0,0.0,0.0,0.0,0.0,0.0,0.0,0.0,0.0,0.0,0.0,0.0,0.0,0.0,0.0,0.0,0.0,0.0,0.0,0.0,0.0,0.0,0.0,0.0,0.0,0.0,0.0,0.0,0.0,0.0,0.0,0.0,0.0,0.0,0.0,0.0,0.0,0.0,0.0,0.0,0.0,0.0,0.0,0.0,0.0,0.0,0.0,0.0,0.0,0.0,0.0,0.0,0.0,0.0,0.0,0.0,0.0,0.0,0.0,0.0,0.0,0.0,0.0,0.0,0.0,0.0,0.0,0.0,0.0,0.0,0.0,0.0,0.0,0.0,2.1463,2.4414,2.7692,2.9069,2.8472,2.6146,2.4476,0.0,0.0,0.0,0.0,0.0,0.0,0.0,0.0,0.0,0.0,0.0,0.0,0.0,0.0,0.0,0.0,0.0,0.0,0.0,0.0,0.0,0.0,0.0,0.0,0.0,0.0,0.0,0.0,0.0,0.0,0.0,0.0,0.0,0.0,0.0,0.0,0.0,0.0,0.0,0.0,0.0,0.0,0.0,0.0,0.0,0.0,0.0,0.0,0.0,0.0,0.0,0.0,0.0,0.0,0.0,0.0,0.0,0.0,0.0,0.0,0.0,0.0,0.0,0.0,0.0,0.0,0.0,0.0,0.0,0.0,0.0,0.0,0.0,0.0,0.0,0.0,0.0,0.0,0.0,0.0,0.0,0.0,0.0,0.0,0.0,0.0,0.0,0.0,0.0,0.0,0.0,0.0,0.0,0.0,0.0,0.0,0.0,0.0,0.0,0.0,0.0,0.0,0.0,0.0,0.0,0.0,0.0,0.0,2.155,2.2731,2.6839,2.9345,2.9978,2.776,2.5296,0.0,0.0,0.0,0.0,0.0,0.0,0.0,0.0,0.0,0.0,0.0,0.0,0.0,0.0,0.0,0.0,0.0,0.0,0.0,0.0,0.0,0.0,0.0,0.0,0.0,0.0,0.0,0.0,0.0,0.0,0.0,0.0,0.0,0.0,0.0,0.0,0.0,0.0,0.0,0.0,0.0,0.0,0.0,0.0,0.0,0.0,0.0,0.0,0.0,0.0,0.0,0.0,0.0,0.0,0.0,0.0,0.0,0.0,0.0,0.0,0.0,0.0,0.0,0.0,0.0,0.0,0.0,0.0,0.0,0.0,0.0,0.0,0.0,0.0,0.0,0.0,0.0,0.0,0.0,0.0,0.0,0.0,0.0,0.0,0.0,0.0,0.0,0.0,0.0,0.0,0.0,0.0,0.0,0.0,0.0,0.0,0.0,0.0,0.0,0.0,0.0,0.0,0.0,0.0,0.0,0.0,0.0,0.0,2.1218,2.3522,2.6208,2.8194,2.9372,2.6622,2.511,0.0,0.0,0.0,0.0,0.0,0.0,0.0,0.0,0.0,0.0,0.0,0.0,0.0,0.0,0.0,0.0,0.0,0.0,0.0,0.0,0.0,0.0,0.0,0.0,0.0,0.0,0.0,0.0,0.0,0.0,0.0,0.0,0.0,0.0,0.0,0.0,0.0,0.0,0.0,0.0,0.0,0.0,0.0,0.0,0.0,0.0,0.0,0.0,2.6399,0.0,0.0,0.0,0.0,0.0,0.0,0.0,0.0,0.0,0.0,0.0,0.0,0.0,0.0,0.0,0.0,0.0,0.0,0.0,0.0,0.0,0.0,0.0,0.0,0.0,0.0,0.0,0.0,0.0,0.0,0.0,0.0,0.0,0.0,0.0,0.0,0.0,0.0,0.0,0.0,0.0,0.0,0.0,0.0,0.0,0.0,0.0,0.0,0.0,0.0,0.0,0.0,0.0,0.0,0.0,0.0,0.0,0.0,0.0,1.9672,2.2073,2.4831,2.6594,2.72,2.5332,2.4392,0.0,0.0,0.0,0.0,0.0,0.0,0.0,0.0,0.0,0.0,0.0,0.0,0.0,0.0,0.0,0.0,0.0,0.0,0.0,0.0,0.0,0.0,0.0,0.0,0.0,0.0,0.0,0.0,0.0,0.0,0.0,0.0,0.0,0.0,0.0,0.0,0.0,0.0,0.0,0.0,0.0,0.0,0.0,0.0,0.0,0.0,0.0,0.0,0.0,0.0,0.0,0.0,0.0,0.0,0.0,0.0,0.0,0.0,0.0,0.0,0.0,0.0,0.0,0.0,0.0,0.0,0.0,0.0,0.0,0.0,0.0,0.0,0.0,0.0,0.0,0.0,0.0,0.0,0.0,0.0,0.0,0.0,0.0,0.0,0.0,0.0,0.0,0.0,0.0,0.0,0.0,0.0,0.0,0.0,0.0,0.0,0.0,0.0,0.0,0.0,0.0,0.0,0.0,0.0,0.0,0.0,0.0,1.5973,1.8002,2.0428,2.3225,2.4844,2.5149,2.4132,2.3325,2.2752,0.0,0.0,0.0,0.0,0.0,0.0,0.0,0.0,0.0,0.0,0.0,0.0,0.0,0.0,0.0,0.0,0.0,0.0,0.0,0.0,0.0,0.0,0.0,0.0,0.0,0.0,0.0,0.0,0.0,0.0,0.0,0.0,0.0,0.0,0.0,0.0,0.0,0.0,2.5227,2.487,0.0,0.0,0.0,0.0,0.0,0.0,0.0,0.0,2.5419,0.0,0.0,0.0,0.0,0.0,0.0,0.0,0.0,0.0,0.0,0.0,0.0,0.0,0.0,0.0,0.0,0.0,0.0,0.0,0.0,0.0,0.0,0.0,0.0,0.0,0.0,0.0,0.0,0.0,0.0,0.0,0.0,0.0,0.0,0.0,0.0,0.0,0.0,0.0,0.0,0.0,0.0,0.0,0.0,0.0,0.0,0.0,0.0,0.0,0.0,0.0,0.0,0.0,0.0,0.0,0.0,1.5382,1.576,1.7773,2.1495,2.2146,2.3318,2.5053,2.3525,2.1932,2.0406,0.0,0.0,0.0,0.0,0.0,0.0,0.0,0.0,0.0,0.0,0.0,0.0,0.0,0.0,0.0,0.0,0.0,0.0,0.0,0.0,0.0,0.0,0.0,0.0,0.0,0.0,0.0,0.0,0.0,0.0,0.0,0.0,0.0,0.0,0.0,0.0,0.0,0.0,0.0,2.5406,2.5095,0.0,0.0,0.0,0.0,0.0,0.0,0.0,0.0,2.6476,0.0,0.0,0.0,0.0,0.0,0.0,0.0,0.0,0.0,0.0,0.0,0.0,0.0,0.0,0.0,0.0,0.0,0.0,0.0,0.0,0.0,0.0,0.0,0.0,0.0,0.0,0.0,0.0,0.0,0.0,0.0,0.0,0.0,0.0,0.0,0.0,0.0,0.0,0.0,0.0,0.0,0.0,0.0,0.0,0.0,0.0,0.0,0.0,0.0,0.0,0.0,0.0,0.0,0.0,0.0,1.4644,1.5871,1.78,2.0459,2.1428,2.2415,2.3423,2.2112,2.0528,0.0,0.0,0.0,0.0,0.0,0.0,0.0,0.0,0.0,0.0,0.0,0.0,0.0,0.0,0.0,0.0,0.0,0.0,0.0,0.0,0.0,0.0,0.0,0.0,0.0,0.0,0.0,0.0,0.0,0.0,0.0,0.0,0.0,0.0,0.0,0.0,0.0,0.0,0.0,0.0,2.6467,2.6467,2.7752,0.0,0.0,0.0,0.0,0.0,0.0,2.7024,2.656,0.0,0.0,0.0,0.0,0.0,0.0,0.0,0.0,0.0,0.0,0.0,0.0,0.0,0.0,0.0,0.0,0.0,0.0,0.0,0.0,0.0,0.0,0.0,0.0,0.0,0.0,0.0,0.0,0.0,0.0,0.0,0.0,0.0,0.0,0.0,0.0,0.0,0.0,0.0,0.0,0.0,0.0,0.0,0.0,0.0,0.0,0.0,0.0,0.0,0.0,0.0,0.0,0.0,0.0,0.0,1.3537,1.5585,1.7414,1.8994,2.0568,2.1542,2.1854,2.0553,1.9167,0.0,0.0,0.0,0.0,0.0,0.0,0.0,0.0,0.0,0.0,0.0,0.0,0.0,0.0,0.0,0.0,0.0,0.0,0.0,0.0,0.0,0.0,0.0,0.0,0.0,0.0,0.0,0.0,0.0,0.0,0.0,0.0,0.0,0.0,0.0,0.0,0.0,0.0,0.0,0.0,0.0,2.7762,2.8656,2.782,0.0,0.0,0.0,0.0,2.6772,2.7164,0.0,0.0,0.0,0.0,0.0,0.0,0.0,0.0,0.0,0.0,0.0,0.0,0.0,0.0,0.0,0.0,0.0,0.0,0.0,0.0,0.0,0.0,0.0,0.0,0.0,0.0,0.0,0.0,0.0,0.0,0.0,0.0,0.0,0.0,0.0,0.0,0.0,0.0,0.0,0.0,0.0,0.0,0.0,0.0,0.0,0.0,0.0,0.0,0.0,0.0,0.0,0.0,0.0,0.0,0.0,0.0,1.2581,1.4039,1.5845,1.7986,1.9007,2.0288,2.1779,1.9304,1.7838,0.0,0.0,0.0,0.0,0.0,0.0,0.0,0.0,0.0,0.0,0.0,0.0,0.0,0.0,0.0,0.0,0.0,0.0,0.0,0.0,0.0,0.0,0.0,0.0,0.0,0.0,0.0,0.0,0.0,0.0,0.0,0.0,0.0,0.0,0.0,0.0,0.0,0.0,0.0,0.0,0.0,2.7635,2.897,2.7923,2.6709,0.0,0.0,2.949,2.8905,3.0023,0.0,0.0,0.0,0.0,0.0,0.0,0.0,0.0,0.0,0.0,0.0,0.0,0.0,0.0,0.0,0.0,0.0,0.0,0.0,0.0,0.0,0.0,0.0,0.0,0.0,0.0,0.0,0.0,0.0,0.0,0.0,0.0,0.0,0.0,0.0,0.0,0.0,0.0,0.0,0.0,0.0,0.0,0.0,0.0,0.0,0.0,0.0,0.0,0.0,0.0,0.0,0.0,0.0,0.0,0.0,1.2402,1.2467,1.4575,1.59,1.6409,1.8742,2.0095,2.0362,1.8567,1.7604,0.0,0.0,0.0,0.0,0.0,0.0,0.0,0.0,0.0,0.0,0.0,0.0,0.0,0.0,0.0,0.0,0.0,0.0,0.0,0.0,0.0,0.0,0.0,0.0,0.0,0.0,0.0,0.0,0.0,0.0,0.0,0.0,0.0,0.0,0.0,0.0,0.0,0.0,0.0,0.0,0.0,0.0,2.8393,2.8276,0.0,0.0,0.0,2.9565,2.7968,0.0,0.0,0.0,0.0,0.0,0.0,0.0,0.0,0.0,0.0,0.0,0.0,0.0,0.0,0.0,0.0,0.0,0.0,0.0,0.0,0.0,0.0,0.0,0.0,0.0,0.0,0.0,0.0,0.0,0.0,0.0,0.0,0.0,0.0,0.0,0.0,0.0,0.0,0.0,0.0,0.0,0.0,0.0,0.0,0.0,0.0,0.0,0.0,0.0,0.0,0.0,0.0,0.0,0.0,0.0,0.0,0.0,1.2406,1.4672,1.5649,1.5296,1.803,1.9434,1.9217,1.8419,0.0,0.0,0.0,0.0,0.0,0.0,0.0,0.0,0.0,0.0,0.0,0.0,0.0,0.0,0.0,0.0,0.0,0.0,0.0,0.0,0.0,0.0,0.0,0.0,0.0,0.0,0.0,2.2193,0.0,0.0,0.0,0.0,0.0,0.0,0.0,0.0,0.0,0.0,0.0,0.0,0.0,0.0,2.9119,2.8362,2.9004,2.935,0.0,0.0,3.02,2.8868,3.1109,3.1576,0.0,0.0,0.0,0.0,0.0,0.0,0.0,0.0,0.0,0.0,0.0,0.0,0.0,0.0,0.0,0.0,0.0,0.0,0.0,0.0,0.0,0.0,0.0,0.0,0.0,0.0,0.0,0.0,0.0,0.0,0.0,0.0,0.0,0.0,0.0,0.0,0.0,0.0,0.0,0.0,0.0,0.0,0.0,0.0,0.0,0.0,0.0,0.0,0.0,0.0,0.0,0.0,0.0,0.0,0.0,1.2288,1.3341,1.435,1.5199,1.6165,1.7528,1.9212,1.91,1.8145,0.0,0.0,0.0,0.0,0.0,0.0,0.0,0.0,0.0,0.0,0.0,0.0,0.0,0.0,0.0,0.0,0.0,0.0,0.0,0.0,0.0,0.0,0.0,0.0,0.0,0.0,0.0,0.0,0.0,0.0,0.0,0.0,0.0,0.0,0.0,0.0,0.0,0.0,0.0,0.0,0.0,2.9825,2.952,3.0162,3.1202,0.0,0.0,3.2411,3.3978,3.5224,3.4723,3.0702,0.0,0.0,0.0,0.0,0.0,0.0,0.0,0.0,0.0,0.0,0.0,0.0,0.0,0.0,0.0,0.0,0.0,0.0,0.0,0.0,0.0,0.0,0.0,0.0,0.0,0.0,0.0,0.0,0.0,0.0,0.0,0.0,0.0,0.0,0.0,0.0,0.0,0.0,0.0,0.0,0.0,0.0,0.0,0.0,0.0,0.0,0.0,0.0,0.0,0.0,0.0,0.0,0.0,1.3891,1.3328,1.4983,1.5755,1.5657,1.7263,1.8295,1.8429,1.8365,1.7541,0.0,0.0,0.0,0.0,0.0,0.0,0.0,0.0,0.0,0.0,0.0,0.0,0.0,0.0,0.0,0.0,0.0,0.0,0.0,0.0,0.0,0.0,0.0,0.0,0.0,0.0,0.0,0.0,2.6519,2.7011,2.6446,0.0,0.0,0.0,0.0,0.0,0.0,0.0,0.0,0.0,0.0,3.0194,3.1769,3.2232,0.0,0.0,3.3018,3.272,3.1863,3.3294,3.2844,2.7977,2.7061,0.0,0.0,0.0,0.0,0.0,0.0,0.0,0.0,0.0,0.0,0.0,0.0,0.0,0.0,0.0,0.0,0.0,0.0,0.0,0.0,0.0,0.0,0.0,0.0,0.0,0.0,0.0,0.0,0.0,0.0,0.0,0.0,0.0,0.0,0.0,0.0,0.0,0.0,0.0,0.0,0.0,0.0,0.0,0.0,0.0,0.0,0.0,0.0,0.0,0.0,0.0,0.0,1.4519,1.4163,1.5997,1.6698,1.6212,1.7821,1.8441,1.7968,1.8134,1.7513,0.0,0.0,0.0,0.0,0.0,0.0,0.0,0.0,0.0,0.0,0.0,0.0,0.0,0.0,0.0,0.0,0.0,0.0,0.0,0.0,0.0,0.0,0.0,0.0,0.0,0.0,0.0,0.0,2.6511,2.6973,2.6307,0.0,0.0,0.0,0.0,0.0,0.0,0.0,0.0,0.0,0.0,3.0955,3.2465,3.285,3.2952,3.2847,3.2885,3.2454,3.1142,3.1665,3.0956,2.7154,0.0,0.0,0.0,0.0,0.0,0.0,0.0,0.0,0.0,0.0,0.0,0.0,0.0,0.0,0.0,0.0,0.0,0.0,0.0,0.0,0.0,0.0,0.0,0.0,0.0,0.0,0.0,0.0,0.0,0.0,0.0,0.0,0.0,0.0,0.0,0.0,0.0,0.0,0.0,0.0,0.0,0.0,0.0,0.0,0.0,0.0,0.0,0.0,0.0,0.0,0.0,0.0,0.0,1.4968,1.4516,1.585,1.6727,1.718,1.7252,1.7567,1.7993,1.8834,1.8393,1.6541,0.0,0.0,0.0,0.0,0.0,0.0,0.0,0.0,0.0,0.0,0.0,0.0,0.0,0.0,0.0,0.0,0.0,0.0,0.0,0.0,0.0,0.0,0.0,0.0,0.0,0.0,2.0559,2.337,2.5465,0.0,0.0,0.0,0.0,0.0,0.0,0.0,0.0,0.0,0.0,3.0044,3.2192,3.0954,3.1539,3.2296,3.2841,3.1915,3.1672,3.3104,3.1404,2.9793,0.0,0.0,0.0,0.0,0.0,0.0,0.0,0.0,0.0,0.0,0.0,0.0,0.0,0.0,0.0,0.0,0.0,0.0,0.0,0.0,0.0,0.0,0.0,0.0,0.0,0.0,0.0,0.0,3.1152,0.0,0.0,0.0,0.0,0.0,0.0,0.0,0.0,0.0,0.0,0.0,2.7278,2.6282,0.0,0.0,0.0,0.0,0.0,0.0,0.0,0.0,0.0,0.0,0.0,0.0,1.6042,1.6286,1.7889,1.8807,1.8992,1.8726,1.8536,1.8412,1.8696,1.8107,1.6536,0.0,0.0,0.0,0.0,0.0,0.0,0.0,0.0,0.0,0.0,0.0,0.0,0.0,0.0,0.0,0.0,0.0,0.0,0.0,0.0,0.0,0.0,0.0,0.0,0.0,2.2338,0.0,0.0,0.0,0.0,0.0,0.0,0.0,0.0,0.0,0.0,0.0,2.789,2.9554,2.9098,2.907,3.0317,3.0762,3.1571,0.0,0.0,0.0,0.0,0.0,0.0,0.0,0.0,0.0,0.0,0.0,0.0,0.0,0.0,0.9819,0.8734,0.8392,0.8168,0.7762,0.0,0.0,0.0,0.0,0.0,0.0,0.0,0.0,0.0,0.0,0.0,0.0,0.0,0.0,0.0,0.0,3.2426,0.0,0.0,0.0,0.0,0.0,0.0,0.0,0.0,2.9136,2.985,2.9924,2.8968,2.8577,0.0,2.6568,2.3685,0.0,0.0,0.0,0.0,0.0,0.0,0.0,0.0,1.6673,1.691,1.9036,2.0059,1.9912,1.9648,1.9307,1.8841,1.8822,1.8329,1.7257,1.604,1.5303,0.0,0.0,0.0,0.0,0.0,0.0,0.0,0.0,0.0,0.0,0.0,0.0,0.0,0.0,0.0,0.0,0.0,0.0,0.0,0.0,0.0,0.0,0.0,2.2844,0.0,0.0,0.0,0.0,0.0,0.0,0.0,0.0,0.0,2.8235,2.8102,2.8556,3.0398,2.9423,2.8646,2.8964,0.0,0.0,0.0,0.0,0.0,0.0,0.0,2.4168,2.1616,2.2194,2.2631,2.1593,1.8489,1.5644,1.4312,0.0,0.0,0.8334,0.8166,0.8079,0.7318,0.6889,0.664,0.6563,0.6426,0.6427,0.0,0.0,0.0,0.0,0.0,0.0,0.0,0.0,3.6262,3.3948,0.0,3.2196,0.0,0.0,0.0,0.0,0.0,0.0,0.0,0.0,3.454,3.5057,3.2258,3.1497,3.0808,3.0018,2.8511,2.7,2.5547,2.3049,0.0,0.0,0.0,0.0,0.0,0.0,1.6908,1.657,1.9277,2.0438,1.9961,1.9932,1.9736,1.9316,1.9287,1.9072,1.8617,1.7726,1.7262,1.7212,1.4638,0.0,0.0,0.0,0.0,0.0,0.0,0.0,0.0,0.0,0.0,0.0,0.0,0.0,0.0,0.0,0.0,0.0,0.0,0.0,0.0,2.1437,0.0,0.0,0.0,0.0,0.0,0.0,0.0,0.0,0.0,0.0,2.7603,2.8517,2.9163,2.9035,0.0,0.0,0.0,0.0,2.9019,2.4958,2.4213,2.412,2.367,2.2763,2.2602,2.3987,0.0,0.0,2.3679,1.9021,1.5664,1.6733,1.3795,1.0428,0.7842,0.7904,0.7906,0.6907,0.6513,0.6252,0.6218,0.6101,0.5905,3.7728,0.0,0.0,0.0,0.0,3.4686,3.5847,3.8101,3.7683,3.6584,3.5071,3.5671,0.0,0.0,0.0,0.0,0.0,0.0,3.0475,3.2203,3.3455,3.4179,3.4485,3.3844,3.3667,3.3819,3.2452,3.1529,3.095,2.8709,2.445,1.842,0.0,0.0,0.0,0.0,1.811,1.9177,2.0775,2.1199,2.0419,2.0371,2.0176,1.9746,1.9443,1.9228,1.9102,1.8831,1.869,1.8671,1.7646,0.0,0.0,0.0,0.0,0.0,0.0,0.0,0.0,0.0,0.0,0.0,0.0,0.0,0.0,0.0,0.0,0.0,0.0,0.0,2.2966,2.2718,2.2245,0.0,0.0,0.0,0.0,0.0,0.0,0.0,0.0,0.0,2.8169,2.7377,2.6817,0.0,0.0,2.4858,2.4067,2.5753,2.7123,2.7335,0.0,0.0,0.0,2.5781,2.4049,2.2667,2.2557,2.223,2.0737,1.8971,1.7107,1.5404,1.4041,1.264,1.0859,0.9442,0.8647,0.8242,0.7491,0.6859,0.6824,0.6773,0.6665,4.1371,3.9884,3.7164,3.6582,3.7432,3.6984,3.8013,4.0035,3.9647,3.8289,3.6266,3.7077,3.4797,3.026,2.9475,0.0,0.0,0.0,3.1717,3.4374,3.4374,3.492,3.5866,3.514,3.482,3.4885,3.4415,3.3634,3.2597,3.102,2.7412,2.1898,0.0,0.0,1.8059,1.8543,1.9283,2.0298,2.1046,2.1155,2.0595,2.0615,2.0478,2.0185,1.9932,1.9717,1.9541,1.9541,1.9813,2.0339,1.9433,1.871,0.0,0.0,0.0,0.0,0.0,0.0,0.0,0.0,0.0,0.0,0.0,1.6987,1.7678,0.0,0.0,0.0,2.1904,2.2844,2.3364,2.2321,0.0,0.0,0.0,0.0,0.0,0.0,0.0,2.272,2.4892,2.6769,2.7544,2.6998,2.7079,2.8653,2.7309,2.5986,2.5425,0.0,2.8279,2.831,2.7584,2.7178,2.7606,2.6526,2.4965,2.3247,2.2788,2.2171,2.0573,1.9516,1.817,1.6313,1.5216,1.4468,1.3707,1.1755,0.9923,0.9061,0.7929,0.7139,0.7095,0.7095,0.7095,4.4514,4.4059,3.876,3.775,3.9648,3.9606,4.0433,4.1817,4.1771,3.9259,3.5383,3.708,3.4605,2.9022,2.8517,0.0,0.0,3.173,3.334,3.6384,3.6384,3.6446,3.6446,3.5634,3.4827,3.4129,3.486,3.4061,3.1999,3.1197,2.9274,2.6294,2.4374,2.2311,2.0216,2.021,2.0321,2.0446,2.0529,2.0566,2.0605,2.0615,2.0615,2.0605,2.0615,2.041,1.998,1.9961,2.0598,2.1882,2.0504,2.0314,2.1671,0.0,0.0,0.0,0.0,0.0,0.0,0.0,0.0,0.0,0.0,0.0,0.0,0.0,0.0,0.0,2.2195,0.0,2.2769,2.1373,0.0,0.0,0.0,2.4083,2.6637,2.65,2.6275,2.64,0.0,0.0,0.0,0.0,2.9142,3.2027,3.2079,3.1108,2.909,3.0507,3.1099,2.8391,2.7664,2.7103,2.6854,2.6215,2.5679,2.5089,2.4264,2.3275,2.2179,2.042,1.911,1.8364,1.692,1.5752,1.6095,1.386,1.1638,0.9623,0.8189,0.7272,0.7312,0.7228,0.7095,4.3758,4.3636,4.2264,4.2153,4.2818,4.2177,4.2124,4.2402,4.1512,4.0463,3.9433,3.8854,3.6385,3.2582,3.252,3.2104,3.1384,3.2046,3.3172,3.4589,3.4603,3.4996,3.5718,3.5527,3.5332,3.5166,3.5347,3.5112,3.4508,3.3206,3.0941,2.7829,2.6147,2.3842,2.0931,2.0188,2.0443,2.1582,2.0622,2.0275,2.0586,2.0615,2.0615,2.0615,2.0615,2.0556,2.0458,2.0449,2.0905,2.1961,2.2331,2.2015,2.0904,2.0427,0.0,0.0,0.0,0.0,0.0,0.0,0.0,0.0,0.0,1.7779,1.8411,0.0,2.0661,0.0,2.2157,2.416,2.6074,2.5455,0.0,0.0,2.4847,2.5281,2.4483,2.6131,2.6707,2.5106,2.6554,2.7933,2.8545,2.9236,3.0555,3.288,3.0316,2.8147,2.8033,2.9506,3.0441,2.9751,3.0402,3.0928,2.9836,2.8377,2.692,2.6252,2.5288,2.4301,2.3294,2.1456,1.9828,1.8912,1.7115,1.591,1.5842,1.3889,1.2328,1.1466,0.9874,0.8496,0.8452,0.7753,0.7139,4.4232,4.4562,4.4562,4.4682,4.4759,4.3305,4.2539,4.2241,4.1313,4.058,3.9952,3.8891,3.7152,3.5093,3.5118,3.4407,3.3185,3.365,3.4158,3.4658,3.4658,3.4938,3.5472,3.5034,3.4839,3.4839,3.4839,3.4624,3.4211,3.3763,3.2393,3.0233,2.8704,2.6598,2.3884,2.0865,1.9842,2.0956,1.9935,1.9779,2.0566,2.0615,2.0313,1.9744,1.9573,1.9203,1.8639,1.8462,1.8915,2.0088,2.0686,2.0656,1.9957,1.9458,1.8855,0.0,0.0,0.0,0.0,0.0,0.0,0.0,0.0,0.0,0.0,0.0,2.1347,0.0,2.2714,0.0,2.5127,2.4481,2.4082,2.4235,2.5205,2.5978,2.6458,2.7898,2.8536,2.7669,2.8999,3.0061,3.0325,3.0887,3.1566,3.2555,3.0777,2.9678,3.0248,3.116,3.1613,3.1266,3.1649,3.1446,2.9974,2.8598,2.7271,2.6035,2.4992,2.4,2.2999,2.1562,2.0304,1.9717,1.79,1.6437,1.6314,1.4615,1.316,1.2857,1.1643,1.0351,0.9753,0.875,0.7925,4.5259,4.5883,4.5902,4.5902,4.5755,4.3828,4.2707,4.2158,4.1466,4.0309,3.8854,3.8121,3.7293,3.643,3.6307,3.585,3.5148,3.5133,3.518,3.5326,3.5311,3.5392,3.5472,3.461,3.4211,3.4211,3.4211,3.3788,3.2996,3.3788,3.3536,3.2352,3.106,2.9363,2.7146,2.1998,1.9426,1.9386,1.9056,1.9361,2.0304,2.013,1.9449,1.8322,1.7926,1.7189,1.6096,1.5772,1.6192,1.744,1.7634,1.8137,1.8967,1.7692,1.7208,0.0,1.6061,0.0,0.0,0.0,0.0,0.0,0.0,0.0,0.0,2.1573,2.2018,2.3278,2.3577,2.3482,2.2965,2.221,2.2715,2.5033,2.5543,2.6912,2.9884,3.0404,3.0703,3.1409,3.2064,3.2203,3.158,3.2132,3.2327,3.1917,3.2376,3.2826,3.3504,3.3485,3.3202,3.2695,3.1788,3.0497,2.8643,2.7887,2.7157,2.5557,2.4528,2.3368,2.2489,2.1479,2.0712,2.0245,1.859,1.7253,1.7139,1.5428,1.4124,1.3997,1.2991,1.1815,1.074,0.9579,0.889,4.5755,4.5902,4.5902,4.5902,4.5828,4.4991,4.4548,4.4312,4.3127,4.1216,3.8881,3.8121,3.6916,3.543,3.4758,3.3998,3.315,3.315,3.3567,3.4279,3.4279,3.4725,3.5472,3.5311,3.5213,3.5213,3.5213,3.5133,3.4953,3.5133,3.375,3.0948,3.0622,2.916,0.0,0.0,0.0,0.0,1.9438,1.99,1.8956,1.747,1.667,1.6572,1.6076,0.0,1.5702,1.5623,1.579,1.6166,1.6805,0.0,0.0,0.0,0.0,0.0,0.0,0.0,0.0,0.0,0.0,0.0,2.1471,2.1485,2.2157,2.1506,2.208,2.4495,2.4136,2.4232,2.5569,2.6161,2.6608,2.7157,2.8441,2.9588,3.027,3.0881,3.1336,3.1467,3.164,3.1668,3.1671,3.2132,3.253,3.2506,3.3476,3.4288,3.4504,3.4043,3.3387,3.2652,3.1509,3.0163,2.8939,2.8189,2.7488,2.6311,2.537,2.4384,2.3342,2.2366,2.1048,1.9708,1.8189,1.7009,1.6191,1.4929,1.4088,1.4088,1.3118,1.1938,1.0826,0.9666,0.8627,4.6728,0.0,4.7095,4.7076,0.0,4.6479,4.6028,4.5596,4.4201,4.2649,4.1035,4.0336,3.9125,3.7566,3.6769,3.5759,3.4578,3.4201,3.4293,3.4725,3.4758,3.5034,3.5489,3.5489,3.5489,3.5489,3.5489,3.5489,3.5489,3.5489,3.4635,3.2998,3.2478,3.1556,3.0133,2.768,2.4367,2.0327,2.0812,2.0971,2.0679,1.925,1.8119,1.737,0.0,0.0,0.0,0.0,0.0,0.0,0.0,0.0,0.0,0.0,0.0,2.0385,2.0521,2.125,2.2763,2.2907,2.32,2.3948,2.4042,2.3721,2.3098,2.3417,2.427,2.5681,2.5727,2.5908,2.648,2.7604,2.8182,2.7822,2.8876,2.9827,3.0269,3.0644,3.1191,3.187,3.2004,3.224,3.2979,3.2996,3.3376,3.3983,3.4385,3.4912,3.5523,3.5155,3.4313,3.319,3.2034,3.0782,2.9525,2.8919,2.8169,2.7104,2.6042,2.4966,2.3706,2.2664,2.1382,1.9413,1.8069,1.6968,1.5902,1.4859,1.3906,1.3336,1.2723,1.1686,1.0183,0.9279,0.8759,4.7681,4.8306,4.8324,4.8324,4.8267,4.7775,4.7176,4.6441,0.0,0.0,0.0,4.2411,4.1431,4.027,3.9434,3.8404,3.7187,3.6441,3.6108,3.6108,3.5955,3.591,3.591,3.5925,3.591,3.591,3.591,3.5814,3.5701,3.5701,3.5604,3.5424,3.4658,3.4109,3.3622,3.1293,2.8187,2.4474,2.2551,2.1955,2.2604,2.1243,1.982,1.8425,1.8045,1.7314,1.6184,1.5858,1.5867,1.6202,1.6324,1.695,1.8096,1.8572,1.9297,2.0368,2.0742,2.1838,2.385,2.4119,2.4997,2.6907,2.7052,2.6205,2.4329,2.5731,2.6658,2.6487,2.7384,2.7643,2.6977,2.8264,2.8857,2.8113,2.8934,2.9841,3.0337,3.0722,3.1453,3.2422,3.2706,3.311,3.4187,3.4101,3.4253,3.5225,3.5313,3.5473,3.6533,3.6185,3.5162,3.3843,3.2696,3.1584,3.0208,2.9538,2.8965,2.7672,2.6759,2.573,2.434,2.3202,2.1799,2.004,1.8461,1.7228,1.6092,1.5057,1.388,1.269,1.2426,1.1728,0.964,0.8987,0.889,4.8214,4.8324,4.8324,4.8324,4.8287,4.821,4.7818,4.7056,4.4609,4.3119,4.2402,4.1666,4.1253,4.1012,4.0205,3.9722,3.9457,3.8748,3.8418,0.0,3.7755,3.7472,3.7472,3.7472,3.7472,3.7472,3.7472,3.71,3.6492,3.643,3.6134,3.5554,3.5359,3.4442,3.289,3.2365,3.1079,2.8831,2.4382,2.1966,2.1665,1.9061,1.7628,1.7561,1.7131,1.6636,1.6216,1.618,1.6054,1.5886,1.6538,1.77,1.9454,2.1038,2.2571,2.412,2.5073,2.572,2.6077,2.6514,2.7449,2.8891,2.9075,2.8222,2.6361,2.6958,2.7263,2.6658,2.7973,2.8709,2.8484,2.9318,2.9805,2.9474,3.0735,3.15,3.089,3.2014,3.2957,3.3228,3.3365,3.341,3.391,3.4694,3.5101,3.5091,3.6207,3.7335,3.7183,3.6545,3.5427,3.4423,3.3104,3.1868,3.0868,2.9973,2.9244,2.8154,2.7875,2.7275,2.6131,2.5028,2.3627,2.1798,1.9656,1.7979,1.6792,1.5687,1.4402,1.3162,1.2804,1.2141,0.9679,0.923,0.8968,4.8324,4.8324,4.8324,4.8324,4.8287,4.7957,4.7259,4.6312,4.5079,4.4369,4.3981,4.335,4.2797,4.2328,4.1588,4.102,4.0632,3.9833,3.951,3.9494,3.9143,3.8777,3.8427,3.8395,3.8174,3.7838,3.7822,3.7602,3.7233,3.6828,3.6399,3.6086,3.5701,3.4773,3.3449,3.3345,3.2429,3.0532,2.6591,2.4295,2.3809,2.1362,1.9974,1.9848,1.9583,1.9411,1.9314,1.9305,1.9504,1.9962,2.0309,2.1416,2.3364,2.4274,2.554,2.7289,2.7389,2.7592,2.8101,2.8346,2.8768,2.946,2.9994,2.995,2.9039,2.9288,2.9322,2.902,3.0048,3.0503,3.007,3.1118,3.1647,3.1037,3.1706,3.1947,3.1673,3.2141,3.2857,3.3258,3.3726,3.433,3.5079,3.5431,3.5883,3.6225,3.7604,3.7945,3.6843,3.679,3.653,3.5714,3.4692,3.3409,3.204,3.1465,3.0459,2.8858,2.8524,2.7978,2.6848,2.5739,2.4266,2.2331,2.0453,1.8828,1.7244,1.6419,1.4986,1.2655,1.2751,1.1879,0.9486,0.8928,0.8957,4.8324,4.8324,4.8324,4.8324,4.823,4.7656,4.6819,4.5957,4.5783,4.5622,4.5433,4.4852,4.4231,4.3652,4.3046,4.2518,4.1917,4.1134,4.0772,4.0756,4.0593,4.0206,3.9706,3.9657,3.9271,3.8642,3.8561,3.8396,3.8023,3.7424,3.6934,3.6554,3.5863,3.5001,3.4013,3.3979,3.3171,3.1436,2.8645,2.6909,2.6274,2.4397,2.3262,2.2959,2.2929,2.2878,2.2787,2.2787,2.3114,2.3833,2.4079,2.4921,2.6477,2.7039,2.7947,2.9227,2.8818,2.8666,2.9295,2.9812,3.0076,3.0209,3.111,3.1785,3.1999,3.1999,3.1692,3.1221,3.1811,3.2105,3.1513,3.2693,3.3319,3.2432,3.267,3.2854,3.2587,3.2717,3.3035,3.3642,3.4297,3.5177,3.5965,3.6006,3.6306,3.748,3.8189,3.7571,3.6274,3.686,3.713,3.6446,3.5672,3.4403,3.2925,3.2302,3.1296,2.9378,2.9088,2.8636,2.7545,2.6353,2.4973,2.332,2.1568,2.005,1.8225,1.727,1.584,1.3447,1.3436,1.2853,1.0303,0.9828,0.9796,4.8324,4.8324,4.8324,4.8324,4.8248,4.7656,4.732,4.7128,4.6594,4.6014,4.5511,4.4852,4.4592,4.4485,4.4378,4.4238,4.4103,4.344,4.3037,4.2953,4.2385,4.2031,4.1937,4.1964,4.1593,4.0954,4.0843,4.0131,3.8963,3.869,3.7942,3.6661,3.5863,3.5019,3.4129,3.4027,3.3484,3.2451,3.0339,2.8805,2.7853,2.6733,2.6105,2.6113,2.6049,2.588,2.5326,2.5425,2.5305,2.5138,2.5877,2.6387,2.6764,2.825,2.9324,2.9526,2.9478,2.9262,2.9147,3.061,3.1764,3.2337,3.3154,3.4047,3.4815,3.499,3.3871,3.2089,3.2518,3.2905,3.1974,3.338,3.3924,3.3033,3.3989,3.4842,3.4018,3.4615,3.5225,3.5255,3.5195,3.5509,3.5735,3.6134,3.6768,3.7515,3.7411,3.7038,3.6554,3.6676,3.6646,3.5752,3.4791,3.3822,3.2735,3.1852,3.0992,2.991,2.9679,2.945,2.8837,2.7596,2.614,2.5155,2.3189,2.1146,2.0339,1.9253,1.7196,1.5258,1.4788,1.4842,1.3509,1.2368,1.1564,4.8324,4.8324,4.8324,4.8324,4.8267,4.8035,4.7736,4.7385,4.711,4.6618,4.6046,4.5783,4.5267,4.4598,4.4598,4.4598,4.4564,4.4276,4.4113,4.4079,4.3802,4.363,4.3546,4.3537,4.3327,4.296,4.2603,4.1901,4.0815,3.9534,3.8129,3.6722,3.6275,3.5737,3.4938,3.4872,3.4409,3.3415,3.2609,3.1443,2.9846,2.7659,2.6483,2.6483,2.6483,2.6435,2.6244,2.621,2.6433,2.6888,2.7297,2.7816,2.8481,2.9748,3.0743,3.1278,3.1875,3.1586,3.0344,3.2022,3.3194,3.3435,3.4327,3.5067,3.5424,3.5489,3.4913,3.4046,3.4285,3.4466,3.4072,3.4667,3.4869,3.4432,3.4543,3.4461,3.4095,3.4361,3.461,3.4643,3.5148,3.5701,3.607,3.6415,3.6722,3.7084,3.7114,3.716,3.6752,3.6994,3.6768,3.5606,3.4225,3.3171,3.2558,3.1815,3.0871,3.0101,2.9779,2.9779,2.9495,2.7971,2.6513,2.6524,2.418,2.2199,2.1301,2.0382,1.8851,1.68,1.4273,1.3692,1.4752,1.3974,1.3421,4.8324,4.8324,4.8324,4.8324,4.8324,4.8324,4.8055,4.7677,4.7635,4.7281,4.671,4.6664,4.6088,4.5152,4.4934,4.4824,4.4852,4.4824,4.4841,4.4824,4.4841,4.478,4.4672,4.4501,4.4488,4.4417,4.3884,4.3204,4.2348,4.051,3.876,3.7458,3.7246,3.6755,3.591,3.6005,3.5657,3.4769,3.4489,3.3559,3.1847,2.9476,2.7917,2.7493,2.7671,2.7808,2.7808,2.8064,2.8515,2.9282,2.9333,2.9718,3.052,3.1217,3.1888,3.2607,3.3754,3.3567,3.1742,3.3359,3.4279,3.4129,3.492,3.5489,3.5489,3.5489,3.5619,3.5721,3.5619,3.5394,3.51,3.5326,3.5392,3.51,3.4591,3.4394,3.4442,3.4394,3.4461,3.4509,3.5133,3.5668,3.6212,3.6446,3.6691,3.7024,3.7456,3.7648,3.71,3.7219,3.6935,3.5668,3.3856,3.2735,3.2522,3.1476,3.0595,3.0139,2.9779,2.9779,2.9702,2.8039,2.6964,2.7035,2.4988,2.3647,2.2911,2.1919,2.0158,1.7142,1.4899,1.3968,1.5337,1.4848,1.4902,4.8324,4.8324,4.8324,4.8324,4.8324,4.8324,4.8287,4.8209,4.821,4.7899,4.7385,4.7363,4.6977,4.6264,4.5757,4.5485,4.5442,4.5477,4.5459,4.5459,4.5459,4.5468,4.5407,4.4892,4.488,4.5354,4.4845,4.4066,4.3207,4.1782,4.0312,3.8873,3.8782,3.8062,3.6909,3.724,3.7249,3.6384,3.5522,3.4714,3.3848,3.2792,3.1288,2.9935,3.0494,3.0818,3.0968,3.1788,3.2258,3.233,3.2222,3.2307,3.2429,3.2486,3.2558,3.282,3.4375,3.4558,3.3066,3.4259,3.5034,3.4361,3.4953,3.5537,3.5619,3.5619,3.5894,3.6492,3.6053,3.5347,3.4695,3.5151,3.5184,3.4547,3.5004,3.5344,3.5424,3.5477,3.5457,3.5474,3.5636,3.5765,3.5716,3.618,3.6889,3.7427,3.7764,3.7661,3.7485,3.7054,3.643,3.5462,3.3973,3.2593,3.2415,3.123,3.0139,2.983,2.9779,2.9779,2.9404,2.8949,2.8347,2.7597,2.6126,2.5072,2.4583,2.3135,2.1023,1.8819,1.7436,1.6889,1.592,1.5825,1.573,4.8324,4.8324,4.8324,4.8324,4.8324,4.8324,4.8324,4.8324,4.8324,4.8191,4.8015,4.7977,4.7635,4.7021,4.6819,4.6495,4.6094,4.6088,4.6088,4.607,4.6088,4.6288,4.6682,4.6472,4.6671,4.7069,4.6591,4.5517,4.4027,4.3014,4.1809,4.0598,4.0361,3.9553,3.8216,3.7794,3.7545,3.7141,3.6046,3.5422,3.5413,3.4211,3.3108,3.2425,3.2172,3.2105,3.2092,3.2415,3.2593,3.2593,3.2593,3.2593,3.2664,3.3157,3.3484,3.3587,3.4773,3.492,3.3891,3.4725,3.5359,3.5067,3.5246,3.5701,3.6086,3.6228,3.6508,3.71,3.7145,3.6752,3.6415,3.5928,3.5542,3.5708,3.5962,3.6196,3.6306,3.6646,3.6981,3.6981,3.6951,3.6799,3.6259,3.6446,3.6919,3.7573,3.7368,3.713,3.701,3.6752,3.6306,3.5444,3.3905,3.2593,3.2593,3.102,2.9818,2.9779,2.9779,2.9779,2.9534,2.8897,2.8255,2.7435,2.6368,2.537,2.4442,2.279,2.0843,1.9066,1.787,1.7178,1.6055,1.5872,1.5825,4.8324,4.8324,4.8324,4.8324,4.8324,4.8324,4.8324,4.8324,4.8324,4.8324,4.8324,4.8324,4.8075,4.7736,4.7677,4.747,4.7004,4.6842,4.6733,4.6728,4.6728,4.6955,4.7281,4.7172,4.753,4.8017,4.7431,4.631,4.5089,4.4154,4.2988,4.1638,4.1763,4.1111,3.9715,3.9269,3.906,3.8617,3.7779,3.7266,3.6801,3.5789,3.4913,3.4355,3.3813,3.3359,3.3101,3.3359,3.3547,3.3533,3.3547,3.3394,3.3157,3.3973,3.4327,3.4129,3.4953,3.5213,3.4691,3.5133,3.5504,3.5504,3.5489,3.5718,3.6228,3.643,3.6964,3.7573,3.7806,3.7892,3.8149,3.7175,3.6446,3.6889,3.6994,3.6873,3.6676,3.7054,3.7175,3.6951,3.6829,3.6677,3.643,3.6477,3.6813,3.7352,3.6904,3.66,3.66,3.6353,3.6117,3.5459,3.4177,3.3101,3.2593,3.1328,3.0101,2.9921,2.9779,2.9779,2.965,2.8976,2.8199,2.7296,2.626,2.519,2.3827,2.2208,2.0494,1.8688,1.7824,1.7271,1.648,1.5825,1.6008,4.8324,4.8324,4.8324,4.8324,4.8324,4.8324,4.8324,4.8324,4.8324,4.8324,4.8324,4.8324,4.8267,4.8248,4.8191,4.8229,4.8055,4.7614,4.7406,4.7406,4.7406,4.7406,4.7449,4.6959,4.7263,4.821,4.707,4.6483,4.6182,4.5131,4.3905,4.2753,4.3043,4.2573,4.1214,4.1582,4.171,4.1037,4.0651,3.9766,3.8075,3.7638,3.6915,3.5849,3.5526,3.5019,3.4119,3.4887,3.5246,3.5311,3.5311,3.4986,3.4331,3.4905,3.5067,3.448,3.5019,3.5439,3.5424,3.5472,3.5489,3.5537,3.5522,3.5701,3.6006,3.6477,3.7174,3.7921,3.8092,3.8442,3.9437,3.8652,3.7822,3.7806,3.779,3.7528,3.6994,3.6691,3.6384,3.6006,3.5941,3.5587,3.5701,3.6086,3.6538,3.6676,3.6584,3.6446,3.6384,3.5975,3.5619,3.5344,3.4476,3.3484,3.2664,3.1779,3.0846,3.0075,2.9895,2.9779,2.9779,2.9314,2.853,2.758,2.583,2.47,2.2722,2.1265,2.0836,1.936,1.8503,1.7731,1.7311,1.6882,1.656,4.8324,4.8324,4.8324,4.8324,4.8324,4.8324,4.8324,4.8324,4.8324,4.8324,4.8324,4.8324,4.8324,4.8324,4.8324,4.8324,4.8287,4.8094,4.8017,4.7997,4.8015,4.8015,4.7957,4.7797,4.7899,4.8191,4.7919,4.7219,4.6478,4.5989,4.5139,4.4198,4.4114,4.3669,4.2666,4.2443,4.2133,4.1807,4.0893,4.0414,4.0611,3.9199,3.8418,3.8435,3.7425,3.6443,3.5781,3.5598,3.5504,3.5537,3.5489,3.5574,3.5738,3.5591,3.5591,3.5772,3.5542,3.5489,3.5489,3.5504,3.5504,3.5619,3.5943,3.6523,3.7055,3.7732,3.8453,3.9199,3.9358,3.9679,3.9876,3.9731,3.9129,3.8608,3.8553,3.8442,3.806,3.8044,3.7831,3.7175,3.6615,3.6306,3.6134,3.6228,3.6086,3.6415,3.6196,3.5894,3.5799,3.5701,3.5504,3.5424,3.4543,3.3705,3.2735,3.1924,3.1057,3.0216,2.9856,2.9534,2.9573,2.9663,2.8882,2.7424,2.5672,2.3935,2.197,2.0918,2.0594,2.0079,1.9185,1.8726,1.8449,1.8126,1.7755,4.8324,4.8324,4.8324,4.8324,4.8324,4.8324,4.8324,4.8324,4.8324,4.8324,4.8324,4.8324,4.8324,4.8324,4.8324,4.8324,4.8324,4.8324,4.8324,4.8324,4.8324,4.8324,4.8324,4.8324,4.8324,4.8248,4.8075,4.7554,4.6778,4.6264,4.5673,4.5008,4.472,4.4321,4.3781,4.3394,4.3127,4.2945,4.2257,4.1919,4.192,4.0815,3.9988,3.9826,3.8903,3.8232,3.7784,3.7384,3.678,3.6145,3.6164,3.6477,3.6584,3.6415,3.6337,3.6117,3.6023,3.5814,3.5554,3.5489,3.5651,3.5926,3.6337,3.695,3.7719,3.8486,3.9166,3.9558,3.9876,4.0113,4.0096,4.007,3.9833,3.9437,3.9342,3.9086,3.869,3.8213,3.7658,3.692,3.6384,3.6259,3.607,3.5894,3.5668,3.6038,3.5814,3.5489,3.5489,3.5522,3.5489,3.5424,3.5052,3.4075,3.2806,3.196,3.123,3.0495,2.9818,2.9365,2.9067,2.9534,2.9248,2.7046,2.5136,2.3963,2.2142,2.147,2.098,2.035,1.9807,1.9306,1.8985,1.9131,1.8902,4.8324,4.8324,4.8324,4.8324,4.8324,4.8324,4.8324,4.8324,4.8324,4.8324,4.8324,4.8324,4.8324,4.8324,4.8324,4.8324,4.8324,4.8324,4.8324,4.8267,4.821,4.8191,4.8287,4.8324,4.8324,4.821,4.7797,4.7488,4.7255,4.6377,4.5545,4.5425,4.4961,4.4626,4.448,4.4536,4.4412,4.4305,4.435,4.368,4.2622,4.2294,4.1707,4.0416,4.0203,3.9986,3.9811,3.9711,3.8879,3.7247,3.75,3.7466,3.7042,3.7429,3.7041,3.6022,3.6321,3.6228,3.5814,3.5733,3.5943,3.66,3.6889,3.7024,3.7921,3.8663,3.9166,3.9262,3.9756,4.0113,4.0113,4.0113,4.0045,4.007,3.9952,3.9385,3.8092,3.7306,3.6798,3.6038,3.5587,3.5522,3.5619,3.5522,3.5537,3.5569,3.5554,3.5489,3.5489,3.5489,3.5489,3.5359,3.5133,3.4109,3.2806,3.196,3.123,3.0355,2.9779,2.9443,2.8897,2.9197,2.9,2.6801,2.501,2.379,2.2696,2.1926,2.14,2.098,2.0395,1.9798,1.9898,2.0314,2.0359,4.8324,4.8324,4.8324,4.8324,4.8324,4.8324,4.8324,4.8324,4.8324,4.8324,4.8324,4.8324,4.8324,4.8324,4.8324,4.8324,4.8324,4.8324,4.8324,4.821,4.7818,4.7937,4.8229,4.8287,4.8267,4.8191,4.7957,4.7838,4.7424,4.6905,4.6329,4.5511,4.5294,4.4998,4.4665,4.4598,4.4598,4.4598,4.4598,4.4429,4.3972,4.3319,4.2884,4.2493,4.1796,4.129,4.0824,4.0837,4.0372,3.9221,3.8738,3.8544,3.8319,3.8129,3.7804,3.7331,3.6876,3.6874,3.7027,3.6631,3.6738,3.7427,3.7889,3.837,3.8608,3.9315,3.9714,3.9825,4.002,4.0113,4.0113,4.0113,4.0113,4.0113,4.0113,3.9679,3.8679,3.7933,3.7189,3.6415,3.5799,3.5554,3.5489,3.5489,3.5489,3.5489,3.5489,3.5489,3.5489,3.5489,3.5489,3.5213,3.4839,3.3856,3.2841,3.1983,3.1106,3.0203,2.9779,2.974,2.9197,2.8897,2.8119,2.6595,2.5336,2.4082,2.3042,2.2117,2.1794,2.1569,2.1248,2.089,2.1765,2.2271,2.2138,4.8324,4.8324,4.8324,4.8324,4.8324,4.8324,4.8324,4.8324,4.8324,4.8324,4.8324,4.8324,4.8324,4.8324,4.8324,4.8324,4.8324,4.8324,4.8324,4.8209,4.7695,4.747,4.7512,4.7494,4.7512,4.7512,4.7512,4.7281,4.6955,4.6751,4.6178,4.5571,4.5241,4.4917,4.4609,4.4598,4.4598,4.4598,4.4598,4.4598,4.4542,4.4121,4.3902,4.3768,4.332,4.2876,4.2571,4.2605,4.2009,4.0847,4.0357,4.0185,3.9881,3.9813,3.941,3.8862,3.8535,3.8544,3.8168,3.7809,3.7798,3.8214,3.8718,3.9059,3.9368,3.9876,4.0113,4.007,4.0113,4.0113,4.0113,4.0113,4.0113,4.0113,4.0113,3.9653,3.8596,3.7703,3.698,3.629,3.5767,3.5504,3.5504,3.5519,3.5504,3.5489,3.5489,3.5489,3.5489,3.5504,3.5466,3.5278,3.4704,3.3744,3.283,3.194,3.1179,3.0253,3.0018,2.9967,2.9541,2.894,2.8189,2.7158,2.5759,2.4435,2.3295,2.2517,2.2451,2.2262,2.2076,2.2217,2.2818,2.3101,2.3101,4.8324,4.8324,4.8324,4.8324,4.8324,4.8324,4.8324,4.8324,4.8324,4.8324,4.8324,4.8324,4.8324,4.8324,4.8324,4.8324,4.8324,4.8324,4.8229,4.7995,4.7491,4.6977,4.6472,4.6618,4.6618,4.6594,4.6413,4.646,4.643,4.5965,4.5648,4.5433,4.4998,4.4692,4.4626,4.4598,4.4598,4.4598,4.4598,4.4598,4.4598,4.4468,4.444,4.4412,4.4384,4.4293,4.4299,4.4283,4.3586,4.169,4.2131,4.1882,4.1458,4.1915,4.1455,4.044,4.0404,4.0295,3.9557,3.9324,3.9214,3.9408,3.9439,3.9521,4.028,4.0561,4.0587,4.062,4.0367,4.0536,4.0536,4.0434,4.0519,4.0578,4.0417,3.9545,3.84,3.7314,3.6477,3.5838,3.5724,3.5624,3.5699,3.5699,3.5744,3.6207,3.6133,3.6148,3.6163,3.6193,3.5933,3.5562,3.4737,3.374,3.2794,3.187,3.1136,3.0414,3.0358,3.0279,2.997,2.9429,2.8765,2.7805,2.636,2.484,2.3353,2.2925,2.2935,2.2862,2.2633,2.2818,2.3101,2.3101,2.3101,4.8324,4.8324,4.8324,4.8324,4.8324,4.8324,4.8324,4.8324,4.8324,4.8324,4.8324,4.8324,4.8324,4.8324,4.8324,4.8324,4.8324,4.8267,4.8075,4.7512,4.6892,4.6305,4.5933,4.6136,4.6336,4.6336,4.6365,4.6365,4.6246,4.6088,4.5957,4.5459,4.5232,4.5079,4.4654,4.4598,4.4598,4.4598,4.4598,4.4598,4.4598,4.4598,4.4598,4.4598,4.4598,4.4598,4.4598,4.4598,4.4345,4.3889,4.3383,4.2847,4.2365,4.2316,4.1988,4.1451,4.1185,4.137,4.1383,4.1026,4.0932,4.1278,4.1285,4.1637,4.176,4.1728,4.1762,4.1813,4.1839,4.166,4.1644,4.1762,4.1677,4.1557,4.1211,4.0835,4.0258,3.8711,3.7583,3.7109,3.6698,3.648,3.69,3.6918,3.6948,3.6971,3.6941,3.6971,3.6911,3.6836,3.6514,3.6079,3.4896,3.3924,3.3155,3.2205,3.1318,3.0792,3.0763,3.0721,3.0421,2.9779,2.9126,2.8163,2.6952,2.5359,2.3707,2.3247,2.3252,2.3208,2.313,2.313,2.314,2.313,2.3091,4.8324,4.8324,4.8324,4.8324,4.8324,4.8324,4.8324,4.8324,4.8324,4.8324,4.8324,4.8324,4.8324,4.8324,4.8324,4.8324,4.8324,4.8306,4.8134,4.7656,4.6914,4.624,4.584,4.5622,4.5545,4.5588,4.5537,4.5545,4.5563,4.5588,4.532,4.5115,4.5089,4.4879,4.4654,4.4598,4.4598,4.4598,4.4598,4.4598,4.4598,4.4598,4.4598,4.4598,4.4598,4.4598,4.4598,4.4598,4.4598,4.4496,4.4181,4.3805,4.3484,4.3378,4.3149,4.2892,4.279,4.2685,4.2728,4.2477,4.2233,4.231,4.2303,4.2303,4.2303,4.2303,4.2303,4.2303,4.2269,4.2286,4.2303,4.2269,4.2303,4.2233,4.199,4.1727,4.1411,4.0022,3.8609,3.8341,3.8182,3.7785,3.7761,3.8034,3.7722,3.7556,3.7338,3.7353,3.7225,3.7131,3.7073,3.6467,3.52,3.4189,3.3522,3.2633,3.1551,3.1228,3.1163,3.1148,3.1016,3.0249,2.9465,2.8402,2.7285,2.575,2.4337,2.3954,2.3584,2.3545,2.3486,2.335,2.3198,2.3159,2.312,4.8324,4.8324,4.8324,4.8324,4.8324,4.8324,4.8324,4.8324,4.8324,4.8324,4.8324,4.8324,4.8324,4.8324,4.8324,4.8267,4.8132,4.7937,4.7718,4.7554,4.6641,4.6167,4.5865,4.5241,4.4759,4.4598,4.4703,4.472,4.472,4.4598,4.4786,4.4626,4.4626,4.4637,4.4598,4.4598,4.4598,4.4598,4.4598,4.4598,4.4598,4.4598,4.4598,4.4598,4.4598,4.4598,4.4598,4.4598,4.4598,4.4598,4.4598,4.4598,4.4598,4.4598,4.4598,4.4502,4.4311,4.4041,4.368,4.35,4.3263,4.2658,4.2692,4.2709,4.2743,4.2844,4.2878,4.2828,4.2861,4.2844,4.2658,4.2844,4.2794,4.2743,4.2692,4.2625,4.2419,4.144,4.0601,3.9612,3.9582,3.9327,3.9142,3.9228,3.8629,3.8137,3.7952,3.7796,3.7698,3.7635,3.7659,3.7147,3.5887,3.432,3.3515,3.3154,3.2079,3.1879,3.1779,3.1779,3.1655,3.0893,3.0036,2.8786,2.7525,2.5982,2.4881,2.4297,2.4023,2.3935,2.3838,2.375,2.3535,2.3237,2.3179,4.8324,4.8324,4.8324,4.8324,4.8324,4.8324,4.8324,4.8324,4.8324,4.8324,4.8324,4.8324,4.8324,4.8324,4.8324,4.8035,4.7614,4.7281,4.6914,4.6778,4.6063,4.5732,4.5571,4.5008,4.4626,4.4598,4.4598,4.4598,4.4598,4.4598,4.4598,4.4598,4.4598,4.4598,4.4598,4.4598,4.4598,4.4598,4.4598,4.4598,4.4598,4.4598,4.4598,4.4598,4.4598,4.4598,4.4598,4.4598,4.4598,4.4598,4.4598,4.4598,4.4598,4.4598,4.4598,4.4598,4.4598,4.4462,4.4282,4.4299,4.4327,4.4242,4.4073,4.409,4.4124,4.4124,4.3938,4.4022,4.4039,4.4124,4.4225,4.3988,4.4141,4.4158,4.4056,4.4028,4.3973,4.3591,4.2866,4.1686,4.1308,4.0894,4.0626,4.051,4.0349,3.9856,3.9484,3.9169,3.8937,3.8742,3.8549,3.7767,3.6704,3.5036,3.3508,3.3288,3.2772,3.2684,3.2608,3.2608,3.2336,3.1586,3.0614,2.9157,2.7743,2.6233,2.5315,2.4838,2.4463,2.4365,2.4268,2.418,2.3887,2.3603,2.3408,4.8324,4.8324,4.8324,4.8324,4.8324,4.8324,4.8324,4.8324,4.8324,4.8324,4.8324,4.8324,4.8324,4.8324,4.8324,4.7975,4.7385,4.7128,4.6733,4.6383,4.5808,4.5511,4.5425,4.4879,4.4637,4.4598,4.4598,4.4598,4.4598,4.4598,4.4598,4.4598,4.4598,4.4598,4.4598,4.4598,4.4598,4.4598,4.4598,4.4598,4.4598,4.4598,4.4598,4.4598,4.4598,4.4598,4.4598,4.4598,4.4598,4.4598,4.4598,4.4598,4.4598,4.4598,4.4598,4.4598,4.4598,4.4598,4.4598,4.4598,4.4564,4.4581,4.4598,4.4598,4.4598,4.4547,4.4598,4.4598,4.4598,4.4598,4.453,4.4598,4.4598,4.4598,4.4598,4.4598,4.4598,4.4598,4.4057,4.3409,4.3161,4.2586,4.1821,4.1805,4.1997,4.1658,4.1046,4.0535,4.006,3.9508,3.9053,3.8204,3.7109,3.5588,3.3969,3.3356,3.3124,3.3124,3.3124,3.3124,3.2698,3.1884,3.0681,2.9285,2.7844,2.6495,2.6387,2.6061,2.5454,2.4805,2.4746,2.46,2.4228,2.3935,2.376,4.8324,4.8324,4.8324,4.8324,4.8324,4.8324,4.8324,4.8324,4.8324,4.8229,4.8152,4.8229,4.8152,4.7957,4.7818,4.7554,4.7044,4.695,4.6519,4.5933,4.5511,4.5311,4.5152,4.4906,4.4598,4.4598,4.4598,4.4598,4.4598,4.4598,4.4598,4.4598,4.4598,4.4598,4.4598,4.4598,4.4598,4.4598,4.4598,4.4598,4.4598,4.4598,4.4598,4.4598,4.4598,4.4598,4.4598,4.4598,4.4598,4.4598,4.4598,4.4598,4.4598,4.4598,4.4598,4.4598,4.4598,4.4598,4.4598,4.4598,4.4598,4.4598,4.4598,4.4598,4.4598,4.4598,4.4598,4.4598,4.4598,4.4598,4.4598,4.4598,4.4598,4.4598,4.4598,4.4598,4.4598,4.4598,4.4598,4.4367,4.4598,4.4093,4.3122,4.297,4.3122,4.2379,4.1739,4.0946,4.0432,3.9666,3.9126,3.8405,3.7367,3.5987,3.4609,3.3513,3.3283,3.3124,3.3124,3.3124,3.2655,3.2052,3.0782,2.9613,2.8239,2.7129,2.7231,2.6883,2.5891,2.5254,2.5215,2.5019,2.4658,2.4365,2.416,4.8324,4.8324,4.8324,4.8324,4.8324,4.8324,4.8324,4.8324,4.8324,4.7995,4.7632,4.7995,4.7656,4.6959,4.6715,4.6336,4.594,4.5858,4.564,4.5106,4.4879,4.4814,4.4731,4.4665,4.4598,4.4598,4.4598,4.4598,4.4598,4.4598,4.4598,4.4598,4.4598,4.4598,4.4598,4.4598,4.4598,4.4598,4.4598,4.4598,4.4598,4.4598,4.4598,4.4598,4.4598,4.4598,4.4598,4.4598,4.4598,4.4598,4.4598,4.4598,4.4598,4.4598,4.4598,4.4598,4.4598,4.4598,4.4598,4.4598,4.4598,4.4598,4.4598,4.4598,4.4598,4.4598,4.4598,4.4598,4.4598,4.4598,4.4598,4.4598,4.4598,4.4598,4.4598,4.4598,4.4598,4.4598,4.4598,4.4598,4.4598,4.4598,4.4121,4.4167,4.4138,4.3259,4.2395,4.1543,4.0724,3.992,3.9322,3.8657,3.7482,3.6053,3.5034,3.3982,3.3326,3.3124,3.3124,3.3038,3.2382,3.1777,3.1279,3.0056,2.8645,2.7231,2.6544,2.612,2.5742,2.5625,2.5488,2.5303,2.5125,2.4861,2.4521,4.8324,4.8324,4.8324,4.8324,4.8324,4.8324,4.8324,4.8324,4.8305,4.7957,4.7509,4.7635,4.7259,4.6483,4.6389,4.6088,4.5597,4.5485,4.5169,4.4692,4.4598,4.4598,4.4598,4.4598,4.4598,4.4598,4.4598,4.4598,4.4598,4.457,4.4598,4.4598,4.4598,4.4598,4.4598,4.4598,4.4598,4.4598,4.4598,4.4598,4.4598,4.4598,4.4598,4.4598,4.4598,4.4598,4.4598,4.4598,4.4598,4.4598,4.4598,4.4598,4.4598,4.4598,4.4598,4.4598,4.4598,4.4598,4.4598,4.457,4.4598,4.4598,4.4598,4.4598,4.4598,4.4598,4.4598,4.4598,4.4598,4.4598,4.4598,4.4598,4.4598,4.4598,4.4598,4.4598,4.4598,4.4598,4.4598,4.4598,4.4598,4.4598,4.4412,4.3931,4.3726,4.3259,4.2221,4.1147,4.0535,3.992,3.9415,3.9017,3.7596,3.6079,3.5265,3.4332,3.3398,3.3124,3.3124,3.2853,3.2008,3.1412,3.0789,2.9795,2.8258,2.7013,2.5965,2.5674,2.5664,2.5674,2.5674,2.5537,2.5332,2.5096,2.4724,4.8324,4.8324,4.8324,4.8324,4.8324,4.8324,4.8324,4.8324,4.8324,4.7858,4.7194,4.686,4.6448,4.624,4.6094,4.5783,4.5267,4.5433,4.5115,4.4759,4.4598,4.4598,4.4598,4.4598,4.4598,4.457,4.4224,4.4338,4.4485,4.4384,4.4281,4.457,4.4598,4.4598,4.4598,4.4598,4.4598,4.4598,4.4598,4.4598,4.4598,4.4598,4.4598,4.4598,4.4598,4.4598,4.4598,4.4598,4.4598,4.4598,4.4598,4.4598,4.4598,4.4327,4.415,4.4121,4.4138,4.415,4.4253,4.4384,4.4542,4.4598,4.4598,4.4598,4.4598,4.4598,4.4598,4.4598,4.4598,4.4598,4.4598,4.4598,4.4598,4.4598,4.4598,4.4598,4.4598,4.457,4.4598,4.4598,4.4598,4.4598,4.4253,4.3456,4.3108,4.3047,4.2125,4.0826,4.022,3.9758,3.9487,3.9017,3.752,3.6198,3.5534,3.4678,3.3784,3.3124,3.3124,3.2612,3.1777,3.0777,2.992,2.8852,2.7657,2.6784,2.5732,2.5732,2.5684,2.5684,2.5684,2.5684,2.5566,2.5244,2.4891,4.8324,4.8324,4.8324,4.8324,4.8324,4.8324,4.8324,4.8324,4.8324,4.7635,4.6501,4.5477,4.5284,4.5459,4.5511,4.5258,4.472,4.5258,4.5008,4.4731,4.4598,4.4598,4.4598,4.4598,4.457,4.4457,4.4006,4.4006,4.4167,4.3651,4.3931,4.4468,4.431,4.4468,4.4384,4.4121,4.4281,4.4355,4.4412,4.4514,4.457,4.4598,4.4598,4.457,4.4587,4.457,4.4598,4.4395,4.4497,4.4497,4.4281,4.4367,4.4224,4.371,4.3426,4.3396,4.3396,4.3396,4.3486,4.4006,4.444,4.4542,4.457,4.4468,4.415,4.444,4.457,4.444,4.4338,4.4514,4.4542,4.4598,4.457,4.4384,4.4338,4.4412,4.444,4.457,4.457,4.4598,4.457,4.4497,4.3931,4.3139,4.2785,4.2676,4.1478,4.0205,3.99,3.9517,3.9358,3.8782,3.7329,3.6277,3.588,3.4911,3.3556,3.3124,3.3124,3.2382,3.15,3.0463,2.9418,2.7928,2.6815,2.6205,2.5732,2.5732,2.5684,2.5684,2.5684,2.5684,2.544,2.5098,2.4785,4.8324,4.8324,4.8324,4.8324,4.8324,4.8324,4.8324,4.8324,4.8287,4.7575,4.6336,4.5205,4.472,4.4906,4.4961,4.4841,4.4626,4.4786,4.4759,4.4692,4.4598,4.4598,4.4598,4.4598,4.457,4.4384,4.3756,4.3383,4.3621,4.2939,4.2724,4.3031,4.3486,4.332,4.3229,4.3229,4.3396,4.3739,4.3873,4.4006,4.457,4.4598,4.4598,4.4598,4.3948,4.4167,4.431,4.3439,4.3768,4.4018,4.3529,4.3499,4.3604,4.2939,4.2552,4.2489,4.2489,4.2489,4.2645,4.3229,4.3545,4.332,4.3798,4.4179,4.338,4.3486,4.3756,4.3785,4.3798,4.3902,4.4542,4.4542,4.4468,4.415,4.4006,4.4064,4.4064,4.4093,4.4355,4.4281,4.431,4.4355,4.3575,4.2738,4.252,4.2252,4.0927,3.9793,3.9538,3.9192,3.898,3.842,3.6968,3.5908,3.5467,3.4332,3.3167,3.3124,3.3124,3.2295,3.1412,3.0226,2.9074,2.7474,2.625,2.5916,2.5732,2.5684,2.5684,2.5684,2.5684,2.5684,2.5343,2.499,2.4538,4.8324,4.8324,4.8324,4.8324,4.8324,4.8324,4.8324,4.8324,4.8324,4.7596,4.6336,4.532,4.4748,4.4637,4.4598,4.4626,4.4598,4.4609,4.4626,4.4598,4.4598,4.4598,4.4598,4.4598,4.457,4.4355,4.3486,4.2939,4.3336,4.2189,4.1804,4.1869,4.2157,4.2125,4.2284,4.2013,4.2332,4.2754,4.297,4.3139,4.3722,4.3739,4.3722,4.3663,4.3139,4.3139,4.329,4.2769,4.2769,4.2984,4.2862,4.2489,4.2395,4.2221,4.1723,4.1642,4.1642,4.1642,4.1836,4.2284,4.2614,4.2489,4.3,4.2953,4.2552,4.2552,4.2878,4.2909,4.2939,4.3259,4.4035,4.3827,4.3768,4.3426,4.3229,4.3229,4.3169,4.3152,4.3651,4.3948,4.3977,4.3873,4.3213,4.2316,4.1445,4.118,4.0413,3.9574,3.943,3.898,3.8457,3.7701,3.6579,3.5641,3.4815,3.3911,3.3124,3.3124,3.2982,3.2382,3.1456,3.0226,2.8982,2.7552,2.6539,2.5945,2.5684,2.5684,2.5684,2.5684,2.5684,2.5684,2.544,2.505,2.4228,4.8324,4.8324,4.8324,4.8324,4.8324,4.8324,4.8324,4.8287,4.8229,4.7533,4.6407,4.5673,4.5062,4.4692,4.4598,4.4598,4.4598,4.4598,4.4598,4.4598,4.4598,4.4598,4.4598,4.4598,4.457,4.415,4.335,4.2847,4.3246,4.1739,4.1046,4.0811,4.1013,4.118,4.1853,4.1917,4.1965,4.2046,4.2029,4.2125,4.2347,4.2458,4.2473,4.2645,4.2221,4.2189,4.2878,4.2189,4.2221,4.2769,4.241,4.2189,4.2284,4.1576,4.108,4.0878,4.086,4.0826,4.0792,4.1576,4.1707,4.1739,4.2157,4.2125,4.1965,4.1997,4.2029,4.2029,4.2013,4.2458,4.2676,4.2738,4.2847,4.2676,4.2458,4.2395,4.2316,4.2473,4.3,4.3591,4.3502,4.3246,4.2645,4.1869,4.0603,3.9955,3.9574,3.9352,3.9265,3.898,3.8457,3.7252,3.6265,3.5292,3.4457,3.367,3.3124,3.3124,3.2939,3.2481,3.1601,3.0361,2.9017,2.7657,2.6617,2.582,2.5684,2.5684,2.5684,2.5684,2.5684,2.5635,2.5421,2.4908,2.39,4.8324,4.8324,4.8324,4.8324,4.8324,4.8324,4.8324,4.8229,4.7838,4.7198,4.6407,4.5783,4.5152,4.4759,4.4598,4.4598,4.4598,4.4598,4.4598,4.4598,4.4598,4.4598,4.4598,4.4598,4.4598,4.4281,4.3456,4.2878,4.3276,4.1528,4.0844,4.0656,4.0185,3.999,4.02,4.0324,4.0497,4.1028,4.1213,4.1412,4.1885,4.1965,4.2125,4.2536,4.1658,4.1788,4.2909,4.1901,4.1772,4.2676,4.2379,4.2029,4.2252,4.1707,4.118,4.0844,4.069,4.0397,4.008,4.0165,4.0255,4.0619,4.1229,4.1295,4.0585,4.0927,4.1062,4.1147,4.1147,4.1609,4.2093,4.2189,4.2157,4.1658,4.1462,4.1528,4.1593,4.1965,4.241,4.3108,4.3306,4.2785,4.2221,4.1295,4.006,3.9666,3.946,3.9388,3.9352,3.9104,3.8657,3.7214,3.6013,3.5007,3.4108,3.3513,3.3167,3.3124,3.3124,3.2939,3.1877,3.0598,2.9624,2.8509,2.701,2.5684,2.5684,2.5684,2.5684,2.5684,2.5528,2.5421,2.5256,2.4382,2.3175,4.8324,4.8324,4.8324,4.8324,4.8324,4.8324,4.8324,4.8248,4.7858,4.7345,4.671,4.6112,4.5511,4.5008,4.4692,4.4598,4.4598,4.4598,4.4598,4.4598,4.4598,4.4598,4.4598,4.4598,4.4598,4.4355,4.3814,4.3306,4.3199,4.1528,4.0588,4.0115,3.9702,3.9574,3.9517,3.9646,3.9737,4.0185,4.0324,4.0432,4.0826,4.1028,4.1262,4.1313,4.1046,4.0946,4.1772,4.1674,4.1028,4.2109,4.2093,4.1461,4.169,4.1494,4.0946,4.0724,4.0979,4.0638,4.022,3.999,4.006,3.9681,4.0619,4.0481,3.9702,4.0025,4.0185,4.0239,4.0274,4.0758,4.1346,4.1478,4.1213,4.0724,4.0946,4.1046,4.118,4.1528,4.2221,4.2878,4.2878,4.2363,4.1739,4.0619,3.9517,3.946,3.9388,3.9388,3.9265,3.8943,3.8531,3.7291,3.5948,3.4938,3.4108,3.3513,3.324,3.3124,3.3124,3.3124,3.2251,3.1,3.0181,2.9074,2.7247,2.5868,2.5732,2.5684,2.5528,2.5323,2.506,2.5011,2.5011,2.3689,2.2034,4.8324,4.8324,4.8324,4.8324,4.8324,4.8324,4.8324,4.8324,4.8287,4.7899,4.7302,4.6618,4.594,4.5425,4.4879,4.4598,4.4598,4.4598,4.4598,4.4598,4.4598,4.4598,4.4598,4.4598,4.4598,4.4327,4.3814,4.3276,4.3108,4.1528,4.0343,3.9717,3.9481,3.9388,3.9388,3.9424,3.9481,3.9646,3.9681,3.9773,3.997,3.9773,4.006,4.013,3.999,4.006,4.0413,4.022,4.0041,4.0165,3.9935,3.9809,3.9681,3.9553,4.006,4.069,4.1576,4.1113,4.0927,4.0758,4.0309,3.9829,3.9722,3.9538,3.9481,3.9553,3.9681,3.9666,3.9702,4.0095,4.0516,4.0378,4.0255,4.0378,4.0724,4.0826,4.0878,4.1379,4.2157,4.252,4.2347,4.1933,4.1313,4.0289,3.9388,3.9388,3.9352,3.9104,3.8907,3.8383,3.7942,3.7329,3.6027,3.491,3.415,3.3428,3.324,3.3124,3.3124,3.3025,3.2152,3.1279,3.0135,2.8762,2.7067,2.5887,2.507,2.4992,2.5226,2.4864,2.384,2.4097,2.3939,2.2014,2.0409,4.8324,4.8324,4.8324,4.8324,4.8324,4.8324,4.8324,4.8324,4.8305,4.7957,4.7345,4.6687,4.6088,4.5459,4.4879,4.4637,4.4598,4.4598,4.4598,4.4598,4.4598,4.4598,4.4598,4.4598,4.4598,4.4327,4.386,4.3336,4.2909,4.1528,4.0274,3.9553,3.9424,3.9388,3.9388,3.9388,3.9388,3.9388,3.9388,3.9388,3.9388,3.9388,3.9646,3.9864,3.9574,3.9864,4.0481,4.0378,4.0466,4.0961,4.1113,4.1213,4.1247,4.1247,4.1495,4.1478,4.1478,4.1113,4.1495,4.1593,4.1213,4.0535,4.0328,3.99,3.9646,3.9481,3.9481,3.9388,3.9388,3.9773,4.0115,4.008,4.0025,4.0239,4.0622,4.0878,4.0946,4.118,4.1901,4.1997,4.1836,4.1576,4.0961,4.015,3.9424,3.9388,3.9265,3.8995,3.8598,3.8107,3.7458,3.6891,3.5961,3.4746,3.3953,3.324,3.3154,3.3124,3.3124,3.2939,3.2295,3.1279,3.0,2.838,2.658,2.5081,2.3839,2.3925,2.4146,2.2826,2.1862,2.2416,2.2447,2.0589,1.9228,4.8324,4.8324,4.8324,4.8324,4.8324,4.8324,4.8324,4.8324,4.8324,4.7957,4.7363,4.6687,4.6088,4.5485,4.4906,4.4598,4.4598,4.4598,4.4598,4.4598,4.4598,4.4598,4.4598,4.4598,4.4598,4.4355,4.4109,4.3726,4.2939,4.1593,4.0239,3.9496,3.9388,3.9388,3.9388,3.9388,3.9388,3.9388,3.9388,3.9388,3.9388,3.9388,3.9773,3.997,3.9574,4.02,4.0842,4.0569,4.1046,4.1396,4.1462,4.1691,4.1788,4.1949,4.1949,4.1869,4.1674,4.1609,4.1836,4.1917,4.1658,4.1379,4.1147,4.0995,4.0378,3.999,3.9646,3.9388,3.9388,3.9481,3.9809,4.006,4.0115,4.022,4.0638,4.1046,4.108,4.1098,4.1264,4.1445,4.1346,4.1162,4.0603,3.9864,3.9409,3.9388,3.9192,3.8833,3.8472,3.7994,3.7266,3.6565,3.5601,3.454,3.3839,3.324,3.3167,3.3124,3.3124,3.2853,3.2295,3.0968,2.9269,2.7678,2.6041,2.4429,2.2676,2.2698,2.2667,2.1347,2.0405,2.0758,2.0633,1.9277,1.8214,4.8324,4.8324,4.8324,4.8324,4.8324,4.8324,4.8267,4.823,4.8172,4.7917,4.732,4.6618,4.5989,4.5433,4.4879,4.4626,4.4598,4.4598,4.4598,4.4598,4.4598,4.4598,4.4598,4.4598,4.4598,4.457,4.4224,4.3502,4.2676,4.1462,4.0274,3.946,3.9388,3.9388,3.9388,3.9388,3.9388,3.9388,3.9388,3.9388,3.9388,3.9388,3.9388,3.946,3.9424,3.9553,3.9717,4.006,4.0603,4.0588,4.0811,4.118,4.1723,4.1981,4.1981,4.2045,4.1965,4.2062,4.2125,4.2125,4.1853,4.1756,4.1869,4.1379,4.0603,4.0535,4.0289,3.9864,3.9864,3.961,3.9773,4.022,4.0413,4.0466,4.069,4.0912,4.0912,4.1013,4.1247,4.1313,4.1113,4.0927,4.0516,3.9758,3.9424,3.9388,3.9265,3.8907,3.7994,3.751,3.6827,3.6013,3.4966,3.4108,3.3911,3.3398,3.3167,3.3124,3.2939,3.2525,3.1789,3.0226,2.8448,2.6894,2.5314,2.326,2.1736,2.1569,2.1221,2.0531,1.9766,1.9353,1.8666,1.7802,1.7378,4.8324,4.8324,4.8324,4.8324,4.8324,4.8324,4.8035,4.7614,4.7614,4.7512,4.7212,4.6281,4.5648,4.5355,4.4852,4.4598,4.4598,4.4598,4.4598,4.4598,4.4598,4.4598,4.4598,4.4598,4.457,4.4355,4.3873,4.2847,4.1691,4.0844,4.0274,3.9481,3.9388,3.9388,3.9388,3.9388,3.9388,3.9388,3.9388,3.9388,3.9388,3.9388,3.9388,3.9388,3.9388,3.9388,3.9517,3.961,3.9773,3.9737,4.0397,4.1098,4.1917,4.1949,4.2347,4.2707,4.2347,4.2316,4.241,4.2237,4.1836,4.1313,4.1046,4.0569,4.0481,4.1028,4.108,4.0588,4.0205,3.9884,3.9829,4.0309,4.0588,4.0622,4.0724,4.0724,4.0675,4.0878,4.1147,4.1062,4.0894,4.0569,4.0185,3.9864,3.9553,3.9388,3.9388,3.887,3.7305,3.6462,3.5922,3.5129,3.4137,3.3471,3.3471,3.3189,3.2785,3.2382,3.2108,3.1645,3.1134,2.9269,2.74,2.6147,2.4553,2.2361,2.0692,1.9974,1.9545,1.9243,1.8955,1.8499,1.7923,1.712,1.6776,4.8324,4.8324,4.8324,4.8324,4.8324,4.8324,4.8113,4.7736,4.7216,4.6955,4.6842,4.5965,4.5355,4.5152,4.4703,4.4598,4.4598,4.4598,4.4598,4.4598,4.4598,4.4598,4.4598,4.4542,4.4196,4.3902,4.266,4.1528,4.0777,4.017,3.9737,3.946,3.9388,3.9388,3.9388,3.9388,3.9388,3.9388,3.9388,3.9388,3.9388,3.9388,3.9388,3.9388,3.9388,3.9388,3.9574,3.9666,3.999,4.022,4.0878,4.1363,4.1917,4.1981,4.2458,4.2754,4.2614,4.2221,4.2458,4.2269,4.1739,4.128,4.1213,4.1046,4.1162,4.1609,4.128,4.0844,4.0588,4.0274,4.0274,4.0588,4.0274,4.015,4.0397,4.0554,4.0274,4.006,4.022,4.0185,4.0095,4.0005,3.9702,3.9666,3.9265,3.8546,3.8657,3.7866,3.6501,3.5668,3.5047,3.429,3.3416,3.3099,3.3227,3.2729,3.2096,3.1689,3.119,3.0226,2.9315,2.7861,2.6332,2.5479,2.3926,2.1335,1.99,1.8986,1.848,1.8283,1.798,1.7598,1.698,1.634,1.5756,4.8324,4.8324,4.8324,4.8324,4.8324,4.8324,4.821,4.7977,4.7044,4.6454,4.624,4.5732,4.5152,4.4759,4.4598,4.4598,4.4598,4.4598,4.4598,4.4598,4.4598,4.4598,4.4497,4.4384,4.3814,4.3,4.1901,4.128,4.0675,4.0205,3.9829,3.9517,3.9388,3.9388,3.9388,3.9388,3.9388,3.9388,3.9388,3.9388,3.9388,3.9388,3.9388,3.9388,3.9388,3.9388,3.9646,3.997,4.0447,4.0758,4.108,4.1772,4.2189,4.2395,4.2862,4.3169,4.2847,4.2489,4.2316,4.1997,4.1772,4.1658,4.1788,4.1674,4.1576,4.1511,4.118,4.1013,4.0758,4.0588,4.0569,4.0378,3.9955,3.9737,4.008,4.0309,3.9864,3.9496,3.9517,3.9502,3.9481,3.9445,3.9409,3.9373,3.873,3.7979,3.719,3.62,3.5453,3.5088,3.465,3.3788,3.2846,3.2742,3.2742,3.2152,3.1368,3.0598,3.0,2.8773,2.7568,2.6292,2.5518,2.5366,2.3536,2.064,1.906,1.8119,1.7718,1.7628,1.7481,1.7184,1.6183,1.5513,1.459,4.8324,4.8324,4.8324,4.8324,4.8324,4.8324,4.8017,4.7593,4.7342,4.6682,4.5908,4.5571,4.5152,4.4598,4.4598,4.4598,4.4598,4.4598,4.4598,4.4598,4.4598,4.4598,4.4236,4.3575,4.3,4.2252,4.1609,4.133,4.0554,4.0309,4.006,3.946,3.9388,3.9388,3.9388,3.9388,3.9388,3.9388,3.9388,3.9388,3.9388,3.9388,3.9388,3.9388,3.9388,3.9388,3.9481,3.9553,3.9646,3.99,4.05,4.1543,4.2269,4.2693,4.3199,4.3591,4.3259,4.3031,4.2738,4.1901,4.1609,4.108,4.0844,4.0255,4.0359,4.074,4.0569,4.069,4.0466,4.0239,4.015,3.9864,3.9502,3.9517,3.9702,3.9702,3.9517,3.9424,3.9424,3.9373,3.9301,3.9265,3.9177,3.8782,3.7979,3.7266,3.671,3.5762,3.4815,3.4457,3.4178,3.3292,3.2382,3.1777,3.15,3.1223,3.0541,2.9727,2.8716,2.751,2.6234,2.4963,2.4356,2.429,2.2486,1.9758,1.8407,1.7586,1.7634,1.7601,1.7373,1.6896,1.5752,1.4427,1.3353]}]]